     2.11           OBSERVATION DATA    G (GPS)             RINEX VERSION / TYPE
teqc 2010Oct21 OPUS Account 20111025 19:01:59UTC            PGM / RUN BY / DATE
2962                                                        MARKER NAME
1129                                                        MARKER NUMBER
CSMIDDLETON NGS                                             OBSERVER / AGENCY
4624K01648 TRIMBLE NETR5 4.41                               REC # / TYPE / VERS
60165452 TRM41249.00 NONE                                   ANT # / TYPE
  -739582.6572 -5475262.9388  3176379.9825                  APPROX POSITION XYZ
        2.0000        0.0000        0.0000                  ANTENNA: DELTA H/E/N
     1     1                                                WAVELENGTH FACT L1/2
     5    L1    L2    C1    P1    P2                        # / TYPES OF OBSERV
    15                                                      LEAP SECONDS
  2011     7    27     0     0    0.0000000     GPS         TIME OF FIRST OBS
                                                            END OF HEADER
 11  7 27  0  0  0.0000000  0  8G28G10G09G17G02G04G20G27
 114199757.658 8  88986901.27045  21731480.742                    21731487.762
 124668852.175 6  97144659.47443  23723698.914                    23723709.246
 116834690.733 7  91040114.00845  22232911.891                    22232920.418
 112066903.439 8  87324970.43446  21325597.859                    21325605.328
 118118638.805 7  92040590.22645  22477216.055                    22477222.727
 104818608.347 8  81676944.27846  19946303.344                    19946311.449
 126938487.513 6  98913032.32643  24155561.523                    24155570.121
 117921599.655 7  91887122.50245  22439758.867                    22439767.563
 11  7 27  0  0 30.0000000  0  8G28G10G09G17G02G04G20G27
 114246966.406 8  89023687.27945  21740464.672                    21740471.363
 124574725.753 6  97071314.33843  23705787.805                    23705797.980
 116801252.566 7  91014058.30245  22226548.813                    22226557.066
 112097100.054 8  87348500.26846  21331344.227                    21331351.512
 118036256.529 7  91976396.32645  22461538.742                    22461545.809
 104798644.130 8  81661387.76146  19942504.484                    19942511.891
 126968545.965 6  98936454.51542  24161281.688                    24161289.824
 117906587.026 7  91875424.34845  22436902.195                    22436910.195
 11  7 27  0  1  0.0000000  0  8G28G10G09G17G02G04G20G27
 114294546.104 8  89060762.33545  21749518.867                    21749525.801
 124480614.627 6  96997981.12843  23687878.352                    23687888.879
 116768441.439 7  90988491.18945  22220305.648                    22220313.207
 112127394.852 8  87372106.59646  21337109.102                    21337116.426
 117954151.756 7  91912418.64945  22445914.852                    22445921.699
 104779254.076 8  81646278.64246  19938814.375                    19938822.121
 126999103.857 6  98960265.81243  24167097.328                    24167105.668
 117892065.969 7  91864109.24945  22434139.180                    22434147.680
 11  7 27  0  1 30.0000000  0  8G28G10G09G17G02G04G20G27
 114342496.863 8  89098126.53845  21758643.219                    21758650.707
 124386522.160 6  96924662.44243  23669973.023                    23669983.566
 116736258.453 7  90963413.54345  22214181.039                    22214189.570
 112157787.427 8  87395789.12246  21342892.250                    21342899.727
 117872326.292 7  91848658.61745  22430344.406                    22430350.363
 104760438.174 8  81631616.91646  19935233.797                    19935241.723
 127030160.580 6  98984465.86243  24173006.734                    24173014.770
 117878036.487 7  91853177.18845  22431469.492                    22431477.418
 11  7 27  0  2  0.0000000  0  8G28G10G09G17G02G04G20G27
 114390819.053 8  89135780.17045  21767838.750                    21767846.125
 124292451.374 6  96851360.65144  23652072.211                    23652081.465
 116704704.712 7  90938826.19845  22208176.930                    22208184.230
 112188277.380 8  87419547.52846  21348694.422                    21348701.867
 117790781.443 7  91785117.24645  22414825.938                    22414833.246
 104742196.652 8  81617402.75046  19931762.836                    19931770.434
 127061716.194 6  99009054.60543  24179011.984                    24179019.859
 117864498.987 7  91842628.49545  22428892.813                    22428901.711
 11  7 27  0  2 30.0000000  0  8G28G10G09G17G02G04G20G27
 114439512.859 8  89173723.36245  21777105.117                    21777112.309
 124198405.309 6  96778078.09643  23634175.656                    23634185.320
 116673781.189 7  90914729.96145  22202292.172                    22202300.180
 112218864.976 8  87443382.01646  21354515.102                    21354522.586
 117709518.432 7  91721795.50145  22399362.211                    22399369.012
 104724529.362 8  81603636.05346  19928400.695                    19928408.344
 127093770.012 6  99034031.61643  24185111.594                    24185118.512
 117851453.564 7  91832463.22345  22426410.906                    22426419.004
 11  7 27  0  3  0.0000000  0  8G28G10G09G17G02G04G20G27
 114488578.562 8  89211956.35045  21786442.258                    21786448.918
 124104386.871 7  96704817.10944  23616284.711                    23616294.648
 116643488.578 7  90891125.31845  22196527.563                    22196535.613
 112249548.977 8  87467291.62546  21360354.133                    21360361.270
 117628538.653 7  91658694.45245  22383952.047                    22383958.793
 104707436.171 8  81590316.69546  19925147.820                    19925155.605
 127126321.514 6  99059396.44943  24191306.031                    24191313.379
 117838900.224 7  91822681.39145  22424022.227                    22424030.004
 11  7 27  0  3 30.0000000  0  8G28G10G09G17G02G04G20G27
 114538016.099 8  89250479.07845  21795849.617                    21795856.547
 124010399.294 7  96631580.15644  23598399.156                    23598409.758
 116613827.528 7  90868012.83345  22190883.539                    22190891.879
 112280329.255 8  87491276.25646  21366210.938                    21366219.004
 117547843.596 8  91595815.26545  22368596.641                    22368603.395
 104690916.792 8  81577444.46146  19922004.477                    19922012.137
 127159370.204 6  99085148.67643  24197594.461                    24197602.613
 117826838.936 7  91813282.98845  22421726.961                    22421735.633
 11  7 27  0  4  0.0000000  0  8G28G10G09G17G02G04G20G27
 114587825.449 8  89289291.53745  21805327.734                    21805335.309
 123916445.707 7  96558369.66644  23580520.234                    23580530.641
 116584798.844 7  90845393.09045  22185359.242                    22185367.855
 112311205.707 8  87515335.82446  21372086.891                    21372094.563
 117467434.918 8  91533159.22045  22353295.555                    22353302.148
 104674971.149 8  81565019.29746  19918969.984                    19918977.695
 127192915.578 6  99111287.93443  24203977.844                    24203986.238
 117815269.938 8  91804268.18145  22419525.133                    22419533.461
 11  7 27  0  4 30.0000000  0  8G28G10G09G17G02G04G20G27
 114638006.896 8  89328393.92945  21814877.469                    21814884.621
 123822529.192 7  96485188.08644  23562648.719                    23562658.824
 116556403.337 7  90823266.71545  22179955.898                    22179964.582
 112342177.563 8  87539469.71846  21377980.703                    21377988.254
 117387313.826 8  91470727.26645  22338049.125                    22338055.273
 104659598.848 8  81553040.89146  19916044.750                    19916052.492
 127226956.925 6  99137813.59543  24210455.563                    24210464.926
 117804193.177 7  91795636.93545  22417417.273                    22417425.543
 11  7 27  0  5  0.0000000  0  8G28G10G09G17G02G04G20G27
 114688560.273 8  89367786.14145  21824497.039                    21824504.301
 123728652.847 7  96412037.79144  23544784.211                    23544794.531
 116528641.534 7  90801634.15545  22174673.047                    22174680.898
 112373244.417 8  87563677.65246  21383892.719                    21383900.203
 117307481.861 8  91408520.60045  22322857.125                    22322863.418
 104644799.887 8  81541509.24246  19913228.500                    19913236.223
 127261493.779 6  99164725.42743  24217028.445                    24217036.121
 117793608.856 8  91787389.39745  22415403.094                    22415411.387
 11  7 27  0  5 30.0000000  0  8G28G10G09G17G02G04G20G27
 114739485.758 8  89407468.29845  21834188.086                    21834195.164
 123634819.818 7  96338921.24444  23526928.797                    23526938.539
 116501514.389 7  90780496.14145  22169510.633                    22169519.102
 112404406.293 8  87587959.62546  21389822.547                    21389829.660
 117227939.940 8  91346539.94245  22307721.016                    22307726.941
 104630573.813 8  81530423.99446  19910521.469                    19910529.086
 127296525.418 6  99192022.80043  24223694.859                    24223702.523
 117783516.643 7  91779525.33445  22413482.805                    22413491.461
 11  7 27  0  6  0.0000000  0  8G28G10G09G17G02G04G20G27
 114790783.563 8  89447440.57945  21843949.734                    21843956.508
 123541033.459 6  96265841.06044  23509081.430                    23509091.176
 116475022.663 7  90759853.24645  22164469.570                    22164477.629
 112435662.574 8  87612315.16746  21395770.414                    21395777.797
 117148689.910 8  91284786.72345  22292640.531                    22292646.625
 104616920.754 8  81519785.25746  19907923.234                    19907931.004
 127332051.316 6  99219705.32143  24230455.258                    24230462.535
 117773916.824 8  91772044.93945  22411655.875                    22411664.133
 11  7 27  0  6 30.0000000  0  8G28G10G09G17G02G04G20G27
 114842453.548 8  89487702.87045  21853781.508                    21853789.652
 123447296.683 6  96192799.53043  23491243.422                    23491252.852
 116449166.384 7  90739705.49745  22159549.375                    22159557.191
 112467012.813 8  87636743.91146  21401736.156                    21401743.207
 117069732.888 8  91223261.83745  22277615.039                    22277621.438
 104603839.665 8  81509592.20346  19905433.844                    19905441.938
 127368070.415 6  99247772.16343  24237309.484                    24237317.172
 117764809.012 7  91764947.93345  22409923.211                    22409931.750
 11  7 27  0  7  0.0000000  0  8G28G10G09G17G02G04G20G27
 114894496.053 8  89528255.43045  21863685.617                    21863693.078
 123353612.931 6  96119799.30743  23473415.594                    23473425.906
 116423946.579 7  90720053.71145  22154750.094                    22154758.230
 112498457.105 8  87661245.95146  21407719.805                    21407727.016
 116991070.115 8  91161966.24145  22262645.672                    22262652.586
 104591330.995 8  81499845.19846  19903053.891                    19903061.527
 127404582.864 6  99276223.40143  24244257.727                    24244265.086
 117756193.483 7  91758234.52145  22408283.773                    22408291.555
 11  7 27  0  7 30.0000000  0  8G28G10G09G17G02G04G20G27
 114946910.552 7  89569097.85645  21873659.953                    21873667.027
 123259985.284 6  96046842.79543  23455599.195                    23455608.727
 116399363.535 7  90700898.09044  22150071.938                    22150079.844
 112529994.866 8  87685820.81846  21413721.445                    21413728.625
 116912703.017 8  91100901.03245  22247732.875                    22247739.773
 104579394.126 8  81490543.74846  19900782.320                    19900790.066
 127441587.534 6  99305058.20843  24251299.406                    24251306.578
 117748069.783 8  91751904.34845  22406737.766                    22406746.328
 11  7 27  0  8  0.0000000  0  8G28G10G09G17G02G04G20G27
 114999697.457 7  89610230.46445  21883704.383                    21883712.051
 123166416.710 6  95973932.32643  23437792.797                    23437803.195
 116375418.185 7  90682239.36745  22145515.211                    22145522.992
 112561625.854 8  87710468.33246  21419740.461                    21419747.688
 116834633.054 8  91040067.34845  22232876.789                    22232883.293
 104568028.582 8  81481687.49046  19898619.461                    19898627.508
 127479083.608 6  99334275.89943  24258434.305                    24258441.918
 117740437.964 7  91745957.47745  22405285.289                    22405293.711
 11  7 27  0  8 30.0000000  0  8G28G10G09G17G02G04G20G27
 115052856.648 7  89651653.17645  21893820.734                    21893828.250
 123072910.450 7  95901070.40743  23420000.039                    23420009.301
 116352110.812 7  90664077.79845  22141080.234                    22141088.055
 112593349.540 8  87735188.07046  21425777.016                    21425784.371
 116756861.413 8  90979466.11845  22218077.445                    22218083.500
 104557233.993 8  81473276.13446  19896565.453                    19896572.879
 127517070.373 6  99363875.97443  24265663.336                    24265670.371
 117733297.795 8  91740393.69145  22403926.484                    22403934.672
 11  7 27  0  9  0.0000000  0  8G28G10G09G17G02G04G20G27
 115106387.530 7  89693365.51945  21904007.070                    21904014.672
 122979469.389 6  95828259.25244  23402218.297                    23402228.008
 116329441.687 7  90646413.55845  22136766.516                    22136774.391
 112625165.496 8  87759979.70946  21431831.703                    21431838.645
 116679389.193 8  90919098.20545  22203334.711                    22203341.164
 104547009.446 8  81465308.95446  19894619.828                    19894627.484
 127555547.015 6  99393857.78143  24272984.789                    24272992.012
 117726648.965 8  91735212.76745  22402661.391                    22402669.617
 11  7 27  0  9 30.0000000  0  8G28G10G09G17G02G04G20G27
 115160290.372 7  89735367.69845  21914264.867                    21914272.023
 122886097.135 7  95755501.73044  23384450.672                    23384460.344
 116307411.302 7  90629247.03145  22132574.008                    22132582.199
 112657073.500 8  87784843.07446  21437903.641                    21437911.004
 116602217.839 8  90858964.74045  22188649.266                    22188655.563
 104537355.047 8  81457786.05846  19892782.672                    19892790.313
 127594513.034 6  99424220.86943  24280399.961                    24280407.480
 117720491.456 7  91730414.69845  22401489.594                    22401497.918
 11  7 27  0 10  0.0000000  0  8G28G10G09G17G02G04G20G27
 115214565.508 7  89777659.97445  21924593.039                    21924600.172
 122792797.044 7  95682800.45944  23366696.219                    23366705.633
 116286020.149 7  90612578.59645  22128503.461                    22128511.590
 112689073.376 8  87809778.02946  21443992.820                    21444000.305
 116525348.674 8  90799066.75445  22174021.766                    22174028.223
 104528270.465 8  81450707.16746  19891053.648                    19891061.441
 127633967.376 7  99454964.52343  24287907.867                    24287915.613
 117714824.910 7  91725999.19245  22400411.703                    22400419.605
 11  7 27  0 10 30.0000000  0  8G28G10G09G17G02G04G20G27
 115269212.517 7  89820242.03345  21934991.711                    21935000.078
 122699571.808 7  95610157.50743  23348955.953                    23348965.656
 116265268.717 7  90596408.65645  22124554.781                    22124562.535
 112721165.207 8  87834784.63546  21450099.727                    21450107.180
 116448782.942 8  90739405.20645  22159451.914                    22159458.047
 104519754.925 8  81444071.69246  19889433.516                    19889440.918
 127673909.449 6  99486088.17543  24295507.695                    24295516.953
 117709649.169 7  91721966.14145  22399426.398                    22399434.879
 11  7 27  0 11  0.0000000  0  8G28G10G09G17G02G04G20G27
 115324231.334 7  89863113.79845  21945461.445                    21945469.246
 122606424.905 7  95537575.56544  23331230.680                    23331239.629
 116245157.221 7  90580737.37345  22120726.953                    22120735.813
 112753348.469 8  87859862.48546  21456224.336                    21456231.500
 116372522.002 8  90679981.15245  22144939.977                    22144945.973
 104511808.086 8  81437879.35946  19887920.875                    19887928.570
 127714338.378 6  99517591.20943  24303201.000                    24303210.387
 117704964.286 7  91718315.57545  22398534.867                    22398543.445
 11  7 27  0 11 30.0000000  0  8G28G10G09G17G02G04G20G27
 115379621.926 7  89906275.27045  21956002.250                    21956009.539
 122513359.587 6  95465057.23744  23313520.672                    23313529.727
 116225686.067 7  90565565.06045  22117022.000                    22117030.746
 112785622.911 8  87885011.38346  21462365.805                    21462372.813
 116296566.930 8  90620795.43345  22130486.063                    22130492.047
 104504429.321 8  81432129.68246  19886517.055                    19886524.547
 127755253.105 6  99549472.76143  24310987.742                    24310996.195
 117700769.853 7  91715047.18345  22397736.477                    22397745.516
 11  7 27  0 12  0.0000000  0  8G28G10G09G17G02G04G20G27
 115435383.666 7  89949725.94145  21966612.680                    21966620.598
 122420378.649 6  95392604.65544  23295827.133                    23295836.430
 116206855.404 7  90550891.80945  22113438.648                    22113446.750
 112817987.679 8  87910230.67146  21468524.773                    21468531.383
 116220918.900 8  90561848.97445  22116090.031                    22116096.531
 104497617.770 8  81426821.98546  19885221.047                    19885228.363
 127796652.888 6  99581732.31143  24318866.086                    24318873.898
 117697065.173 7  91712160.41245  22397031.805                    22397040.074
 11  7 27  0 12 30.0000000  0  8G28G10G09G17G02G04G20G27
 115491516.952 7  89993466.13245  21977294.867                    21977302.809
 122327485.504 6  95320220.48043  23278150.125                    23278159.371
 116188665.551 7  90536717.89745  22109977.648                    22109985.297
 112850443.085 8  87935520.58046  21474700.977                    21474708.000
 116145579.246 8  90503142.81445  22101753.773                    22101760.254
 104491373.035 8  81421955.97546  19884032.617                    19884040.086
 127838536.838 7  99614369.17543  24326836.352                    24326843.570
 117693850.140 7  91709655.17645  22396419.703                    22396428.328
 11  7 27  0 13  0.0000000  0  8G28G10G09G17G02G04G20G27
 115548021.746 7  90037495.79745  21988047.352                    21988055.039
 122234683.532 6  95247907.36743  23260489.742                    23260499.555
 116171116.831 7  90523043.57045  22106638.078                    22106645.898
 112882988.841 8  87960880.89946  21480893.906                    21480901.043
 116070549.333 8  90444678.01645  22087476.016                    22087482.582
 104485694.779 8  81417531.37546  19882951.766                    19882959.270
 127880904.155 6  99647382.64343  24334898.109                    24334905.570
 117691124.381 7  91707531.22045  22395901.664                    22395909.883
 11  7 27  0 13 30.0000000  0  8G28G10G09G17G02G04G20G27
 115604897.633 7  90081814.64145  21998870.555                    21998877.961
 122141975.945 6  95175667.77944  23242847.680                    23242857.734
 116154209.502 7  90509869.03344  22103420.445                    22103428.797
 112915624.921 8  87986311.59946  21487104.375                    21487111.492
 115995830.157 8  90386455.34345  22073257.602                    22073263.711
 104480582.150 8  81413547.52046  19881978.813                    19881986.551
 127923753.710 6  99680771.88743  24343051.555                    24343059.453
 117688887.779 7  91705788.40845  22395475.617                    22395484.641
 11  7 27  0 14  0.0000000  0  8G28G10G09G17G02G04G20G27
 115662144.364 7  90126422.44445  22009764.398                    22009772.012
 122049366.080 6  95103504.35343  23225224.852                    23225235.449
 116137943.594 7  90497194.27245  22100325.547                    22100333.719
 112948350.883 8  88011812.34046  21493331.992                    21493338.992
 115921423.041 8  90328475.80645  22059098.188                    22059104.762
 104476034.676 8  81410004.04246  19881113.508                    19881121.145
 127967084.731 6  99714536.27743  24351298.242                    24351306.063
 117687139.926 7  91704426.43745  22395142.992                    22395151.773
 11  7 27  0 14 30.0000000  0  8G28G10G09G17G02G04G20G27
 115719761.471 7  90171318.85245  22020728.758                    22020736.551
 121956857.086 6  95031419.52043  23207621.273                    23207631.238
 116122319.119 7  90485019.36645  22097352.109                    22097360.660
 112981166.704 8  88037383.10346  21499576.688                    21499583.988
 115847329.128 8  90270740.34745  22044998.563                    22045004.652
 104472051.363 8  81406900.18046  19880355.625                    19880363.504
 128010895.938 6  99748674.86443  24359634.641                    24359642.895
 117685880.189 7  91703444.81745  22394903.516                    22394911.746
 11  7 27  0 15  0.0000000  0  8G28G10G09G17G02G04G20G27
 115777748.961 7  90216503.87345  22031763.453                    22031770.871
 121864452.314 7  94959415.88144  23190037.109                    23190046.602
 116107336.194 7  90473344.35145  22094501.211                    22094508.988
 113014071.678 8  88063023.34246  21505838.313                    21505845.410
 115773549.734 8  90213249.95745  22030958.555                    22030965.078
 104468631.770 8  81404235.57646  19879704.688                    19879712.484
 128055186.468 6  99783186.93943  24368063.500                    24368071.223
 117685108.378 7  91702843.40545  22394756.648                    22394765.109
 11  7 27  0 15 30.0000000  0  8G28G10G09G17G02G04G20G27
 115836106.595 7  90261977.31645  22042868.594                    22042876.234
 121772154.646 7  94887495.69144  23172473.258                    23172483.250
 116092994.912 7  90462169.32745  22091771.664                    22091779.898
 113047065.903 8  88088733.12246  21512116.906                    21512124.105
 115700085.463 8  90156005.11645  22016978.719                    22016985.199
 104465774.817 8  81402009.38646  19879161.031                    19879168.934
 128099955.409 6  99818071.85243  24376582.617                    24376590.578
 117684823.753 7  91702621.61245  22394702.688                    22394710.563
 11  7 27  0 16  0.0000000  0  8G28G10G09G17G02G04G20G27
 115894834.353 7  90307739.16445  22054044.156                    22054051.703
 121679967.454 7  94815661.59644  23154930.648                    23154940.371
 116079295.398 7  90451494.38445  22089164.930                    22089172.898
 113080149.258 8  88114512.35646  21518411.898                    21518419.703
 115626938.043 8  90099007.17345  22003059.578                    22003065.512
 104463480.191 7  81400221.38046  19878724.414                    19878731.949
 128145201.703 6  99853328.67943  24385192.555                    24385200.887
 117685026.149 7  91702779.31945  22394740.516                    22394749.137
 11  7 27  0 16 30.0000000  0  8G28G10G09G17G02G04G20G27
 115953931.736 7  90353789.03645  22065289.992                    22065297.441
 121587894.136 6  94743916.21344  23137409.586                    23137418.941
 116066237.758 7  90441319.59845  22086680.047                    22086688.855
 113113321.400 8  88140360.77046  21524724.664                    21524732.527
 115554108.393 8  90042256.84445  21989200.273                    21989207.168
 104461746.919 7  81398870.79246  19878394.547                    19878402.238
 128190924.224 6  99888956.59343  24393893.297                    24393901.660
 117685714.877 7  91703315.98645  22394872.055                    22394880.102
 11  7 27  0 17  0.0000000  0  9G12G28G10G09G17G02G04G20G27
 129524383.78816 100928175.16753  24647682.039                    24647690.566
 116013398.802 7  90400126.98445  22076605.844                    22076613.344
 121495938.078 7  94672262.21644  23119911.391                    23119920.566
 116053821.933 7  90431644.90945  22084317.836                    22084325.855
 113146582.509 8  88166278.52246  21531054.133                    21531061.602
 115481597.934 8  89985755.23446  21975401.945                    21975408.773
 104460574.421 8  81397957.16946  19878171.617                    19878179.180
 128237122.045 6  99924954.84343  24402684.383                    24402692.941
 117686889.716 7  91704231.44345  22395095.742                    22395104.027
 11  7 27  0 17 30.0000000  0  9G12G28G10G09G17G02G04G20G27
 129427519.880 6 100852696.85643  24629249.633                    24629257.699
 116073235.174 7  90446752.68445  22087992.773                    22087999.711
 121404103.175 6  94600702.61344  23102435.672                    23102444.828
 116042048.266 7  90422470.60745  22082077.289                    22082085.730
 113179932.324 7  88192265.38446  21537400.508                    21537407.766
 115409407.784 8  89929503.20945  21961664.258                    21961670.941
 104459962.062 8  81397480.01246  19878054.836                    19878062.688
 128283794.440 6  99961322.89743  24411565.711                    24411574.477
 117688550.328 7  91705525.43545  22395411.602                    22395419.973
 11  7 27  0 18  0.0000000  0  9G12G28G10G09G17G02G04G20G27
 129330634.266 6 100777201.65643  24610812.211                    24610820.668
 116133440.128 7  90493665.59845  22099449.516                    22099456.684
 121312391.838 6  94529239.31844  23084983.008                    23084992.906
 116030916.278 7  90413796.34245  22079958.727                    22079967.313
 113213370.348 8  88218320.98446  21543763.336                    21543770.754
 115337538.732 8  89873501.41945  21947988.102                    21947994.488
 104459908.705 8  81397438.44846  19878044.789                    19878052.754
 128330939.793 6  99998059.51043  24420538.547                    24420545.441
 117690695.713 7  91707197.14245  22395819.961                    22395827.488
 11  7 27  0 18 30.0000000  0  9G12G28G10G09G17G02G04G20G27
 129233728.509 6 100701690.76244  24592372.070                    24592380.961
 116194013.135 7  90540865.30445  22110976.516                    22110983.941
 121220807.267 6  94457874.76544  23067555.086                    23067564.566
 116020425.652 7  90405621.81445  22077962.813                    22077970.984
 113246896.210 8  88244445.02746  21550143.039                    21550150.762
 115265991.884 8  89817750.66946  21934373.258                    21934379.871
 104460412.989 8  81397831.41346  19878140.703                    19878148.184
 128378556.652 6 100035163.56243  24429598.000                    24429606.523
 117693325.052 7  91709245.95945  22396320.516                    22396328.582
 11  7 27  0 19  0.0000000  0  9G12G28G10G09G17G02G04G20G27
 129136804.367 6 100626165.50943  24573927.266                    24573936.629
 116254954.668 7  90588352.15145  22122572.867                    22122580.414
 121129352.701 6  94386611.54144  23050152.094                    23050161.578
 116010576.267 7  90397946.96645  22076088.336                    22076096.598
 113280510.780 7  88270638.19746  21556540.094                    21556547.500
 115194768.020 8  89762251.60345  21920819.867                    21920826.156
 104461474.334 8  81398658.44446  19878342.445                    19878350.570
 128426644.333 6 100072634.42343  24438749.258                    24438757.332
 117696437.909 7  91711671.55545  22396912.508                    22396920.813
 11  7 27  0 19 30.0000000  0  9G12G28G10G09G17G02G04G20G27
 129039863.705 6 100550627.41944  24555480.680                    24555489.191
 116316263.695 7  90636125.37045  22134240.000                    22134247.559
 121038031.567 6  94315452.30244  23032773.719                    23032783.613
 116001367.793 7  90390771.52745  22074335.891                    22074343.953
 113314212.861 7  88296899.55346  21562953.461                    21562960.063
 115123868.349 8  89707005.15145  21907328.148                    21907334.395
 104463092.029 7  81399918.98946  19878650.641                    19878657.953
 128475201.381 6 100110471.04443  24447990.227                    24447997.719
 117700033.876 7  91714473.58245  22397596.797                    22397605.289
 11  7 27  0 20  0.0000000  0  9G12G28G10G09G17G02G04G20G27
 128942907.892 7 100475077.50144  24537030.719                    24537039.262
 116377940.019 7  90684184.80045  22145976.508                    22145984.410
 120946847.197 6  94244399.61544  23015421.766                    23015431.461
 115992800.258 7  90384095.51845  22072705.703                    22072714.066
 113348002.517 7  88323229.15646  21569383.156                    21569390.199
 115053294.203 8  89652012.35546  21893898.102                    21893904.707
 104465265.006 7  81401612.22846  19879064.258                    19879071.516
 128524226.684 6 100148672.55543  24457318.430                    24457327.309
 117704112.216 7  91717651.49345  22398372.969                    22398381.516
 11  7 27  0 20 30.0000000  0  9G12G28G10G09G17G02G04G20G27
 128845938.555 7 100399517.04144  24518578.391                    24518586.453
 116439982.980 7  90732529.91945  22157782.969                    22157790.699
 120855802.599 6  94173455.84444  22998096.859                    22998106.395
 115984873.525 7  90377918.85345  22071197.383                    22071205.742
 113381879.359 7  88349626.68546  21575829.641                    21575836.457
 114983046.398 8  89597273.85646  21880530.273                    21880537.164
 104467992.135 8  81403737.28546  19879583.141                    19879590.816
 128573718.857 6 100187237.87742  24466735.102                    24466744.582
 117708672.107 7  91721204.64145  22399240.641                    22399248.730
 11  7 27  0 21  0.0000000  0  9G12G28G10G09G17G02G04G20G27
 128748957.758 6 100323947.62343  24500123.250                    24500131.496
 116502392.391 7  90781160.59545  22169658.781                    22169666.438
 120764901.472 6  94102623.84944  22980798.461                    22980808.270
 115977587.065 7  90372241.07945  22069810.477                    22069818.664
 113415843.722 7  88376092.42046  21582292.711                    21582300.004
 114913125.955 8  89542790.43646  21867225.188                    21867231.621
 104471272.701 8  81406293.57046  19880207.258                    19880215.266
 128623676.871 6 100226166.15542  24476243.711                    24476251.492
 117713712.850 7  91725132.48045  22400199.820                    22400208.344
 11  7 27  0 21 30.0000000  0  9G12G28G10G09G17G02G04G20G27
 128651967.117 6 100248370.58743  24481666.047                    24481674.855
 116565167.546 7  90830076.25245  22181604.445                    22181612.164
 120674146.797 7  94031906.01844  22963528.953                    22963538.137
 115970940.406 7  90367061.85845  22068545.797                    22068553.785
 113449895.333 7  88402626.14746  21588772.547                    21588779.816
 114843533.862 8  89488562.88346  21853982.094                    21853988.293
 104475105.355 8  81409280.06346  19880936.891                    19880944.070
 128674099.237 6 100265456.30143  24485838.469                    24485846.699
 117719233.666 7  91729434.40345  22401250.578                    22401258.488
 11  7 27  0 22  0.0000000  0  9G12G28G10G09G17G02G04G20G27
 128554968.067 5 100172786.97243  24463207.672                    24463216.402
 116628308.582 7  90879277.01545  22193620.172                    22193627.848
 120583542.174 7  93961305.08944  22946287.633                    22946296.359
 115964933.494 7  90362381.13645  22067402.578                    22067410.672
 113484034.106 8  88429227.78746  21595269.156                    21595276.641
 114774271.431 8  89434592.20346  21840801.969                    21840807.605
 104479489.528 8  81412696.31146  19881770.406                    19881778.387
 128724984.953 6 100305107.47143  24495521.477                    24495530.500
 117725234.048 7  91734110.00145  22402392.172                    22402400.293
 11  7 27  0 22 30.0000000  0  9G12G28G10G09G17G02G04G20G27
 128457962.329 6 100097198.11143  24444747.820                    24444755.980
 116691814.585 7  90928762.16245  22205704.398                    22205712.270
 120493090.733 7  93890823.50744  22929075.227                    22929084.082
 115959566.201 7  90358198.84245  22066381.773                    22066389.949
 113518259.781 7  88455897.15346  21601781.664                    21601789.566
 114705339.383 8  89380878.95846  21827684.813                    21827690.637
 104484423.874 8  81416541.26846  19882709.570                    19882717.668
 128776332.764 6 100345118.73243  24505293.461                    24505301.727
 117731713.217 7  91739158.69645  22403625.039                    22403633.352
 11  7 27  0 23  0.0000000  0  9G12G28G10G09G17G02G04G20G27
 128360951.687 6 100021605.41543  24426286.930                    24426296.395
 116755685.262 7  90978531.47945  22217858.977                    22217866.547
 120402795.722 7  93820463.82944  22911892.391                    22911901.344
 115954838.059 7  90354514.55745  22065481.570                    22065490.367
 113552572.864 7  88482634.60746  21608311.555                    21608319.059
 114636738.516 8  89327423.77446  21814630.547                    21814636.176
 104489907.388 8  81420814.13746  19883753.445                    19883760.949
 128828141.130 6 100385488.88643  24515151.453                    24515159.988
 117738670.539 7  91744579.95445  22404949.297                    22404957.004
 11  7 27  0 23 30.0000000  0  9G12G28G10G09G17G02G04G20G27
 128263938.098 6  99946010.45143  24407826.633                    24407834.797
 116819920.363 7  91028584.75845  22230083.039                    22230090.707
 120312660.616 7  93750228.76244  22894740.031                    22894748.859
 115950748.567 7  90351327.94445  22064703.477                    22064711.887
 113586972.967 7  88509439.87646  21614857.273                    21614864.910
 114568470.308 8  89274227.81046  21801638.945                    21801645.051
 104495939.212 8  81425514.26746  19884901.148                    19884908.820
 128880408.829 6 100426216.95543  24525098.461                    24525106.520
 117746105.351 7  91750373.31045  22406363.852                    22406372.379
 11  7 27  0 24  0.0000000  0  9G12G28G10G09G17G02G04G20G27
 128166923.146 6  99870414.38643  24389365.180                    24389373.609
 116884518.728 7  91078921.11045  22242375.125                    22242383.402
 120222688.639 7  93680120.79144  22877619.203                    22877628.313
 115947297.018 7  90348638.43445  22064046.547                    22064054.551
 113621459.633 8  88536312.59446  21621420.148                    21621427.426
 114500535.306 8  89221291.49146  21788711.406                    21788717.770
 104502517.931 8  81430640.55246  19886152.961                    19886160.344
 128933134.426 6 100467301.78743  24535131.734                    24535139.711
 117754016.500 7  91756537.81645  22407869.398                    22407877.563
 11  7 27  0 24 30.0000000  0  9G12G28G10G09G17G02G04G20G27
 128069908.462 6  99794818.55543  24370903.352                    24370912.191
 116949480.375 7  91129540.52945  22254736.930                    22254744.594
 120132882.936 7  93610142.40044  22860529.695                    22860538.793
 115944483.111 7  90346445.77245  22063511.516                    22063519.715
 113656032.866 7  88563252.77646  21627999.320                    21628006.680
 114432934.587 8  89168615.67446  21775847.352                    21775853.965
 104509642.508 8  81436192.16946  19887508.445                    19887516.566
 128986316.701 6 100508742.52142  24545252.016                    24545259.520
 117762403.112 7  91763072.83045  22409465.383                    22409473.395
 11  7 27  0 25  0.0000000  0  9G12G28G10G09G17G02G04G20G27
 127972896.012 6  99719224.45443  24352442.844                    24352450.996
 117014804.622 7  91180442.50445  22267168.086                    22267175.570
 120043246.747 7  93540296.11744  22843472.469                    22843481.438
 115942306.267 7  90344749.55245  22063096.563                    22063105.563
 113690692.744 7  88590260.46346  21634595.008                    21634602.199
 114365669.155 8  89116201.08446  21763047.375                    21763053.648
 104517311.894 8  81442168.31346  19888968.242                    19888975.609
 129039954.438 6 100550538.15742  24555458.586                    24555465.820
 117771264.554 7  91769977.84245  22411151.172                    22411159.648
 11  7 27  0 25 30.0000000  0  9G12G28G10G09G17G02G04G20G27
 127875887.715 7  99643633.59544  24333983.648                    24333990.305
 117080491.112 7  91231626.73945  22279667.797                    22279675.379
 119953784.143 7  93470585.06944  22826448.023                    22826456.504
 115940766.590 8  90343549.80645  22062803.594                    22062812.184
 113725439.898 8  88617336.16346  21641207.070                    21641214.434
 114298740.163 8  89064048.67046  21750311.117                    21750317.207
 104525525.346 8  81448568.41646  19890531.125                    19890538.813
 129094046.370 6 100592687.69043  24565752.313                    24565759.250
 117780600.205 7  91777252.37645  22412928.148                    22412936.676
 11  7 27  0 26  0.0000000  0  9G12G28G10G09G17G02G04G20G27
 127778885.353 7  99568047.40944  24315523.945                    24315532.863
 117146539.551 7  91283093.01145  22292236.781                    22292244.223
 119864498.087 7  93401011.59744  22809457.320                    22809466.750
 115939862.941 7  90342845.66345  22062632.422                    22062640.234
 113760273.879 8  88644479.51446  21647835.828                    21647843.000
 114232148.605 8  89012159.18646  21737639.156                    21737644.941
 104534281.509 8  81455391.40446  19892197.797                    19892204.609
 129148590.794 6 100635189.87442  24576130.734                    24576139.191
 117790409.188 7  91784895.70345  22414794.750                    22414802.754
 11  7 27  0 26 30.0000000  0  8G12G28G10G09G17G02G04G27
 127681891.947 7  99492468.18644  24297067.273                    24297074.930
 117212950.383 7  91334841.67745  22304874.570                    22304882.398
 119775393.125 7  93331579.24344  22792500.805                    22792510.137
 115939596.134 7  90342637.75645  22062581.602                    22062589.813
 113795195.603 8  88671691.23846  21654481.148                    21654487.988
 114165896.401 8  88960534.13646  21725031.602                    21725037.453
 104543580.473 8  81462637.35346  19893966.930                    19893974.781
 117800691.799 7  91792908.11045  22416751.563                    22416760.086
 11  7 27  0 27  0.0000000  0  8G12G28G10G09G17G02G04G27
 127584907.885 6  99416896.22444  24278611.508                    24278619.602
 117279721.369 7  91386870.96945  22317580.352                    22317587.914
 119686471.171 7  93262289.47444  22775579.492                    22775589.348
 115939964.021 8  90342924.42345  22062651.422                    22062659.359
 113830203.610 8  88698970.20046  21661143.422                    21661149.941
 114099983.036 8  88909173.11746  21712488.500                    21712494.848
 104553419.435 8  81470304.07946  19895839.234                    19895846.570
 117811445.433 7  91801287.56845  22418797.906                    22418805.980
 11  7 27  0 27 30.0000000  0  8G12G28G10G09G17G02G04G27
 127487934.789 6  99341332.82644  24260158.516                    24260165.789
 117346851.732 7  91439180.29645  22330354.477                    22330362.371
 119597735.214 7  93193144.65244  22758693.977                    22758703.617
 115940965.436 7  90343704.73345  22062841.734                    22062850.273
 113865297.651 7  88726316.19946  21667821.195                    21667828.203
 114034408.960 8  88858076.48446  21700010.375                    21700016.539
 104563796.677 8  81478390.25346  19897814.109                    19897821.633
 117822668.881 7  91810033.10445  22420933.664                    22420942.070
 11  7 27  0 28  0.0000000  0  8G12G28G10G09G17G02G04G27
 127390974.433 7  99265779.32444  24241706.625                    24241714.391
 117414341.261 7  91491769.48845  22343197.492                    22343205.305
 119509188.801 7  93124147.51444  22741843.922                    22741853.234
 115942600.192 7  90344978.56645  22063153.078                    22063161.160
 113900478.004 7  88753729.44946  21674515.828                    21674522.973
 113969175.526 8  88807245.28946  21687597.055                    21687602.727
 104574711.294 8  81486895.15046  19899891.031                    19899898.652
 117834361.573 7  91819144.27845  22423158.789                    22423166.984
 11  7 27  0 28 30.0000000  0  8G12G28G10G09G17G02G04G27
 127294028.781 6  99190237.29744  24223259.203                    24223266.840
 117482189.215 7  91544637.97045  22356108.508                    22356116.547
 119420835.398 7  93055300.77544  22725031.047                    22725039.742
 115944867.499 7  90346745.29345  22063584.500                    22063592.387
 113935744.981 7  88781210.20446  21681226.461                    21681234.262
 113904283.480 8  88756680.09946  21675248.023                    21675254.371
 104586162.245 8  81495817.96746  19902070.234                    19902077.570
 117846522.562 7  91828620.35845  22425472.727                    22425481.777
 11  7 27  0 29  0.0000000  0  8G12G28G10G09G17G02G04G27
 127197099.521 6  99114708.04444  24204814.055                    24204821.918
 117550394.490 7  91597784.88245  22369087.617                    22369095.285
 119332678.334 7  92986607.01744  22708254.688                    22708264.656
 115947766.398 7  90349004.17545  22064136.367                    22064144.316
 113971098.126 7  88808758.09246  21687954.469                    21687961.695
 113839733.403 8  88706381.38946  21662964.711                    21662971.102
 104598147.671 8  81505157.26746  19904350.648                    19904358.461
 117859150.609 7  91838460.38045  22427875.750                    22427884.145
 11  7 27  0 29 30.0000000  0  8G12G28G10G09G17G02G04G27
 127100188.596 7  99039193.04144  24186372.258                    24186380.250
 117618956.964 7  91651210.12645  22382134.266                    22382142.887
 119244720.828 7  92918068.76544  22691517.133                    22691526.422
 115951296.422 7  90351754.83145  22064808.258                    22064815.629
 114006537.867 7  88836373.45146  21694698.227                    21694705.715
 113775526.185 8  88656349.83046  21650746.523                    21650752.496
 104610666.704 8  81514912.36446  19906733.070                    19906740.758
 117872244.772 7  91848663.61545  22430367.445                    22430376.570
 11  7 27  0 30  0.0000000  0  8G12G28G10G09G17G02G04G27
 127003298.139 6  98963694.03544  24167934.313                    24167942.059
 117687876.070 7  91704913.26045  22395249.305                    22395257.676
 119156966.601 7  92849688.91944  22674818.289                    22674827.270
 115955456.890 7  90354996.73345  22065599.594                    22065608.051
 114042063.934 7  88864056.07846  21701458.930                    21701466.473
 113711663.282 8  88606586.57346  21638593.836                    21638599.633
 104623718.396 8  81525082.51546  19909216.547                    19909224.488
 117885804.199 7  91859229.38245  22432947.578                    22432956.379
 11  7 27  0 30 30.0000000  0  8G12G28G10G09G17G02G04G27
 126906429.829 7  98888212.27944  24149501.273                    24149508.902
 117757151.054 7  91758893.70045  22408432.211                    22408439.941
 119069418.531 7  92781469.71844  22658158.602                    22658167.457
 115960246.845 7  90358729.17245  22066511.438                    22066519.313
 114077676.583 8  88891806.16246  21708235.625                    21708243.309
 113648145.090 8  88557091.93546  21626506.656                    21626512.621
 104637300.839 8  81535666.24946  19911801.344                    19911808.938
 117899827.613 7  91870156.70245  22435615.930                    22435624.816
 11  7 27  0 31  0.0000000  0  8G12G28G10G09G17G02G04G27
 126809585.754 6  98812749.38843  24131071.844                    24131079.840
 117826781.191 7  91813150.89745  22421682.633                    22421690.387
 118982080.354 7  92713414.06144  22641538.195                    22641548.020
 115965665.594 7  90362951.54345  22067542.242                    22067550.105
 114113375.642 8  88919623.58446  21715029.008                    21715036.449
 113584972.795 8  88507866.82246  21614485.195                    21614491.461
 104651413.199 8  81546662.89046  19914486.797                    19914494.359
 117914314.072 7  91881444.83345  22438373.297                    22438381.797
 11  7 27  0 31 30.0000000  0  8G12G28G10G09G17G02G04G27
 126712767.700 7  98737306.77243  24112648.719                    24112656.449
 117896765.597 7  91867684.15845  22435000.242                    22435008.172
 118894955.091 7  92645524.32444  22624957.867                    22624967.832
 115971711.817 7  90367662.87545  22068692.719                    22068700.879
 114149161.143 8  88947508.37246  21721838.797                    21721846.531
 113522146.713 8  88458911.48346  21602529.734                    21602535.402
 104666053.521 8  81558070.93846  19917272.961                    19917280.563
 117929262.335 7  91893092.81745  22441217.688                    22441225.973
 11  7 27  0 32  0.0000000  0  8G12G28G10G09G17G02G04G27
 126615977.787 7  98661886.09144  24094230.141                    24094238.352
 117967103.679 7  91922493.01044  22448384.797                    22448392.785
 118808046.153 7  92577803.15144  22608420.211                    22608429.555
 115978384.709 7  90372862.50945  22069962.250                    22069970.641
 114185033.112 8  88975460.52946  21728664.742                    21728672.523
 113459667.593 8  88410226.50046  21590640.375                    21590646.328
 104681220.786 8  81569889.58946  19920158.711                    19920166.758
 117944671.402 7  91905099.85645  22444149.820                    22444158.496
 11  7 27  0 32 30.0000000  0  8G12G28G10G09G17G02G04G27
 126519217.708 7  98586488.66744  24075816.813                    24075825.445
 118037794.682 7  91977576.86744  22461836.922                    22461844.586
 118721356.906 7  92510253.14644  22591923.344                    22591932.453
 115985683.189 7  90378549.61245  22071351.109                    22071359.551
 114220991.797 8  89003480.25946  21735507.852                    21735515.309
 113397536.359 8  88361812.58346  21578817.063                    21578823.469
 104696913.315 8  81582117.53846  19923145.133                    19923152.859
 117960540.193 7  91917465.13645  22447169.945                    22447178.332
 11  7 27  0 33  0.0000000  0  8G12G28G10G09G17G02G04G27
 126422489.225 7  98511115.85744  24057410.258                    24057417.852
 118108837.694 7  92032935.04244  22475355.703                    22475363.621
 118634890.689 7  92442876.92344  22575469.852                    22575478.656
 115993606.276 7  90384723.43445  22072858.344                    22072867.047
 114257037.067 8  89031567.46746  21742366.977                    21742374.512
 113335753.429 8  88313670.08946  21567060.227                    21567066.555
 104713129.548 8  81594753.56946  19926230.906                    19926239.031
 117976867.288 8  91930187.53545  22450276.656                    22450285.500
 11  7 27  0 33 30.0000000  0  8G12G28G10G09G17G02G04G27
 126325794.387 7  98435769.26344  24039009.883                    24039018.145
 118180232.062 7  92088566.97544  22488941.680                    22488950.012
 118548650.724 7  92375677.00744  22559059.234                    22559068.043
 116002153.162 7  90391383.32745  22074485.531                    22074493.770
 114293168.916 8  89059722.12846  21749242.781                    21749249.852
 113274319.900 8  88265799.85446  21555369.891                    21555376.098
 104729868.114 8  81607796.61646  19929416.031                    19929423.980
 117993651.483 8  91943266.09745  22453470.891                    22453479.113
 11  7 27  0 34  0.0000000  0  8G12G28G10G09G17G02G04G27
 126229135.172 7  98360450.44044  24020616.086                    24020624.758
 118251976.913 7  92144472.01544  22502594.758                    22502602.457
 118462640.751 7  92308656.29644  22542691.945                    22542701.008
 116011322.949 7  90398528.60845  22076230.422                    22076238.109
 114329387.710 8  89087944.55046  21756134.961                    21756142.082
 113213236.437 8  88218202.39146  21543746.102                    21543751.836
 104747127.791 8  81621245.71046  19932700.250                    19932707.758
 118010891.729 8  91956700.04245  22456751.367                    22456760.379
 11  7 27  0 34 30.0000000  0  8G12G28G10G09G17G02G04G27
 126132513.479 7  98285160.86744  24002229.898                    24002238.074
 118324071.601 7  92200649.67544  22516313.594                    22516321.641
 118376863.972 7  92241817.30144  22526369.195                    22526378.598
 116021114.041 7  90406158.01945  22078093.656                    22078101.805
 114365693.553 8  89116234.81246  21763043.391                    21763051.156
 113152503.801 8  88170878.30046  21532188.789                    21532194.832
 104764906.981 8  81635099.62746  19936083.602                    19936091.199
 118028586.798 7  91970488.38745  22460118.844                    22460127.039
 11  7 27  0 35  0.0000000  0  8G12G28G10G09G17G02G04G27
 126035931.548 7  98209902.29344  23983850.734                    23983858.777
 118396515.384 7  92257099.33444  22530099.555                    22530107.035
 118291323.728 7  92175162.62045  22510091.641                    22510100.617
 116031525.821 7  90414271.09345  22080074.539                    22080083.094
 114402086.410 8  89144592.86246  21769968.750                    21769976.191
 113092122.898 8  88123828.27846  21520698.922                    21520704.605
 104783204.402 8  81649357.36046  19939565.406                    19939573.359
 118046735.726 7  91984630.40345  22463572.375                    22463580.852
 11  7 27  0 35 30.0000000  0  8G12G28G10G09G17G02G04G27
 125939391.007 7  98134675.95444  23965479.820                    23965487.898
 118469307.003 7  92313820.02644  22543951.398                    22543959.395
 118206022.800 7  92108694.42244  22493858.898                    22493868.137
 116042556.646 7  90422866.52045  22082174.328                    22082182.918
 114438565.734 8  89173018.29546  21776910.789                    21776918.289
 113032093.483 8  88077052.14846  21509275.984                    21509281.813
 104802017.735 8  81664017.10846  19943145.758                    19943153.578
 118065336.638 7  91999124.60445  22467112.117                    22467120.531
 11  7 27  0 36  0.0000000  0  8G12G28G10G09G17G02G04G27
 125842894.004 7  98059483.54244  23947117.172                    23947124.328
 118542445.759 7  92370811.19344  22557868.758                    22557877.332
 118120965.127 7  92042415.78545  22477673.266                    22477682.098
 116054205.863 7  90431943.82645  22084390.727                    22084399.168
 114475132.347 8  89201511.75246  21783869.391                    21783876.531
 112972416.956 8  88030550.99246  21497919.438                    21497925.738
 104821346.048 8  81679078.12746  19946823.859                    19946831.285
 118084388.648 7  92013970.30045  22470737.586                    22470745.816
 11  7 27  0 36 30.0000000  0  8G12G28G10G09G17G02G04G27
 125746442.547 7  97984326.63644  23928762.664                    23928770.828
 118615930.818 7  92428072.23244  22571852.367                    22571860.762
 118036153.640 7  91976328.97745  22461533.977                    22461542.375
 116066472.027 7  90441501.87245  22086724.867                    22086733.066
 114511786.187 8  89230073.17646  21790844.328                    21790851.598
 112913093.964 8  87984325.32546  21486630.727                    21486636.641
 104841187.489 8  81694538.98746  19950599.547                    19950607.309
 118103890.216 7  92029166.31045  22474448.523                    22474456.742
 11  7 27  0 37  0.0000000  0  8G12G28G10G09G17G02G04G27
 125650038.621 6  97909206.75244  23910417.281                    23910425.914
 118689761.760 7  92485602.77344  22585902.195                    22585910.758
 117951592.122 7  91910436.95644  22445442.297                    22445451.059
 116079354.121 7  90451539.85945  22089176.297                    22089184.941
 114548527.627 8  89258702.86446  21797836.164                    21797843.332
 112854125.445 8  87938375.86146  21475409.414                    21475415.359
 104861541.078 8  81710398.92446  19954472.633                    19954480.305
 118123840.568 7  92044712.02045  22478245.117                    22478252.672
 11  7 27  0 37 30.0000000  0  8G12G28G10G09G17G02G04G27
 125553684.062 7  97834125.33344  23892081.336                    23892090.059
 118763937.181 7  92543401.74144  22600018.344                    22600025.742
 117867283.734 7  91844742.18644  22429399.055                    22429408.098
 116092850.630 7  90462056.60345  22091744.664                    22091753.180
 114585356.558 8  89287400.72346  21804844.125                    21804851.488
 112795511.474 8  87892702.65446  21464255.172                    21464261.387
 104882404.644 8  81726656.25246  19958442.914                    19958450.457
 118144238.106 7  92060606.19845  22482126.383                    22482134.492
 11  7 27  0 38  0.0000000  0  8G12G28G10G09G17G02G04G27
 125457381.387 7  97759084.35844  23873755.898                    23873763.891
 118838456.067 7  92601468.33844  22614198.375                    22614206.387
 117783231.663 7  91779247.12545  22413404.445                    22413413.449
 116106960.031 7  90473050.93545  22094429.797                    22094438.359
 114622273.290 8  89316167.00446  21811869.102                    21811876.344
 112737252.861 8  87847306.36546  21453168.922                    21453175.230
 104903776.741 8  81743309.83246  19962509.992                    19962517.508
 118165081.403 7  92076847.70345  22486092.500                    22486100.781
 11  7 27  0 38 30.0000000  0  8G12G28G10G09G17G02G04G27
 125361132.141 7  97684084.98844  23855439.703                    23855448.180
 118913317.767 7  92659802.07044  22628444.156                    22628452.125
 117699439.354 7  91713954.47644  22397458.750                    22397467.797
 116121681.227 7  90484521.99145  22097230.930                    22097239.363
 114659277.283 8  89345001.28046  21818910.961                    21818918.297
 112679350.282 8  87802187.49146  21442150.453                    21442156.355
 104925655.510 8  81760358.22646  19966673.188                    19966680.730
 118186369.014 7  92093435.43545  22490144.039                    22490152.316
 11  7 27  0 39  0.0000000  0  8G12G28G10G09G17G02G04G27
 125264938.664 7  97609129.08344  23837135.148                    23837143.133
 118988521.388 7  92718402.23244  22642754.656                    22642762.875
 117615910.519 7  91648867.13144  22381564.141                    22381572.832
 116137013.319 8  90496469.08245  22100148.297                    22100156.820
 114696369.514 8  89373904.30746  21825969.063                    21825976.855
 112621804.712 8  87757346.81246  21431200.000                    21431205.957
 104948039.924 8  81777800.62446  19970932.641                    19970940.160
 118208099.797 7  92110368.49345  22494279.367                    22494287.531
 11  7 27  0 39 30.0000000  0  8G12G28G10G09G17G02G04G27
 125168802.974 7  97534218.16844  23818840.695                    23818848.887
 119064065.943 7  92777268.04544  22657130.883                    22657139.004
 117532648.103 7  91583987.38244  22365719.617                    22365728.098
 116152954.589 7  90508890.85345  22103182.391                    22103190.336
 114733549.580 8  89402875.77846  21833044.344                    21833051.574
 112564616.304 8  87712784.42646  21420317.555                    21420322.969
 104970928.049 8  81795635.51646  19975288.352                    19975295.918
 118230272.121 7  92127645.59745  22498498.344                    22498506.477
 11  7 27  0 40  0.0000000  0  8G12G28G10G09G17G02G04G27
 125072726.694 7  97459353.57644  23800558.469                    23800566.762
 119139950.317 7  92836398.65544  22671571.047                    22671579.496
 117449655.266 7  91519317.68244  22349926.961                    22349935.559
 116169503.441 7  90521786.03745  22106331.359                    22106339.770
 114770817.736 8  89431915.89645  21840135.906                    21840143.387
 112507785.203 8  87668500.47846  21409503.039                    21409508.918
 104994317.691 8  81813861.21146  19979739.438                    19979747.191
 118252884.277 7  92145265.44945  22502801.258                    22502808.949
 11  7 27  0 40 30.0000000  0  8G12G28G10G09G17G02G04G27
 124976712.095 7  97384537.04144  23782287.078                    23782294.973
 119216173.576 7  92895793.34744  22686075.422                    22686083.602
 117366935.419 7  91454860.72044  22334185.813                    22334194.262
 116186658.331 7  90535153.46945  22109595.875                    22109604.695
 114808174.145 7  89461024.77545  21847244.969                    21847252.496
 112451312.164 8  87624495.53346  21398756.414                    21398761.930
 105018207.309 8  81832476.49446  19984285.055                    19984292.684
 118275934.984 7  92163227.00945  22507187.445                    22507195.949
 11  7 27  0 41  0.0000000  0  8G12G28G10G09G17G02G04G27
 124880761.657 7  97309770.50944  23764028.836                    23764036.094
 119292734.712 7  92955451.33544  22700644.391                    22700652.539
 117284491.483 7  91390618.74244  22318496.633                    22318505.711
 116204417.997 7  90548992.16645  22112975.406                    22112983.789
 114845618.708 7  89490202.34445  21854370.102                    21854377.605
 112395198.024 8  87580770.24746  21388077.805                    21388083.758
 105042595.274 8  81851480.11246  19988926.195                    19988933.953
 118299422.693 7  92181529.09644  22511656.805                    22511665.551
 11  7 27  0 41 30.0000000  0  8G12G28G10G09G17G02G04G27
 124784876.860 7  97235055.10844  23745782.406                    23745789.688
 119369633.038 7  93015372.04044  22715278.453                    22715286.516
 117202327.490 7  91326594.89045  22302861.656                    22302869.938
 116222781.584 7  90563301.45845  22116469.688                    22116478.047
 114883152.250 8  89519449.24845  21861512.570                    21861520.590
 112339443.606 8  87537325.27446  21377468.141                    21377474.191
 105067480.353 8  81870871.07646  19993661.656                    19993669.332
 118323346.681 7  92200171.13745  22516209.977                    22516218.316
 11  7 27  0 42  0.0000000  0  8G12G28G10G09G17G02G04G27
 124689060.303 7  97160392.89544  23727548.602                    23727556.617
 119446867.287 7  93075554.50844  22729975.156                    22729983.902
 117120446.657 7  91262791.71145  22287279.992                    22287288.988
 116241747.062 7  90578079.73645  22120079.469                    22120087.250
 114920774.578 8  89548765.33145  21868671.883                    21868679.551
 112284048.888 8  87494160.57146  21366927.117                    21366932.980
 105092860.681 8  81890647.95146  19998491.313                    19998499.156
 118347705.071 7  92219151.68045  22520845.000                    22520853.551
 11  7 27  0 42 30.0000000  0  8G12G28G10G09G17G02G04G27
 124593313.814 7  97085785.28144  23709328.789                    23709337.148
 119524436.200 7  93135997.75844  22744736.281                    22744744.430
 117038852.120 7  91199211.60345  22271753.484                    22271762.059
 116261312.497 7  90593325.51645  22123802.508                    22123810.285
 114958485.660 8  89578150.57846  21875848.133                    21875855.625
 112229014.400 8  87451276.58146  21356454.211                    21356460.418
 105118734.022 8  81910808.99846  20003415.047                    20003422.617
 118372495.862 7  92238469.17045  22525562.461                    22525571.305
 11  7 27  0 43  0.0000000  0  8G12G28G10G09G17G02G04G27
 124497639.406 7  97011233.82944  23691122.016                    23691130.582
 119602338.839 7  93196701.05544  22759560.086                    22759568.836
 116957546.879 7  91135856.91945  22256281.023                    22256290.145
 116281476.548 7  90609037.75645  22127638.938                    22127647.402
 114996285.869 7  89607605.27446  21883041.320                    21883049.094
 112174340.573 8  87408673.61946  21346050.070                    21346056.531
 105145098.518 8  81931352.76246  20008432.000                    20008439.422
 118397717.528 7  92258122.38745  22530362.867                    22530370.824
 11  7 27  0 43 30.0000000  0  8G12G28G10G09G17G02G04G27
 124402039.592 6  96936740.53444  23672930.680                    23672938.566
 119680574.370 7  93257663.73244  22774448.531                    22774456.387
 116876534.596 7  91072730.52745  22240865.266                    22240874.484
 116302238.063 7  90625215.54845  22131590.047                    22131598.320
 115034175.733 8  89637129.81946  21890251.602                    21890259.063
 112120028.411 8  87366352.48846  21335714.914                    21335721.113
 105171953.074 8  81952278.38946  20013542.508                    20013550.008
 118423369.104 7  92278110.58945  22535243.078                    22535252.383
 11  7 27  0 44  0.0000000  0  8G12G28G10G09G17G02G04G27
 124306516.042 6  96862306.64044  23654752.844                    23654760.895
 119759141.341 7  93318884.68944  22789399.180                    22789406.758
 116795818.367 7  91009834.81845  22225505.328                    22225514.410
 116323594.940 7  90641857.25745  22135653.891                    22135662.719
 115072155.053 7  89666724.07446  21897478.781                    21897486.125
 112066077.697 8  87324312.99746  21325448.375                    21325454.406
 105199295.143 8  81973583.89246  20018744.922                    20018752.594
 118449448.498 7  92298432.18145  22540206.422                    22540215.172
 11  7 27  0 44 30.0000000  0  8G12G28G10G09G17G02G04G27
 124211071.375 7  96787934.23044  23636590.086                    23636599.012
 119838039.038 7  93380363.36244  22804412.781                    22804420.957
 116715401.784 7  90947172.61545  22210202.492                    22210211.484
 116345545.866 7  90658961.86045  22139831.016                    22139839.980
 115110223.932 7  89696388.12246  21904723.109                    21904730.773
 112012489.337 8  87282555.86446  21315251.008                    21315256.977
 105227123.720 8  81995268.50046  20024040.820                    20024048.391
 118475954.487 7  92319086.17645  22545250.000                    22545258.695
 11  7 27  0 45  0.0000000  0  8G12G28G10G09G17G02G04G27
 124115707.463 7  96713624.73144  23618443.461                    23618451.375
 119917266.209 7  93442098.76844  22819489.586                    22819497.863
 116635288.093 7  90884746.42345  22194957.195                    22194966.625
 116368088.990 7  90676527.91845  22144121.117                    22144129.426
 115148382.894 8  89726122.35946  21911984.320                    21911992.199
 111959263.945 8  87241081.55546  21305122.445                    21305128.426
 105255436.426 8  82017330.34946  20029428.438                    20029436.211
 118502885.264 7  92340071.17145  22550375.258                    22550383.652
 11  7 27  0 45 30.0000000  0  8G12G28G10G09G17G02G04G27
 124020426.327 7  96639379.72644  23600312.016                    23600319.980
 119996821.519 7  93504089.84644  22834628.305                    22834637.039
 116555480.205 7  90822558.50845  22179770.000                    22179778.797
 116391222.651 7  90694554.11945  22148523.328                    22148531.395
 115186631.877 7  89755926.74845  21919263.430                    21919270.676
 111906401.354 8  87199889.95346  21295062.602                    21295068.598
 105284231.358 8  82039767.95546  20034907.836                    20034915.402
 118530239.167 7  92361385.88345  22555580.281                    22555589.078
 11  7 27  0 46  0.0000000  0  8G12G28G10G09G17G02G04G27
 123925230.368 7  96565201.08444  23582197.000                    23582205.145
 120076704.047 7  93566335.88944  22849829.656                    22849838.125
 116475981.553 7  90760611.55645  22164642.180                    22164651.188
 116414945.194 7  90713039.18845  22153037.344                    22153046.195
 115224971.286 7  89785801.59545  21926558.945                    21926566.133
 111853902.298 8  87158981.63646  21285072.805                    21285078.316
 105313506.872 8  82062580.04346  20040478.797                    20040486.648
 118558014.538 7  92383029.01145  22560865.875                    22560874.457
 11  7 27  0 46 30.0000000  0  8G12G28G10G09G17G02G04G27
 123830121.726 7  96491090.48344  23564098.141                    23564106.195
 120156912.774 7  93628836.15644  22865093.141                    22865101.402
 116396795.716 7  90698908.36645  22149573.563                    22149582.410
 116439254.844 7  90731981.76145  22157663.344                    22157672.063
 115263401.294 8  89815747.03545  21933872.070                    21933879.637
 111801767.280 8  87118356.97046  21275151.516                    21275157.730
 105343261.244 8  82085765.26846  20046140.734                    20046148.547
 118586209.623 7  92404999.19745  22566231.219                    22566239.457
 11  7 27  0 47  0.0000000  0  8G12G28G10G09G17G02G04G27
 123735102.255 7  96417049.35944  23546016.547                    23546024.730
 120237446.418 7  93691589.59444  22880417.883                    22880426.266
 116317925.586 7  90637451.17445  22134565.180                    22134573.813
 116464149.390 7  90751380.08745  22162400.703                    22162409.148
 115301921.957 8  89845763.12846  21941201.922                    21941209.895
 111749996.327 8  87078016.00546  21265299.984                    21265306.277
 105373492.105 8  82109321.77846  20051893.844                    20051901.059
 118614822.452 7  92427294.88145  22571675.883                    22571684.289
 11  7 27  0 47 30.0000000  0  8G12G28G10G09G17G02G04G27
 123640174.089 7  96343079.38844  23527951.953                    23527960.145
 120318303.869 7  93754595.32044  22895804.953                    22895813.473
 116239374.433 7  90576242.54145  22119617.469                    22119625.953
 116489627.343 7  90771233.02345  22167249.047                    22167257.613
 115340533.509 7  89875850.03346  21948549.602                    21948557.426
 111698589.843 8  87037959.02846  21255518.172                    21255523.590
 105404197.625 8  82133248.16246  20057737.031                    20057744.422
 118643851.437 7  92449914.85845  22577199.805                    22577208.664
 11  7 27  0 48  0.0000000  0  8G12G28G10G09G17G02G04G27
 123545339.856 7  96269182.60644  23509905.430                    23509913.488
 120399483.570 7  93817852.19144  22911252.766                    22911260.664
 116161145.728 7  90515285.14645  22104730.344                    22104738.699
 116515687.157 7  90791539.35145  22172207.945                    22172216.695
 115379236.564 8  89906008.24245  21955914.945                    21955921.957
 111647548.610 8  86998186.67146  21245804.914                    21245810.883
 105435376.151 8  82157543.10546  20063669.922                    20063677.641
 118673295.468 7  92472858.23745  22582803.227                    22582812.039
 11  7 27  0 48 30.0000000  0  8G12G28G10G09G17G02G04G27
 123450601.809 7  96195360.78244  23491877.672                    23491885.578
 120480984.874 7  93881359.64744  22926761.922                    22926770.539
 116083242.698 7  90454581.53545  22089906.852                    22089914.570
 116542326.753 7  90812297.45945  22177277.273                    22177285.859
 115418031.272 8  89936237.86645  21963297.078                    21963304.789
 111596873.019 8  86958699.23746  21236161.789                    21236167.703
 105467026.044 8  82182205.36546  20069692.898                    20069700.281
 118703152.870 7  92496123.73245  22588484.828                    22588493.391
 11  7 27  0 49  0.0000000  0  8G12G28G10G09G17G02G04G27
 123355961.982 7  96121615.48844  23473868.453                    23473875.730
 120562805.931 7  93945116.23944  22942332.211                    22942341.117
 116005668.524 7  90394134.17645  22075144.797                    22075152.824
 116569543.875 7  90833505.58045  22182456.617                    22182465.008
 115456917.424 7  89966538.74045  21970697.008                    21970704.672
 111546562.773 8  86919496.47546  21226588.055                    21226593.844
 105499144.746 8  82207232.92746  20075804.742                    20075812.363
 118733421.436 7  92519709.61245  22594244.617                    22594253.340
 11  7 27  0 49 30.0000000  0  8G12G28G10G09G17G02G04G27
 123261422.453 7  96047948.37844  23455878.109                    23455886.258
 120644946.116 7  94009121.52844  22957963.008                    22957970.953
 115928426.753 7  90333945.82545  22060445.617                    22060453.965
 116597337.026 7  90855162.56645  22187745.719                    22187753.762
 115495895.872 8  89996911.53445  21978114.313                    21978121.723
 111496618.769 8  86880579.09746  21217083.766                    21217089.477
 105531730.729 8  82232624.59646  20082005.656                    20082013.098
 118764099.549 7  92543614.60545  22600083.172                    22600091.176
 11  7 27  0 50  0.0000000  0  8G12G28G10G09G17G02G04G27
 123166985.358 7  95974361.05144  23437907.367                    23437914.488
 120727403.896 7  94073374.29544  22973654.109                    22973662.117
 115851520.369 7  90274018.81945  22045810.813                    22045819.371
 116625704.228 7  90877266.88245  22193143.063                    22193152.094
 115534966.601 8  90027356.23246  21985549.406                    21985556.535
 111447040.887 8  86841947.01546  21207649.617                    21207655.320
 105564781.792 8  82258378.66846  20088294.945                    20088302.609
 118795185.200 7  92567837.18845  22605998.055                    22606006.602
 11  7 27  0 50 30.0000000  0  8G12G28G10G09G17G02G04G27
 123072652.999 7  95900855.35244  23419956.281                    23419963.660
 120810177.826 7  94137873.39344  22989405.555                    22989413.746
 115774952.135 7  90214355.31045  22031240.375                    22031249.637
 116654643.474 7  90899816.91945  22198650.805                    22198659.227
 115574129.825 8  90057873.01645  21993001.805                    21993008.922
 111397829.301 8  86803600.35046  21198284.883                    21198290.387
 105598295.856 8  82284493.51646  20094672.586                    20094680.129
 118826676.649 7  92592375.94945  22611990.742                    22611999.262
 11  7 27  0 51  0.0000000  0  8G12G28G10G09G17G02G04G27
 122978428.058 7  95827433.36944  23402025.828                    23402033.145
 120893266.738 7  94202617.95244  23005217.102                    23005225.199
 115698725.649 7  90154958.09445  22016734.555                    22016743.879
 116684152.386 7  90922810.85345  22204265.750                    22204274.539
 115613385.582 7  90088461.89245  22000472.117                    22000479.082
 111348984.520 8  86765539.50246  21188990.000                    21188995.605
 105632270.938 8  82310967.60646  20101137.883                    20101145.516
 118858571.971 7  92617229.43245  22618060.102                    22618069.473
 11  7 27  0 51 30.0000000  0  8G12G28G10G09G17G02G04G27
 122884312.321 7  95754096.49144  23384116.602                    23384124.160
 120976669.793 7  94267607.28144  23021087.680                    23021096.816
 115622844.215 7  90095829.75545  22002295.305                    22002303.930
 116714229.446 7  90946247.51145  22209989.664                    22209998.020
 115652734.870 8  90119123.64245  22007959.859                    22007967.137
 111300507.100 8  86727764.91846  21179765.172                    21179771.008
 105666705.490 8  82337799.72346  20107690.367                    20107697.793
 118890869.711 7  92642396.47645  22624206.242                    22624215.336
 11  7 27  0 52  0.0000000  0  8G12G28G10G09G17G02G04G27
 122790308.317 7  95680846.68344  23366227.852                    23366235.434
 121060385.529 7  94332840.27544  23037018.578                    23037026.852
 115547311.385 7  90036973.04945  21987921.586                    21987930.527
 116744872.520 7  90970125.22545  22215820.734                    22215828.914
 115692177.839 8  90149858.39445  22015465.445                    22015472.629
 111252397.291 8  86690276.78746  21170609.922                    21170615.875
 105701597.485 8  82364988.28546  20114330.055                    20114337.809
 118923568.026 7  92667875.65045  22630428.523                    22630437.516
 11  7 27  0 52 30.0000000  0  9G12G28G10G09G17G02G05G04G27
 122696417.947 7  95607685.41344  23348361.242                    23348369.195
 121144412.279 7  94398315.60544  23053009.219                    23053017.082
 115472129.694 7  89978389.95745  21973615.320                    21973623.941
 116776079.669 7  90994442.47545  22221758.961                    22221767.652
 115731714.125 7  90180665.86345  22022989.188                    22022996.355
 111204655.085 8  86653075.09946  21161525.086                    21161530.566
 129646504.00115 101023389.27852  24670934.984                    24670946.059
 105736944.512 8  82392531.42746  20121056.500                    20121064.520
 118956664.659 7  92693665.19245  22636727.180                    22636735.492
 11  7 27  0 53  0.0000000  0  9G12G28G10G09G17G02G05G04G27
 122602643.402 7  95534614.42544  23330516.906                    23330524.301
 121228748.613 7  94464032.19144  23069057.133                    23069065.324
 115397302.161 7  89920082.84545  21959375.953                    21959384.324
 116807848.224 7  91019197.17645  22227804.680                    22227812.871
 115771343.860 7  90211546.14845  22030530.453                    22030537.496
 111157280.081 8  86616159.52946  21152509.594                    21152515.465
 129541640.091 5 100941677.41943  24650980.438                    24650992.395
 105772744.200 8  82420427.28446  20127868.898                    20127876.426
 118990157.352 7  92719763.36645  22643100.195                    22643108.863
 11  7 27  0 53 30.0000000  0  9G12G28G10G09G17G02G05G04G27
 122508987.273 7  95461635.67445  23312693.672                    23312701.969
 121313393.499 7  94529989.19344  23085165.070                    23085173.012
 115322832.699 8  89862054.74345  21945204.883                    21945213.168
 116840176.520 7  91044388.04445  22233956.359                    22233964.191
 115811067.964 7  90242499.98345  22038089.695                    22038097.148
 111110273.315 8  86579530.90946  21143564.875                    21143570.656
 129436691.121 6 100859899.27742  24631008.547                    24631021.020
 105808994.900 8  82448674.58046  20134767.328                    20134774.711
 119024044.843 7  92746169.17245  22649548.789                    22649557.719
 11  7 27  0 54  0.0000000  0  9G12G28G10G09G17G02G05G04G27
 122415452.041 7  95388751.14144  23294894.758                    23294902.324
 121398345.866 7  94596185.78144  23101330.195                    23101338.840
 115248724.540 7  89804308.17845  21931102.578                    21931110.863
 116873062.537 7  91070013.50445  22240214.172                    22240222.145
 115850887.011 7  90273527.79645  22045666.914                    22045674.434
 111063634.885 8  86543189.28846  21134689.898                    21134695.566
 129331659.346 6 100778056.60642  24611021.609                    24611033.762
 105845695.177 8  82477272.19746  20141751.063                    20141758.684
 119058325.455 7  92772881.29345  22656072.383                    22656081.035
 11  7 27  0 54 30.0000000  0  9G12G28G10G09G17G02G05G04G27
 122322039.933 7  95315962.53144  23277119.195                    23277126.445
 121483604.464 7  94662620.98844  23117554.945                    23117562.520
 115174980.454 7  89746845.29245  21917069.406                    21917077.367
 116906504.287 7  91096071.99845  22246578.422                    22246586.367
 115890801.147 7  90304629.70345  22053262.359                    22053269.879
 111017365.353 8  86507135.14046  21125884.383                    21125890.250
 129226547.508 6 100696151.61742  24591018.750                    24591031.742
 105882842.538 8  82506218.18947  20148820.164                    20148827.539
 119092997.010 7  92799898.05645  22662669.953                    22662678.504
 11  7 27  0 55  0.0000000  0  9G12G28G10G09G17G02G05G04G27
 122228753.288 7  95243271.68644  23259367.070                    23259373.973
 121569167.490 7  94729293.42744  23133837.203                    23133845.492
 115101603.797 7  89689668.72745  21903106.375                    21903114.523
 116940499.486 7  91122561.74745  22253047.203                    22253055.336
 115930810.579 8  90335805.84945  22060875.750                    22060883.512
 110971464.545 8  86471368.29446  21117150.234                    21117155.855
 129121358.095 6 100614186.08743  24571001.859                    24571014.473
 105920434.871 8  82535510.91046  20155973.859                    20155981.410
 119128057.616 7  92827217.96045  22669341.688                    22669350.848
 11  7 27  0 55 30.0000000  0  9G12G28G10G09G17G02G05G04G27
 122135594.298 7  95170680.30344  23241639.570                    23241646.566
 121655033.628 7  94796202.06144  23150176.969                    23150185.105
 115028597.546 7  89632780.78345  21889213.719                    21889221.594
 116975045.514 7  91149480.72145  22259621.617                    22259629.867
 115970915.533 8  90367056.44445  22068507.602                    22068515.227
 110925932.427 8  86435888.74346  21108485.727                    21108491.844
 129016093.769 6 100532162.22242  24550970.234                    24550982.996
 105958470.049 8  82565148.70946  20163211.648                    20163219.672
 119163505.337 7  92854839.52545  22676087.633                    22676096.074
 11  7 27  0 56  0.0000000  0  9G12G28G10G09G17G02G05G04G27
 122042565.226 7  95098190.16545  23223936.805                    23223944.195
 121741201.517 7  94863345.81444  23166574.289                    23166582.602
 114955964.929 7  89576183.98145  21875391.773                    21875400.145
 117010140.585 7  91176827.50345  22266299.938                    22266307.301
 116011116.426 8  90398381.78945  22076157.383                    22076165.254
 110880769.187 8  86400696.62846  21099891.492                    21099897.270
 128910757.204 6 100450082.05142  24530924.453                    24530937.395
 105996946.098 8  82595130.04046  20170533.172                    20170540.957
 119199338.228 7  92882761.21045  22682905.477                    22682914.371
 11  7 27  0 56 30.0000000  0  9G12G28G10G09G17G02G05G04G27
 121949668.515 7  95025803.14744  23206259.148                    23206266.430
 121827670.121 7  94930723.90244  23183028.164                    23183037.141
 114883709.552 7  89519881.14245  21861642.383                    21861650.855
 117045782.584 7  91204600.46645  22273082.531                    22273090.477
 116051413.915 7  90429782.39645  22083826.156                    22083833.707
 110835975.627 8  86365792.58646  21091367.430                    21091373.336
 128805351.226 6 100367947.89242  24510866.211                    24510879.613
 106035861.146 8  82625453.44446  20177938.641                    20177946.480
 119235554.635 7  92910981.74145  22689797.945                    22689806.215
 11  7 27  0 57  0.0000000  0  9G12G28G10G09G17G02G05G04G27
 121856906.360 7  94953520.98644  23188607.055                    23188614.227
 121914437.501 7  94998334.77844  23199539.578                    23199548.910
 114811834.118 7  89463874.34545  21847964.695                    21847973.324
 117081968.899 7  91232797.58345  22279968.250                    22279975.996
 116091808.232 8  90461258.46045  22091512.898                    22091520.621
 110791551.221 8  86331176.18746  21082913.539                    21082919.504
 128699877.939 5 100285761.12842  24490795.555                    24490808.289
 106075212.643 8  82656116.94246  20185426.922                    20185434.457
 119272151.878 7  92939499.01445  22696761.922                    22696770.582
 11  7 27  0 57 30.0000000  0  9G12G28G10G09G17G02G05G04G27
 121764281.293 7  94881345.64845  23170980.750                    23170988.273
 122001502.795 7  95066177.78944  23216107.914                    23216116.852
 114740341.922 7  89408166.18845  21834360.148                    21834368.781
 117118697.571 7  91261417.32045  22286957.570                    22286965.805
 116132299.396 8  90492809.98545  22099218.016                    22099225.645
 110747496.660 8  86296847.97846  21074530.523                    21074536.367
 128594340.69114                  24470710.305
 106114998.698 8  82687119.05646  20192998.086                    20193005.590
 119309128.453 7  92968311.88944  22703798.305                    22703807.207
 11  7 27  0 58  0.0000000  0  8G12G28G10G09G17G02G04G27
 121671795.438 7  94809278.77444  23153381.031                    23153388.797
 122088864.178 7  95134251.54244  23232732.063                    23232740.496
 114669235.623 7  89352758.72745  21820828.984                    21820837.449
 117155965.839 7  91290457.49545  22294049.484                    22294057.840
 116172887.639 7  90524437.16645  22106942.148                    22106949.535
 110703811.238 8  86262807.41746  21066217.313                    21066223.035
 106155217.036 8  82718458.01346  20200651.266                    20200658.898
 119346481.825 6  92997418.35444  22710906.828                    22710915.504
 11  7 27  0 58 30.0000000  0  8G12G28G10G09G17G02G04G27
 121579451.289 7  94737322.32344  23135809.086                    23135816.770
 122176519.989 7  95202554.73244  23249412.664                    23249421.039
 114598518.670 7  89297654.65445  21807372.047                    21807380.391
 117193771.567 7  91319916.48645  22301243.969                    22301252.457
 116213573.586 8  90556140.47545  22114684.094                    22114691.820
 110660495.360 8  86229054.81746  21057974.188                    21057980.254
 106195865.654 8  82750132.25746  20208386.359                    20208393.938
 119384210.332 7  93026817.13244  22718086.375                    22718095.035
 11  7 27  0 59  0.0000000  0  9G12G28G10G09G17G02G05G04G27
 121487251.133 7  94665478.06844  23118263.945                    23118270.922
 122264468.979 6  95271086.35344  23266148.297                    23266157.352
 114528193.761 7  89242856.06245  21793989.750                    21793998.242
 117232112.418 7  91349792.44344  22308539.844                    22308547.844
 116254357.501 8  90587920.12445  22122445.414                    22122452.703
 110617549.232 8  86195590.32746  21049802.008                    21049807.844
 128277860.89815                  24410457.203
 106236942.248 8  82782139.98446  20216202.984                    20216210.969
 119422311.638 6  93056506.42844  22725336.766                    22725345.102
 11  7 27  0 59 30.0000000  0  9G12G28G10G09G17G02G05G04G27
 121395197.028 7  94593747.60944  23100746.406                    23100754.027
 122352709.473 6  95339845.12244  23282940.094                    23282949.105
 114458264.193 7  89188365.53545  21780682.727                    21780691.402
 117270985.807 7  91380083.36445  22315936.844                    22315944.977
 116295239.406 8  90619776.13945  22130224.844                    22130232.227
 110574972.116 8  86162413.37746  21041699.656                    21041705.551
 128172090.683 6                  24390328.406
 106278444.536 8  82814479.42646  20224100.313                    20224108.223
 119460783.580 7  93086484.50844  22732657.422                    22732666.113
 11  7 27  1  0  0.0000000  0  9G12G28G10G09G17G02G05G04G27
 121303291.781 7  94522133.16444  23083257.359                    23083265.266
 122441240.407 6  95408830.20343  23299787.336                    23299796.355
 114388733.309 7  89134185.66545  21767451.367                    21767459.309
 117310389.614 7  91410787.59345  22323435.391                    22323443.586
 116336220.350 8  90651709.32945  22138023.000                    22138030.711
 110532765.375 8  86129525.04346  21033668.148                    21033673.504
 128066269.152 6                  24370187.258
 106320370.754 8  82847149.19846  20232078.984                    20232086.566
 119499624.389 7  93116750.02544  22740048.852                    22740057.566
 11  7 27  1  0 30.0000000  0  9G12G28G10G09G17G02G05G04G27
 121211537.734 7  94450636.50344  23065797.289                    23065804.781
 122530059.981 6  95478040.21443  23316689.250                    23316698.426
 114319604.014 7  89080318.72345  21754296.758                    21754304.605
 117350321.247 7  91441903.12845  22331033.797                    22331042.227
 116377300.120 7  90683719.52645  22145840.445                    22145847.527
 110490928.287 8  86096924.73346  21025706.898                    21025712.555
 127960398.899 6                  24350028.227
 106362718.485 8  82880147.42746  20240137.008                    20240144.980
 119538831.709 7  93147301.11844  22747509.938                    22747518.680
 11  7 27  1  1  0.0000000  0  9G12G28G10G09G17G02G05G04G27
 121119934.784 7  94379257.60845  23048366.063                    23048373.621
 122619164.425 6  95547472.20943  23333644.617                    23333653.969
 114250877.114 7  89026765.33645  21741217.961                    21741226.199
 117390776.047 7  91473426.31645  22338732.180                    22338740.984
 116418477.140 7  90715805.50145  22153676.031                    22153683.961
 110449458.913 8  86064610.96446  21017815.484                    21017821.047
 127854480.451 6  99626615.96553  24329826.195                    24329837.617
 106405483.327 8  82913470.67846  20248274.945                    20248282.914
 119578401.382 7  93178134.57944  22755039.688                    22755048.570
 11  7 27  1  1 30.0000000  0  9G12G28G10G09G17G02G05G04G27
 121028490.469 7  94308002.31845  23030964.883                    23030972.117
 122708557.438 6  95617129.06143  23350655.891                    23350664.277
 114182560.492 7  88973531.65845  21728217.672                    21728226.262
 117431756.639 6  91505359.19145  22346530.859                    22346539.332
 116459756.951 8  90747971.57045  22161531.164                    22161538.996
 110408362.070 8  86032587.47846  21009995.023                    21010000.723
 127748521.387 5  99544050.59643  24309663.367                    24309674.609
 106448668.080 8  82947121.13246  20256492.898                    20256500.836
 119618336.252 7  93209252.60944  22762638.906                    22762648.152
 11  7 27  1  2  0.0000000  0  9G12G28G10G09G17G02G05G04G27
 120937204.118 7  94236870.13445  23013593.227                    23013600.602
 122798234.160 6  95687007.01643  23367721.234                    23367729.160
 114114653.977 8  88920617.53545  21715295.594                    21715303.879
 117473257.372 7  91537697.39644  22354428.102                    22354435.984
 116501136.447 7  90780215.31945  22169405.289                    22169412.965
 110367634.527 8  86000851.75846  21002244.875                    21002250.098
 127642133.52915  99461453.42053  24289493.563                    24289503.234
 106492267.558 8  82981094.75446  20264789.664                    20264797.422
 119658631.055 6  93240651.10344  22770306.633                    22770315.828
 11  7 27  1  2 30.0000000  0  9G12G28G10G09G17G02G05G04G27
 120846078.272 7  94165863.00845  22996252.977                    22996260.098
 122888193.478 6  95757105.15043  23384840.055                    23384847.891
 114047160.928 7  88868025.60145  21702451.961                    21702460.406
 117515276.138 7  91570439.24745  22362424.391                    22362432.297
 116542616.613 7  90812537.51445  22177298.922                    22177306.887
 110327276.925 8  85969404.30346  20994564.742                    20994570.363
 127536095.365 6  99378826.47043  24269315.063                    24269324.652
 106536279.852 8  83015390.04146  20273165.188                    20273172.992
 119699284.058 7  93272328.72044  22778043.023                    22778051.586
 11  7 27  1  3  0.0000000  0  9G12G28G10G09G17G02G05G04G27
 120755115.390 7  94094982.85145  22978943.141                    22978950.641
 122978433.955 6  95827422.34643  23402011.539                    23402020.535
 113980084.578 7  88815758.36545  21689687.688                    21689696.203
 117557810.353 7  91603582.75244  22370518.188                    22370526.598
 116584197.788 7  90844938.41945  22185211.422                    22185219.137
 110287289.144 8  85938245.02546  20986955.336                    20986961.406
 127430021.874 6  99296172.07043  24249127.961                    24249139.008
 106580702.692 8  83050005.23746  20281618.352                    20281626.270
 119740293.014 7  93304283.70444  22785847.281                    22785855.543
 11  7 27  1  3 30.0000000  0  9G12G28G10G09G17G02G05G04G27
 120664318.060 7  94024231.72945  22961664.727                    22961672.555
 123068953.786 6  95897957.25143  23419238.086                    23419245.891
 113913427.862 7  88763818.11345  21677003.148                    21677011.453
 117600857.287 7  91637125.76745  22378709.797                    22378718.176
 116625880.373 7  90877418.34745  22193143.078                    22193150.875
 110247670.859 8  85907373.65746  20979416.516                    20979421.875
 127323915.465 6  99213492.01643  24228935.125                    24228947.656
 106625533.823 8  83084938.58546  20290149.367                    20290156.965
 119781655.639 7  93336514.27744  22793718.070                    22793726.664
 11  7 27  1  4  0.0000000  0  9G12G28G10G09G17G02G05G04G27
 120573688.825 7  93953611.56345  22944418.844                    22944425.820
 123159751.494 6  95968708.67343  23436516.086                    23436524.012
 113847193.959 8  88712207.31945  21664399.625                    21664407.133
 117644414.716 7  91671066.57144  22386998.375                    22387006.844
 116667664.475 8  90909977.37545  22201094.766                    22201102.070
 110208422.394 8  85876790.46646  20971947.578                    20971953.238
 127217779.381 6  99130788.81443  24208739.039                    24208750.109
 106670771.073 8  83120188.39346  20298757.750                    20298765.551
 119823369.865 6  93369018.82245  22801656.102                    22801664.977
 11  7 27  1  4 30.0000000  0  9G12G28G10G09G17G02G05G04G27
 120483230.075 7  93883124.26345  22927204.523                    22927211.996
 123250825.682 6  96039675.53043  23453846.281                    23453855.289
 113781386.195 7  88660928.59445  21651876.438                    21651884.625
 117688480.157 7  91705403.23244  22395383.633                    22395392.078
 116709551.203 7  90942616.38945  22209065.352                    22209073.008
 110169543.994 8  85846495.63246  20964549.094                    20964555.008
 127111616.218 6  99048064.43443  24188538.828                    24188547.285
 106716412.598 8  83155753.22046  20307443.422                    20307450.766
 119865433.630 7  93401795.73744  22809660.406                    22809669.504
 11  7 27  1  5  0.0000000  0  9G12G28G10G09G17G02G05G04G27
 120392943.852 7  93812771.40045  22910024.125                    22910031.047
 123342174.282 6  96110856.21743  23471229.352                    23471237.383
 113716006.643 8  88609983.53945  21639435.141                    21639443.301
 117733050.426 7  91740133.25944  22403865.438                    22403873.680
 116751540.178 8  90975335.06745  22217055.953                    22217063.703
 110131034.633 8  85816488.36146  20957220.914                    20957226.508
 127005428.038 6  98965320.60843  24168330.469                    24168340.988
 106762455.334 8  83191630.68246  20316204.695                    20316212.477
 119907844.199 7  93434842.88345  22817731.297                    22817739.926
 11  7 27  1  5 30.0000000  0  9G12G28G10G09G17G02G05G04G27
 120302832.639 7  93742554.90745  22892875.922                    22892883.715
 123433796.012 6  96182249.73143  23488664.883                    23488673.297
 113651058.555 7  88559374.68345  21627076.086                    21627084.137
 117778123.273 7  91775254.91244  22412441.961                    22412450.465
 116793632.402 7  91008134.21045  22225065.883                    22225073.570
 110092894.638 8  85786768.90846  20949963.180                    20949968.902
 126899218.039 6  98882559.81843  24148118.375                    24148129.512
 106808897.632 8  83227819.48346  20325042.461                    20325050.273
 119950599.715 7  93468158.82744  22825866.852                    22825876.051
 11  7 27  1  6  0.0000000  0  9G12G28G10G09G17G02G05G04G27
 120212899.251 7  93672476.98645  22875762.516                    22875770.086
 123525689.488 6  96253854.98743  23506151.977                    23506160.441
 113586545.153 7  88509104.54045  21614799.688                    21614807.785
 117823696.288 7  91810766.29745  22421114.477                    22421123.148
 116835827.950 8  91041013.86245  22233095.125                    22233103.199
 110055124.238 8  85757337.45146  20942775.859                    20942781.570
 126792989.079 6  98799784.25143  24127902.938                    24127914.336
 106855737.300 8  83264317.93746  20333955.898                    20333963.996
 119993698.118 7  93501741.94944  22834068.570                    22834077.488
 11  7 27  1  6 30.0000000  0  9G12G28G10G09G17G02G05G04G27
 120123146.032 7  93602539.46545  22858682.875                    22858690.363
 123617852.819 6  96325670.54244  23523689.586                    23523698.199
 113522468.993 8  88459175.11245  21602606.000                    21602613.914
 117869766.623 7  91846665.21845  22429882.086                    22429889.977
 116878127.216 8  91073974.34845  22241144.500                    22241152.406
 110017723.013 8  85728193.65446  20935658.547                    20935664.273
 126686743.761 6  98716995.88143  24107686.359                    24107695.801
 106902971.952 8  83301124.15346  20342944.164                    20342952.051
 120037137.178 7  93535590.51844  22842334.688                    22842343.367
 11  7 27  1  7  0.0000000  0  9G12G28G10G09G17G02G05G04G27
 120033575.123 7  93532743.98645  22841637.766                    22841645.332
 123710284.193 6  96397694.94643  23541278.594                    23541287.254
 113458832.907 7  88409588.60645  21590496.617                    21590504.875
 117916331.328 7  91882949.35845  22438742.500                    22438750.930
 116920530.647 7  91107015.99945  22249213.578                    22249221.539
 109980690.634 8  85699337.28046  20928611.172                    20928617.531
 126580484.524 6  98634196.65543  24087466.109                    24087475.215
 106950599.126 8  83338236.24546  20352007.352                    20352015.152
 120080914.134 6  93569702.35945  22850665.813                    22850674.418
 11  7 27  1  7 30.0000000  0  9G12G28G10G09G17G02G05G04G27
 119944189.418 7  93463092.85645  22824628.742                    22824635.809
 123802982.132 6  96469927.10743  23558918.641                    23558927.691
 113395640.239 7  88360347.61445  21578471.563                    21578479.711
 117963388.219 7  91919617.02344  22447697.438                    22447705.242
 116963039.084 7  91140139.47145  22257302.945                    22257310.359
 109944027.712 8  85670768.79646  20921634.906                    20921640.500
 126474214.562 7  98551389.08443  24067242.914                    24067252.336
 106998616.730 8  83375652.56846  20361144.555                    20361152.520
 120125027.162 6  93604076.09645  22859059.820                    22859068.863
 11  7 27  1  8  0.0000000  0  9G12G28G10G09G17G02G05G04G27
 119854991.127 7  93393587.74245  22807654.734                    22807661.926
 123895944.811 6  96542365.52543  23576609.102                    23576617.172
 113332893.566 8  88311454.14545  21566531.078                    21566538.668
 118010934.035 7  91956665.66844  22456744.625                    22456753.395
 117005652.571 8  91173344.79445  22265411.875                    22265419.590
 109907733.438 8  85642487.56746  20914728.133                    20914734.180
 126367936.538 7  98468575.26843  24047018.102                    24047028.297
 107047022.502 8  83413371.35146  20370355.859                    20370363.828
 120169473.645 7  93638709.67144  22867517.680                    22867526.508
 11  7 27  1  8 30.0000000  0  9G12G28G10G09G17G02G05G04G27
 119765982.887 7  93324230.71745  22790716.938                    22790724.160
 123989171.153 6  96615009.40543  23594349.602                    23594357.590
 113270595.918 7  88262910.56345  21554676.039                    21554684.586
 118058966.413 7  91994093.44844  22465885.094                    22465893.609
 117048371.585 8  91206632.34645  22273541.258                    22273548.902
 109871808.010 8  85614493.74546  20907891.766                    20907897.387
 126261653.322 6  98385757.33843  24026793.539                    24026803.582
 107095814.396 8  83451391.01046  20379640.594                    20379648.430
 120214251.706 7  93673601.61344  22876038.672                    22876047.844
 11  7 27  1  9  0.0000000  0  9G12G28G10G09G17G02G05G04G27
 119677166.893 7  93255023.48745  22773815.922                    22773822.672
 124082658.733 6  96687856.86243  23612139.516                    23612147.668
 113208749.423 7  88214718.52745  21542907.109                    21542915.586
 118107482.282 7  92031897.95344  22475117.547                    22475125.957
 117091196.355 8  91240002.31245  22281690.266                    22281697.551
 109836250.808 8  85586786.84446  20901125.406                    20901130.887
 126155367.225 6  98302937.12543  24006568.297                    24006577.277
 107144989.387 8  83489709.17646  20388998.453                    20389006.113
 120259358.636 7  93708749.83544  22884622.336                    22884631.039
 11  7 27  1  9 30.0000000  0  9G12G28G10G09G17G02G05G04G27
 119588545.807 7  93185968.14945  22756951.852                    22756959.555
 124176406.177 6  96760906.81543  23629978.844                    23629987.273
 113147357.619 7  88166880.80345  21531224.695                    21531233.070
 118156479.168 7  92070077.31044  22484441.297                    22484450.301
 117134127.537 8  91273455.18745  22289859.695                    22289867.496
 109801061.936 8  85559366.96046  20894429.555                    20894434.922
 126049081.315 7  98220117.12844  23986342.250                    23986351.910
 107194545.881 8  83528324.61846  20398428.953                    20398437.035
 120304792.121 7  93744152.48844  22893267.828                    22893277.484
 11  7 27  1 10  0.0000000  0  9G12G28G10G09G17G02G05G04G27
 119500122.108 7  93117066.62545  22740125.023                    22740132.527
 124270412.043 6  96834158.13243  23647866.797                    23647876.059
 113086423.499 7  88119399.71845  21519628.680                    21519637.332
 118205954.630 7  92108629.56945  22493855.859                    22493865.324
 117177165.905 8  91306991.58945  22298049.469                    22298057.676
 109766241.710 8  85532234.33646  20887803.242                    20887808.988
 125942798.710 7  98137299.69144  23966116.414                    23966126.691
 107244481.599 8  83567235.56746  20407931.258                    20407939.020
 120350550.365 7  93779808.19744  22901975.250                    22901984.695
 11  7 27  1 10 30.0000000  0  9G12G28G10G09G17G02G05G04G27
 119411898.378 7  93048320.91345  22723336.750                    22723344.113
 124364674.135 6  96907609.05243  23665804.813                    23665813.871
 113025949.535 8  88072277.20245  21508121.148                    21508129.613
 118255905.374 7  92147552.19344  22503361.672                    22503370.266
 117220311.844 8  91340611.80045  22306260.469                    22306267.445
 109731789.168 8  85505388.21946  20881247.234                    20881252.785
 125836521.583 7  98054486.53143  23945892.180                    23945902.430
 107294794.120 8  83606440.13046  20417505.352                    20417513.277
 120396630.536 7  93815714.75244  22910744.523                    22910754.223
 11  7 27  1 11  0.0000000  0  9G12G28G10G09G17G02G05G04G27
 119323877.217 7  92979733.04045  22706586.867                    22706594.039
 124459191.073 6  96981258.54843  23683790.719                    23683799.828
 112965938.906 7  88025515.71945  21496701.406                    21496710.023
 118306328.789 7  92186843.12545  22512957.164                    22512965.711
 117263565.375 8  91374315.84445  22314490.672                    22314497.953
 109697704.503 8  85478828.76246  20874761.180                    20874766.602
 125730253.308 6  97971680.19343  23925670.734                    23925680.734
 107345481.350 8  83645936.67346  20427150.875                    20427158.320
 120443030.511 7  93851870.50344  22919574.281                    22919583.422
 11  7 27  1 11 30.0000000  0  9G12G28G10G09G17G02G05G04G27
 119236060.913 7  92911304.80045  22689875.711                    22689883.125
 124553961.067 6  97055105.27743  23701825.320                    23701833.699
 112906393.774 7  87979116.98145  21485370.023                    21485378.586
 118357221.981 7  92226500.11545  22522641.414                    22522650.664
 117306927.104 7  91408104.19745  22322742.414                    22322749.488
 109663987.385 8  85452555.70646  20868344.922                    20868350.680
 125623996.199 7  97888882.59343  23905450.875                    23905460.523
 107396540.603 8  83685723.10146  20436867.195                    20436875.055
 120489747.713 7  93888273.45944  22928464.156                    22928472.750
 11  7 27  1 12  0.0000000  0  9G12G28G10G09G17G02G05G04G27
 119148451.782 7  92843038.00045  22673204.219                    22673212.023
 124648982.284 6  97129147.73343  23719907.484                    23719915.238
 112847317.064 7  87933083.22845  21474128.156                    21474136.422
 118408581.970 7  92266520.85545  22532415.086                    22532423.922
 117350397.569 7  91441977.27945  22331014.602                    22331021.945
 109630637.271 8  85426568.62746  20861998.289                    20862004.180
 125517753.125 6  97806095.93643  23885232.594                    23885242.477
 107447969.528 8  83725797.58746  20446654.070                    20446661.648
 120536779.559 7  93924921.58144  22937414.039                    22937423.621
 11  7 27  1 12 30.0000000  0  9G12G28G10G09G17G02G05G04G27
 119061052.722 7  92774934.87845  22656572.570                    22656580.180
 124744253.212 6  97203384.79343  23738036.945                    23738045.270
 112788711.971 7  87887416.96945  21462976.398                    21462984.391
 118460406.402 7  92306903.49145  22542277.516                    22542286.043
 117393977.272 7  91475935.46945  22339307.297                    22339314.980
 109597654.495 8  85400867.78146  20855722.281                    20855728.121
 125411527.120 6  97723322.56343  23865017.930                    23865028.484
 107499766.252 8  83766158.67046  20456510.820                    20456517.977
 120584124.176 7  93961813.40244  22946422.898                    22946432.547
 11  7 27  1 13  0.0000000  0  9G12G28G10G09G17G02G05G04G27
 118973866.270 7  92706997.42145  22639981.531                    22639989.039
 124839771.969 6  97277814.96343  23756213.125                    23756222.188
 112730581.135 7  87842120.26545  21451914.711                    21451922.777
 118512692.270 7  92347645.68845  22552226.703                    22552235.625
 117437666.665 7  91509979.13745  22347621.313                    22347629.012
 109565038.773 8  85375452.95546  20849515.578                    20849521.445
 125305321.003 6  97640564.71643  23844808.016                    23844817.656
 107551928.410 8  83806804.51946  20466436.688                    20466444.324
 120631779.276 7  93998947.19544  22955492.547                    22955500.957
 11  7 27  1 13 30.0000000  0  9G12G28G10G09G17G02G05G04G27
 118886894.557 7  92639227.29745  22623431.555                    22623438.703
 124935536.422 6  97352436.55743  23774436.359                    23774445.449
 112672926.628 7  87797194.72145  21440942.945                    21440951.141
 118565436.011 7  92388744.67345  22562263.609                    22562272.719
 117481466.049 7  91544108.50945  22355955.891                    22355963.566
 109532788.997 8  85350323.28446  20843378.664                    20843384.125
 125199137.299 6  97557824.27043  23824602.273                    23824611.684
 107604453.216 8  83847732.94646  20476431.445                    20476439.137
 120679741.766 7  94036320.48544  22964619.125                    22964627.828
 11  7 27  1 14  0.0000000  0  9G12G28G10G09G17G02G05G04G27
 118800139.970 7  92571626.34845  22606922.383                    22606930.422
 125031544.856 6  97427248.26943  23792706.164                    23792716.125
 112615751.433 7  87752642.67545  21430062.688                    21430071.172
 118618634.969 7  92430198.37545  22572386.313                    22572396.145
 117525375.826 7  91578323.90845  22364312.016                    22364319.277
 109500905.120 8  85325478.72746  20837311.281                    20837316.887
 125092979.286 7  97475103.88144  23804401.063                    23804410.641
 107657338.360 8  83888942.14946  20486495.320                    20486502.941
 120728009.437 7  94073931.61344  22973803.789                    22973812.953
 11  7 27  1 14 30.0000000  0  9G12G28G10G09G17G02G05G04G27
 118713605.456 7  92504196.89345  22590455.914                    22590463.324
 125127796.070 6  97502249.20043  23811023.078                    23811031.738
 112559058.687 8  87708466.55846  21419274.672                    21419283.223
 118672286.698 7  92472004.86245  22582596.680                    22582605.465
 117569396.818 7  91612625.95945  22372688.766                    22372696.539
 109469387.366 8  85300919.46146  20831313.570                    20831319.313
 124986849.315 6  97392405.38243  23784204.148                    23784214.504
 107710582.095 8  83930430.77346  20496627.477                    20496634.945
 120776580.152 7  94111778.85444  22983046.445                    22983056.691
 11  7 27  1 15  0.0000000  0  9G12G28G10G09G17G02G05G04G27
 118627293.312 7  92436940.70945  22574031.109                    22574038.926
 125224288.112 6  97577437.79943  23829384.914                    23829393.273
 112502850.567 7  87664668.08445  21408578.609                    21408586.695
 118726387.665 7  92514161.41445  22592891.406                    22592900.773
 117613529.415 7  91647014.98045  22381086.984                    22381094.855
 109438235.120 8  85276645.00346  20825385.297                    20825391.246
 124880750.313 6  97309730.97443  23764014.016                    23764024.441
 107764181.688 8  83972196.69446  20506827.078                    20506834.508
 120825450.971 7  94149859.95244  22992346.438                    22992355.969
 11  7 27  1 15 30.0000000  0  9G12G28G10G09G17G02G05G04G27
 118541206.138 7  92369859.81045  22557649.195                    22557656.613
 125321018.962 6  97652812.48943  23847791.625                    23847800.379
 112447130.125 8  87621249.60745  21397975.219                    21397983.289
 118780935.595 7  92556666.24644  22603271.523                    22603280.805
 117657774.224 7  91681491.44245  22389506.195                    22389514.059
 109407448.333 8  85252655.32546  20819526.898                    20819532.875
 124774685.504 6  97227083.20144  23743830.781                    23743840.758
 107818135.168 8  84014238.36346  20517094.070                    20517101.758
 120874620.080 7  94188173.47744  23001703.148                    23001712.762
 11  7 27  1 16  0.0000000  0  9G12G28G10G09G17G02G05G04G27
 118455346.663 7  92302956.35645  22541310.414                    22541318.305
 125417986.641 6  97728371.72542  23866243.570                    23866251.727
 112391899.733 8  87578212.98345  21387465.188                    21387473.195
 118835927.031 7  92599516.66945  22613736.047                    22613745.477
 117702131.381 7  91716055.43145  22397947.484                    22397955.148
 109377026.247 8  85228949.83346  20813737.828                    20813743.535
 124668657.352 6  97144463.95443  23723654.711                    23723664.219
 107872439.991 8  84056553.80946  20527427.813                    20527435.426
 120924084.849 7  94226717.40944  23011115.836                    23011125.387
 11  7 27  1 16 30.0000000  0  9G12G28G10G09G17G02G05G04G27
 118369717.423 7  92236232.29845  22525015.750                    22525023.742
 125515189.524 6  97804114.18443  23884740.695                    23884749.582
 112337162.276 8  87535560.46445  21377049.086                    21377057.004
 118891359.273 7  92642710.56044  22624284.836                    22624293.699
 117746601.666 7  91750707.57345  22406410.008                    22406417.602
 109346968.987 8  85205528.61946  20808018.070                    20808023.730
 124562668.685 6  97061875.54843  23703485.531                    23703495.156
 107927093.881 8  84099141.26346  20537827.930                    20537835.863
 120973842.913 7  94265489.89144  23020584.469                    23020594.223
 11  7 27  1 17  0.0000000  0  9G12G28G10G09G17G02G05G04G27
 118284320.647 7  92169689.38945  22508765.344                    22508773.426
 125612625.519 6  97880038.31243  23903282.164                    23903291.742
 112282919.437 8  87493293.35546  21366726.852                    21366735.059
 118947228.502 7  92686244.96144  22634916.250                    22634925.586
 117791184.969 7  91785447.79145  22414893.883                    22414901.723
 109317275.240 8  85182390.65346  20802367.703                    20802372.840
 124456722.126 6  96979319.95043  23683324.141                    23683334.117
 107982093.908 8  84141998.42646  20548294.344                    20548302.039
 121023891.091 7  94304488.40944  23030108.477                    23030117.434
 11  7 27  1 17 30.0000000  0  9G12G28G10G09G17G02G05G04G27
 118199159.256 7  92103329.89045  22492559.969                    22492567.852
 125710292.767 6  97956142.64843  23921868.047                    23921876.469
 112229174.384 8  87451414.13946  21356499.742                    21356507.730
 119003532.428 7  92730118.08944  22645630.531                    22645639.590
 117835881.982 7  91820276.61945  22423399.125                    22423407.129
 109287945.282 8  85159536.17046  20796786.203                    20796791.473
 124350821.057 6  96896799.79143  23663171.625                    23663181.602
 108037438.151 8  84185123.80646  20558826.102                    20558833.852
 121074227.177 7  94343711.31644  23039687.680                    23039696.063
 11  7 27  1 18  0.0000000  0  9G12G28G10G09G17G02G05G04G27
 118114235.194 7  92037155.31545  22476399.047                    22476406.563
 125808190.023 6  98032426.20043  23940497.602                    23940507.109
 112175930.092 8  87409925.12346  21346367.508                    21346375.430
 119060268.329 7  92774327.83944  22656427.445                    22656436.223
 117880694.056 7  91855195.09445  22431926.797                    22431934.676
 109258979.052 8  85136965.10546  20791273.977                    20791279.352
 124244968.419 6  96814317.34743  23643028.695                    23643038.547
 108093124.701 8  84228515.92846  20569422.828                    20569430.508
 121124849.239 7  94383157.03944  23049320.156                    23049329.813
 11  7 27  1 18 30.0000000  0  9G12G28G10G09G17G02G05G04G27
 118029551.205 7  91971167.82745  22460284.594                    22460292.113
 125906314.990 6  98108887.18743  23959170.461                    23959179.000
 112123188.626 8  87368827.92146  21336330.977                    21336338.867
 119117432.729 7  92818871.45744  22667305.984                    22667314.070
 117925620.956 7  91890203.04545  22440476.156                    22440484.117
 109230375.600 8  85114676.72446  20785831.094                    20785836.566
 124139167.061 6  96731874.83843  23622895.039                    23622904.582
 108149150.864 8  84272172.67346  20580084.195                    20580091.863
 121175754.294 7  94422823.30644  23059007.375                    23059016.633
 11  7 27  1 19  0.0000000  0  9G12G28G10G09G17G02G05G04G27
 117945110.129 7  91905369.61145  22444216.102                    22444223.098
 126004665.753 6  98185524.12643  23977885.281                    23977894.543
 112070952.563 8  87328124.53646  21326390.695                    21326398.684
 119175022.691 7  92863746.69844  22678264.602                    22678272.797
 117970663.012 7  91925300.72645  22449047.391                    22449055.070
 109202134.574 8  85092670.76046  20780456.844                    20780462.289
 124033419.252 7  96649474.07643  23602771.742                    23602781.602
 108205514.099 8  84316092.07746  20590809.664                    20590817.457
 121226939.928 7  94462708.18744  23068747.953                    23068756.961
 11  7 27  1 19 30.0000000  0  9G12G28G10G09G17G02G05G04G27
 117860914.529 7  91839762.68245  22428193.953                    22428201.098
 126103240.710 7  98262335.77743  23996644.094                    23996652.480
 112019224.550 8  87287817.03946  21316547.000                    21316555.273
 119233035.229 7  92908951.20344  22689303.695                    22689312.629
 118015821.083 7  91960488.81145  22457640.891                    22457648.781
 109174255.999 8  85070947.21246  20775151.633                    20775157.164
 123927728.145 7  96567117.52143  23582659.625                    23582668.973
 108262212.470 8  84360272.62446  20601599.016                    20601607.117
 121278403.916 7  94502809.95544  23078540.961                    23078550.598
 11  7 27  1 20  0.0000000  0  9G12G28G10G09G17G02G05G04G27
 117776967.082 7  91774349.11945  22412219.047                    22412226.398
 126202037.878 6  98339320.54843  24015444.992                    24015452.852
 111968006.980 8  87247907.28145  21306800.969                    21306808.652
 119291467.119 7  92954482.47544  22700423.047                    22700431.613
 118061095.491 7  91995767.55945  22466256.070                    22466263.828
 109146739.392 8  85049505.73046  20769915.727                    20769920.984
 123822096.825 7  96484807.52143  23562557.844                    23562568.121
 108319243.588 8  84404712.45446  20612451.734                    20612459.590
 121330143.531 7  94543126.50344  23088386.633                    23088395.953
 11  7 27  1 20 30.0000000  0  9G12G28G10G09G17G02G05G04G27
 117693269.860 7  91709130.52245  22396291.836                    22396299.402
 126301055.408 6  98416477.09743  24034286.430                    24034294.926
 111917302.433 8  87208397.28146  21297152.125                    21297160.238
 119350315.573 6  93000338.33844  22711622.133                    22711630.867
 118106486.870 7  92031137.45845  22474893.680                    22474901.117
 109119584.107 8  85028345.79746  20764748.180                    20764753.355
 123716528.226 6  96402546.40343  23542469.602                    23542478.855
 108376604.912 8  84449409.58046  20623367.133                    20623374.684
 121382156.311 7  94583655.90144  23098284.313                    23098294.012
 11  7 27  1 21  0.0000000  0  9G12G28G10G09G17G02G05G04G27
 117609825.660 7  91644109.10945  22380413.023                    22380420.336
 126400291.488 6  98493803.86243  24053170.930                    24053178.867
 111867113.310 8  87169288.91946  21287601.172                    21287609.102
 119409577.319 7  93046516.24244  22722899.336                    22722908.074
 118151995.796 7  92066598.92345  22483553.773                    22483561.629
 109092789.856 8  85007467.18546  20759649.313                    20759654.629
 123611025.273 7  96320336.43744  23522392.867                    23522402.211
 108434294.376 8  84494362.40346  20634345.188                    20634352.766
 121434439.714 7  94624396.19944  23108233.805                    23108242.645
 11  7 27  1 21 30.0000000  0  9G12G28G10G09G17G02G05G04G27
 117526636.982 7  91579286.78145  22364582.695                    22364590.152
 126499743.758 6  98571299.16343  24072095.859                    24072104.004
 111817441.604 8  87130583.73846  21278149.070                    21278157.461
 119469248.858 7  93093013.47644  22734254.219                    22734262.805
 118197622.450 7  92102152.14245  22492236.469                    22492244.262
 109066355.634 8  84986869.12246  20754619.031                    20754624.355
 123505590.216 7  96238179.37344  23502329.078                    23502337.625
 108492308.903 8  84539568.52946  20645385.102                    20645392.527
 121486990.759 7  94665345.03844  23118233.172                    23118243.414
 11  7 27  1 22  0.0000000  0  9G12G28G10G09G17G02G05G04G27
 117443706.428 7  91514665.60845  22348801.406                    22348808.762
 126599410.321 6  98648961.43743  24091061.367                    24091070.680
 111768290.001 8  87092283.82046  21268795.633                    21268803.777
 119529327.483 7  93139827.90844  22745686.688                    22745695.988
 118243367.294 7  92137797.45045  22500941.281                    22500948.934
 109040281.068 8  84966551.30146  20749656.984                    20749662.438
 123400226.306 7  96156077.74244  23482279.055                    23482288.277
 108550646.541 8  84585026.42846  20656486.000                    20656493.934
 121539807.068 7  94706500.57344  23128284.039                    23128293.895
 11  7 27  1 22 30.0000000  0  9G12G28G10G09G17G02G05G04G27
 117361036.430 7  91450247.45645  22333070.508                    22333077.441
 126699289.519 6  98726789.41743  24110067.250                    24110077.332
 111719661.061 8  87054391.18046  21259541.922                    21259549.766
 119589810.125 7  93186957.20344  22757195.891                    22757204.965
 118289231.355 8  92173535.66845  22509669.367                    22509676.410
 109014566.018 8  84946513.62346  20744763.703                    20744769.094
 123294936.586 7  96074033.89544  23462243.578                    23462251.855
 108609305.174 8  84630734.45846  20667648.813                    20667656.156
 121592886.316 7  94747860.99644  23138385.336                    23138394.383
 11  7 27  1 23  0.0000000  0  9G12G28G10G09G17G02G05G04G27
 117278629.931 7  91386034.63445  22317388.797                    22317395.973
 126799379.633 6  98804781.70743  24129114.273                    24129123.250
 111671557.289 8  87016907.76046  21250388.109                    21250395.781
 119650693.748 7  93234398.90744  22768782.336                    22768790.938
 118335214.947 7  92209367.02445  22518419.664                    22518426.172
 108989210.393 8  84926756.00146  20739938.906                    20739944.551
 123189724.263 7  95992050.40644  23442221.383                    23442231.113
 108668282.634 8  84676690.91746  20678871.789                    20678879.492
 121646226.135 7  94789424.45444  23148535.109                    23148545.059
 11  7 27  1 23 30.0000000  0  9G12G28G10G09G17G02G05G04G27
 117196489.167 7  91322028.87845  22301757.414                    22301764.992
 126899678.468 6  98882936.59143  24148200.594                    24148209.684
 111623980.905 8  86979835.29845  21241334.766                    21241342.563
 119711974.927 7  93282150.42644  22780443.195                    22780452.414
 118381318.467 7  92245291.84045  22527192.922                    22527200.449
 108964213.012 8  84907277.54446  20735182.133                    20735187.551
 123084591.899 7  95910129.21744  23422215.273                    23422224.586
 108727576.248 8  84722893.72746  20690155.063                    20690162.410
 121699823.594 7  94831188.64744  23158734.984                    23158743.914
 11  7 27  1 24  0.0000000  0  9G12G28G10G09G17G02G05G04G27
 117114616.918 7  91258232.34845  22286177.742                    22286185.375
 127000184.261 6  98961252.77742  24167326.633                    24167335.023
 111576934.434 8  86943175.75546  21232382.055                    21232389.605
 119773650.679 7  93330209.42644  22792179.453                    22792188.805
 118427542.591 7  92281310.61945  22535988.758                    22535996.398
 108939573.712 8  84888078.09746  20730493.086                    20730498.492
 122979542.582 7  95828272.72644  23402225.766                    23402234.355
 108787183.740 8  84769341.11846  20701497.930                    20701505.285
 121753676.207 7  94873151.68044  23168982.586                    23168992.480
 11  7 27  1 24 30.0000000  0  9G12G28G10G09G17G02G05G04G27
 117033015.458 7  91194646.83845  22270649.523                    22270656.695
 127100894.941 6  99039728.66142  24186491.102                    24186499.648
 111530419.830 8  86906930.63945  21223530.492                    21223537.871
 119835717.685 7  93378573.28844  22803991.164                    22803999.594
 118473887.881 7  92317423.81545  22544808.102                    22544815.379
 108915291.859 8  84869157.18546  20725872.133                    20725877.742
 122874579.273 7  95746483.23044  23382251.227                    23382260.430
 108847102.760 8  84816031.25846  20712900.273                    20712907.664
 121807781.341 7  94915311.50344  23179278.695                    23179287.844
 11  7 27  1 25  0.0000000  0  9G12G28G10G09G17G02G05G04G27
 116951687.509 7  91131274.42045  22255173.414                    22255180.387
 127201808.167 6  99118362.35643  24205693.727                    24205702.754
 111484438.722 8  86871101.25645  21214780.570                    21214788.020
 119898172.563 7  93427239.40044  22815875.695                    22815884.629
 118520354.311 7  92353631.40345  22553650.234                    22553657.777
 108891366.478 8  84850514.04446  20721319.398                    20721324.898
 122769704.263 7  95664762.58844  23362294.242                    23362302.863
 108907330.536 8  84862961.98346  20724361.141                    20724369.480
 121862135.954 7  94957665.70144  23189621.320                    23189631.434
 11  7 27  1 25 30.0000000  0  9G12G28G10G09G17G02G05G04G27
 116870635.699 7  91068117.19945  22239749.922                    22239757.301
 127302922.100 6  99197152.44543  24224935.609                    24224944.719
 111438994.294 8  86835690.04645  21206133.094                    21206140.762
 119961012.509 7  93476205.55144  22827833.758                    22827842.492
 118566942.895 7  92389934.17845  22562515.867                    22562523.430
 108867797.412 8  84832148.55046  20716834.273                    20716840.000
 122664920.990 7  95583113.40344  23342354.547                    23342362.875
 108967865.216 8  84910131.86546  20735880.141                    20735888.395
 121916738.099 7  95000212.77444  23200012.359                    23200022.426
 11  7 27  1 26  0.0000000  0  9G12G28G10G09G17G02G05G04G27
 116789862.557 7  91005177.10745  22224379.281                    22224386.246
 127404235.516 6  99276097.94243  24244214.609                    24244223.695
 111394089.013 7  86800698.96245  21197587.359                    21197595.363
 120024234.094 7  93525469.13044  22839864.742                    22839873.418
 118613654.316 7  92426332.66345  22571404.531                    22571412.672
 108844584.300 8  84814060.42346  20712417.148                    20712422.496
 122560232.328 7  95501537.94044  23322433.008                    23322441.406
 109028704.537 8  84957539.11946  20747457.578                    20747465.086
 121971584.968 7  95042950.54844  23210449.438                    23210459.602
 11  7 27  1 26 30.0000000  0  9G12G28G10G09G17G02G05G04G27
 116709370.639 7  90942456.16845  22209061.711                    22209069.195
 127505745.789 6  99355196.85643  24263532.102                    24263540.660
 111349724.362 8  86766129.14346  21189144.992                    21189153.047
 120087834.017 6  93575027.48244  22851967.336                    22851975.961
 118660488.881 7  92462827.11245  22580316.906                    22580324.883
 108821726.506 8  84796249.17646  20708067.445                    20708073.281
 122455641.087 7  95420038.42144  23302529.703                    23302538.340
 109089845.763 8  85005181.63446  20759092.430                    20759100.117
 122026673.915 7  95085876.96544  23220932.984                    23220941.836
 11  7 27  1 27  0.0000000  0  9G12G28G10G09G17G02G05G04G27
 116629162.751 7  90879956.53645  22193799.164                    22193806.227
 127607450.857 6  99434447.53143  24282885.484                    24282894.285
 111305902.858 8  86731982.56646  21180806.148                    21180814.172
 120151809.543 7  93624878.52744  22864141.047                    22864150.477
 118707446.942 7  92499417.79645  22589253.094                    22589260.801
 108799223.538 8  84778714.40246  20703785.180                    20703790.945
 122351150.538 7  95338617.33144  23282645.227                    23282654.008
 109151287.119 8  85053058.01146  20770784.336                    20770791.820
 122082002.508 7  95128990.09344  23231461.336                    23231471.066
 11  7 27  1 27 30.0000000  0  9G12G28G10G09G17G02G05G04G27
 116549241.274 7  90817680.07645  22178590.234                    22178598.094
 127709349.293 6  99513848.95243  24302275.148                    24302284.926
 111262626.404 8  86698260.69045  21172570.758                    21172578.348
 120216157.055 7  93675019.42644  22876386.898                    22876395.391
 118754529.151 7  92536105.22345  22598212.180                    22598220.234
 108777074.885 8  84761455.72746  20699570.391                    20699575.965
 122246763.399 7  95257276.80444  23262781.430                    23262789.770
 109213025.830 8  85101166.08846  20782532.859                    20782540.484
 122137567.888 7  95172287.74144  23242034.867                    23242044.539
 11  7 27  1 28  0.0000000  0  9G12G28G10G09G17G02G05G04G27
 116469608.780 7  90755628.81945  22163436.734                    22163444.434
 127811438.375 6  99593398.86943  24321703.570                    24321712.305
 111219897.386 7  86664965.40045  21164439.633                    21164447.461
 120280873.255 7  93725447.60044  22888701.305                    22888710.363
 118801735.843 7  92572889.63745  22607195.109                    22607203.285
 108755279.201 8  84744472.09346  20695422.844                    20695428.305
 122142482.458 7  95176019.05544  23242937.359                    23242946.090
 109275059.336 8  85149503.87146  20794337.477                    20794345.145
 122193367.377 7  95215767.80944  23252653.516                    23252662.996
 11  7 27  1 28 30.0000000  0  8G12G10G09G17G02G05G04G27
 116390268.792 7  90693805.47145  22148338.914                    22148346.234
 111177719.381 8  86632099.46846  21156413.484                    21156421.695
 120345956.168 7  93776161.54144  22901086.453                    22901094.996
 118849068.886 7  92609772.50645  22616202.336                    22616210.473
 108733837.551 8  84727764.32646  20691342.625                    20691348.160
 122038311.996 7  95094847.41444  23223113.523                    23223122.781
 109337386.824 8  85198070.72346  20806197.844                    20806205.570
 122249399.571 7  95259429.21844  23263315.820                    23263325.664
 11  7 27  1 29  0.0000000  0  8G12G10G09G17G02G05G04G27
 116311223.076 7  90632211.42345  22133297.148                    22133304.102
 111136093.141 7  86599663.48846  21148492.453                    21148500.570
 120411401.424 7  93827157.82444  22913539.641                    22913549.102
 118896527.472 7  92646753.19945  22625233.781                    22625241.254
 108712748.045 8  84711330.95246  20687329.570                    20687335.039
 121934253.930 7  95013763.33044  23203312.539                    23203321.371
 109400004.852 8  85246863.98546  20818113.711                    20818121.363
 122305660.499 7  95303268.83244  23274022.688                    23274032.016
 11  7 27  1 29 30.0000000  0  8G12G10G09G17G02G05G04G27
 116232473.889 7  90570848.45645  22118311.734                    22118318.652
 111095020.632 8  86567658.97446  21140676.219                    21140683.695
 120477205.886 7  93878433.98644  22926062.578                    22926071.645
 118944112.475 7  92683832.39345  22634289.336                    22634296.941
 108692010.372 8  84695171.74846  20683383.063                    20683388.563
 121830310.851 7  94932768.86544  23183532.703                    23183541.594
 109462910.914 8  85295881.68546  20830084.352                    20830092.348
 122362147.562 7  95347284.65944  23284771.383                    23284780.711
 11  7 27  1 30  0.0000000  0  8G12G10G09G17G02G05G04G27
 116154024.008 7  90509718.69745  22103383.023                    22103390.023
 111054503.888 8  86536087.52346  21132966.406                    21132973.879
 120543366.046 6  93929987.33444  22938652.445                    22938661.047
 118991824.278 7  92721010.40145  22643368.383                    22643376.000
 108671623.864 8  84679286.17346  20679503.703                    20679509.172
 121726485.997 7  94851866.51144  23163775.125                    23163784.391
 109526102.965 8  85345122.22946  20842109.539                    20842117.660
 122418858.170 7  95391474.67644  23295562.766                    23295573.086
 11  7 27  1 30 30.0000000  0  8G12G10G09G17G02G05G04G27
 116075875.807 7  90448824.02145  22088512.039                    22088518.941
 111014544.837 8  86504950.65046  21125362.383                    21125369.590
 120609878.495 6  93981815.19144  22951308.672                    22951317.871
 119039663.294 7  92758287.54145  22652471.844                    22652479.559
 108651587.484 8  84663673.42246  20675690.883                    20675696.555
 121622782.064 7  94771058.34744  23144041.461                    23144049.512
 109589578.155 8  85394583.40046  20854188.734                    20854196.207
 122475789.519 7  95435836.69244  23306396.531                    23306406.613
 11  7 27  1 31  0.0000000  0  8G12G10G09G17G02G05G04G27
 115998031.692 7  90388166.29745  22073698.602                    22073705.617
 110975145.098 8  86474249.59346  21117864.742                    21117872.445
 120676739.837 6  94033914.89444  22964032.172                    22964041.555
 119087629.755 7  92795663.99945  22661599.758                    22661607.375
 108631900.175 8  84648332.67946  20671944.703                    20671950.477
 121519201.693 7  94690346.48944  23124330.516                    23124339.066
 109653333.913 8  85444263.20146  20866320.906                    20866328.641
 122532938.683 7  95480368.45244  23317271.859                    23317282.242
 11  7 27  1 31 30.0000000  0  8G12G10G09G17G02G05G04G27
 115920494.867 7  90327748.01545  22058943.797                    22058950.809
 110936306.674 8  86443985.92846  21110473.992                    21110482.234
 120743946.545 7  94086283.71644  22976821.313                    22976831.094
 119135724.262 7  92833140.23845  22670751.422                    22670759.156
 108612561.505 8  84633263.59046  20668264.625                    20668269.758
 121415747.918 7  94609733.26944  23104643.203                    23104652.340
 109717368.068 8  85494159.93246  20878506.023                    20878513.559
 122590303.041 7  95525067.88644  23328187.289                    23328198.219
 11  7 27  1 32  0.0000000  0  8G12G10G09G17G02G05G04G27
 115843267.392 7  90267570.77645  22044248.055                    22044254.938
 110898032.486 7  86414161.92446  21103190.852                    21103198.621
 120811496.082 6  94138919.68544  22989675.125                    22989684.793
 119183947.655 7  92870716.90745  22679927.688                    22679935.441
 108593571.250 8  84618466.00946  20664650.641                    20664656.156
 121312424.364 7  94529221.51944  23084982.156                    23084989.805
 109781678.775 8  85544272.15746  20890744.070                    20890751.934
 122647880.512 7  95569933.38644  23339144.148                    23339154.027
 11  7 27  1 32 30.0000000  0  8G12G10G09G17G02G05G04G27
 115766352.333 8  90207636.98546  22029611.250                    22029618.516
 110860324.743 8  86384779.31746  21096014.828                    21096022.816
 120879385.340 7  94191820.34944  23002594.656                    23002604.184
 119232300.991 7  92908394.83545  22689129.297                    22689136.754
 108574929.464 8  84603939.95346  20661103.156                    20661109.066
 121209234.270 7  94448813.77544  23065344.930                    23065353.773
 109846264.250 8  85594598.47846  20903034.273                    20903042.316
 122705668.674 6  95614963.04344  23350140.664                    23350151.117
 11  7 27  1 33  0.0000000  0  8G12G10G09G17G02G05G04G27
 115689752.060 7  90147948.48045  22015034.930                    22015041.707
 110823184.557 8  86355838.95046  21088947.469                    21088955.262
 120947610.366 7  94244982.65444  23015577.781                    23015587.063
 119280784.181 7  92946173.93445  22698355.719                    22698363.305
 108556634.559 8  84589684.19346  20657621.844                    20657627.418
 121106180.049 7  94368511.89944  23045734.336                    23045743.059
 109911121.384 8  85645136.49546  20915376.164                    20915384.262
 122763664.150 6  95660154.28444  23361176.945                    23361187.152
 11  7 27  1 33 30.0000000  0  8G12G10G09G17G02G05G04G27
 115613468.956 8  90088507.11046  22000518.547                    22000525.414
 110786613.887 8  86327342.35746  21081988.125                    21081995.883
 121016168.180 7  94298404.27644  23028624.039                    23028633.113
 119329397.917 7  92984054.77645  22707606.719                    22707614.082
 108538685.830 8  84575698.18246  20654206.672                    20654211.785
 121003264.532 7  94288318.07544  23026150.180                    23026158.430
 109976247.850 8  85695884.38246  20927769.523                    20927777.090
 122821864.063 6  95705504.78544  23372252.094                    23372263.164
 11  7 27  1 34  0.0000000  0  8G12G10G09G17G02G05G04G27
 115537505.383 7  90029314.74746  21986063.086                    21986070.660
 110750614.898 8  86299291.23346  21075137.914                    21075145.953
 121085055.343 7  94352082.55644  23041732.578                    23041741.805
 119378142.800 7  93022037.80145  22716881.828                    22716889.918
 108521082.641 8  84561981.42046  20650856.258                    20650861.934
 120900490.869 7  94208234.80344  23006592.797                    23006601.285
 110041641.490 8  85746840.45946  20940212.945                    20940220.934
 122880266.165 6  95751012.85344  23383366.086                    23383375.965
 11  7 27  1 34 30.0000000  0  8G12G10G09G17G02G05G04G27
 115461864.397 8  89970373.72546  21971669.430                    21971676.012
 110715189.416 8  86271686.98946  21068396.375                    21068404.402
 121154268.517 7  94406014.84544  23054902.766                    23054912.695
 119427019.378 7  93060123.43945  22726182.555                    22726190.711
 108503824.541 8  84548533.55946  20647572.695                    20647577.953
 120797862.117 7  94128264.44445  22987063.523                    22987072.238
 110107300.228 8  85798003.09846  20952707.836                    20952715.699
 122938867.885 6  95796676.47644  23394517.664                    23394527.613
 11  7 27  1 35  0.0000000  0  8G12G10G09G17G02G05G04G27
 115386548.320 8  89911685.89346  21957336.773                    21957344.477
 110680338.819 8  86244530.70946  21061765.484                    21061772.688
 121223804.195 7  94460198.46444  23068135.195                    23068143.977
 119476027.810 7  93098311.81745  22735509.039                    22735516.469
 108486910.312 8  84535353.64846  20644353.977                    20644358.855
 120695381.031 7  94048409.13945  22967561.852                    22967570.664
 110173221.216 8  85849370.08946  20965251.922                    20965259.781
 122997666.244 6  95842493.29344  23405707.453                    23405717.078
 11  7 27  1 35 30.0000000  0  8G12G10G09G17G02G05G04G27
 115311559.600 8  89853253.14646  21943067.328                    21943074.066
 110646065.125 8  86217823.96846  21055242.727                    21055250.410
 121293658.931 6  94514630.69844  23081427.797                    23081437.672
 119525168.682 7  93136603.39745  22744860.531                    22744867.730
 108470338.882 8  84522440.85646  20641200.203                    20641205.563
 120593050.359 7  93968671.05045  22948088.695                    22948097.195
 110239402.124 8  85900939.62546  20977845.773                    20977853.707
 123056658.150 6  95888460.99444  23416932.742                    23416942.066
 11  7 27  1 36  0.0000000  0  8G12G10G09G17G02G05G04G27
 115236901.151 8  89795077.73346  21928860.383                    21928867.113
 110612370.315 8  86191568.30446  21048830.867                    21048838.855
 121363829.537 7  94569309.05544  23094781.688                    23094790.957
 119574442.771 7  93174998.78145  22754236.805                    22754244.430
 108454110.220 8  84509795.14146  20638112.219                    20638117.703
 120490873.526 7  93889052.84445  22928644.867                    22928653.809
 110305841.093 8  85952710.24146  20990488.828                    20990496.879
 123115841.408 6  95934577.72644  23428194.750                    23428204.313
 11  7 27  1 36 30.0000000  0  8G12G10G09G17G02G05G04G27
 115162575.943 7  89737162.01746  21914716.367                    21914723.723
 110579256.805 7  86165765.59846  21042529.523                    21042537.254
 121434313.388 7  94624231.50244  23108194.172                    23108203.848
 119623850.923 7  93213498.61345  22763638.922                    22763647.016
 108438224.350 8  84497416.55346  20635089.391                    20635094.773
 120388853.921 7  93809557.15445  22909231.484                    22909239.809
 110372536.360 8  86004680.56146  21003180.422                    21003188.137
 123175213.767 6  95980841.86143  23439493.477                    23439501.836
 11  7 27  1 37  0.0000000  0  8G12G10G09G17G02G05G04G27
 115088585.551 8  89679507.17846  21900636.648                    21900643.199
 110546725.238 7  86140416.36546  21036338.945                    21036346.742
 121505106.422 7  94679394.86844  23121665.984                    23121675.473
 119673393.230 7  93252102.98345  22773066.648                    22773074.270
 108422679.395 8  84485303.61546  20632131.234                    20632136.586
 120286993.836 7  93730185.74445  22889847.938                    22889856.531
 110439484.909 8  86056848.24946  21015920.273                    21015927.742
 123234771.888 6  96027250.76844  23450827.055                    23450836.609
 11  7 27  1 37 30.0000000  0  8G12G10G09G17G02G05G04G27
 115014932.670 8  89622115.34446  21886621.000                    21886628.023
 110514777.506 8  86115522.05046  21030259.414                    21030267.301
 121576205.258 7  94734796.51744  23135195.313                    23135204.770
 119723070.468 7  93290812.50045  22782519.625                    22782527.867
 108407474.823 8  84473455.91246  20629237.727                    20629243.004
 120185296.274 7  93650940.98145  22870495.461                    22870503.879
 110506684.566 8  86109211.60346  21028708.094                    21028715.758
 123294513.022 6  96073802.25443  23462195.430                    23462205.297
 11  7 27  1 38  0.0000000  0  8G12G10G09G17G02G05G04G27
 114941620.131 8  89564988.70546  21872669.688                    21872676.984
 110483415.474 7  86091084.12846  21024291.406                    21024299.313
 121647606.533 7  94790433.83044  23148782.930                    23148791.883
 119772882.907 7  93329627.34545  22791998.484                    22792006.746
 108392609.618 8  84461872.65346  20626409.055                    20626414.348
 120083764.427 7  93571825.34344  22851174.430                    22851182.887
 110574132.841 8  86161768.68146  21041542.867                    21041550.871
 123354434.480 6  96120494.28043  23473598.352                    23473607.617
 11  7 27  1 38 30.0000000  0  8G12G10G09G17G02G05G04G27
 114868650.396 8  89508129.17746  21858784.539                    21858791.594
 110452640.464 8  86067103.62046  21018435.180                    21018442.859
 121719306.904 7  94846304.23744  23162426.625                    23162435.875
 119822831.164 7  93368548.04445  22801503.641                    22801512.004
 108378083.205 8  84450553.38946  20623644.586                    20623650.137
 119982401.044 7  93492840.97745  22831885.461                    22831894.484
 110641827.553 8  86214517.78946  21054425.117                    21054433.000
 123414533.347 6  96167324.51743  23485033.969                    23485043.742
 11  7 27  1 39  0.0000000  0  8G12G10G09G17G02G05G04G27
 114796026.354 8  89451539.02446  21844964.445                    21844971.648
 110422454.626 8  86043582.21346  21012690.883                    21012698.496
 121791303.229 7  94902405.23044  23176127.398                    23176136.727
 119872915.956 7  93407575.12545  22811034.625                    22811042.906
 108363895.222 8  84439497.82146  20620944.953                    20620950.457
 119881209.755 6  93413990.70144  22812629.383                    22812637.914
 110709766.742 8  86267457.40646  21067353.508                    21067360.930
 123474807.413 6  96214291.28143  23496503.648                    23496513.359
 11  7 27  1 39 30.0000000  0  8G12G10G09G17G02G05G04G27
 114723750.126 7  89395219.89146  21831210.406                    21831217.605
 110392859.096 8  86020520.78246  21007059.031                    21007066.316
 121863591.773 7  94958733.90344  23189883.148                    23189893.109
 119923137.632 7  93446708.87045  22820591.750                    22820599.879
 108350044.346 8  84428704.93046  20618309.070                    20618314.496
 119780192.883 7  93335276.34245  22793406.016                    22793414.813
 110777947.789 8  86320585.48446  21080327.680                    21080335.488
 123535253.598 6  96261392.15143  23508007.367                    23508015.742
 11  7 27  1 40  0.0000000  0  8G12G10G09G17G02G05G04G27
 114651824.083 8  89339173.63946  21817523.523                    21817530.457
 110363855.074 8  85997920.27446  21001539.672                    21001547.332
 121936168.887 7  95015287.47744  23203694.438                    23203703.723
 119973496.346 7  93485949.38945  22830174.258                    22830182.902
 108336529.015 8  84418173.51146  20615736.867                    20615742.645
 119679353.164 7  93256700.02145  22774217.094                    22774225.547
 110846368.022 8  86373899.94846  21093347.961                    21093355.328
 123595868.518 6  96308624.52344  23519541.719                    23519551.160
 11  7 27  1 40 30.0000000  0  8G12G10G09G17G02G05G04G27
 114580250.748 7  89283402.21746  21803903.477                    21803910.020
 110335444.579 8  85975782.25146  20996133.547                    20996140.953
 122009031.642 7  95072063.58944  23217560.164                    23217569.410
 120023993.345 7  93525297.67445  22839783.492                    22839791.758
 108323349.472 8  84407903.74746  20613229.195                    20613234.883
 119578693.915 7  93178264.32545  22755062.281                    22755070.516
 110915025.906 8  86427399.59346  21106412.961                    21106420.371
 123656649.980 6  96355986.66444  23531107.859                    23531117.543
 11  7 27  1 41  0.0000000  0  8G12G10G09G17G02G05G04G27
 114509033.425 7  89227908.20646  21790351.547                    21790358.969
 110307629.869 7  85954108.47546  20990840.234                    20990847.781
 122082176.953 7  95129059.89144  23231479.242                    23231488.094
 120074629.047 7  93564754.04145  22849418.977                    22849427.711
 108310505.362 8  84397895.35646  20610784.992                    20610790.516
 119478218.824 7  93099972.12045  22735942.633                    22735951.344
 110983919.503 8  86481082.90946  21119523.063                    21119530.813
 123717595.906 6  96403476.96344  23542705.430                    23542714.648
 11  7 27  1 41 30.0000000  0  8G12G10G09G17G02G05G04G27
 114438174.347 7  89172693.35246  21776867.523                    21776874.133
 110280411.682 7  85932899.52146  20985660.773                    20985668.449
 122155600.977 7  95186273.36744  23245451.586                    23245460.512
 120125403.835 7  93604318.79245  22859081.070                    22859089.531
 108297995.290 8  84388147.24946  20608404.383                    20608409.551
 119377930.484 7  93021825.44445  22716858.266                    22716866.914
 111053045.952 8  86534947.66746  21132677.297                    21132684.668
 123778703.142 6  96451092.92743  23554333.695                    23554343.871
 11  7 27  1 42  0.0000000  0  8G12G10G09G17G02G05G04G27
 114367675.966 7  89117759.53646  21763452.125                    21763458.695
 110253791.618 7  85912156.65146  20980595.133                    20980603.027
 122229300.213 7  95243701.26844  23259475.930                    23259485.305
 120176318.368 7  93643992.43745  22868770.133                    22868777.719
 108285818.385 8  84378658.76946  20606087.383                    20606092.582
 119277831.350 7  92943826.19745  22697809.891                    22697818.809
 111122403.240 8  86588992.30146  21145875.547                    21145883.469
 123839968.779 6  96498832.32244  23565992.531                    23566001.586
 11  7 27  1 42 30.0000000  0  8G12G10G09G17G02G05G04G27
 114297540.305 7  89063108.38646  21750105.477                    21750112.871
 110227771.054 8  85891880.91546  20975643.586                    20975651.348
 122303271.475 7  95301341.15744  23273551.813                    23273561.148
 120227372.965 7  93683775.23845  22878485.828                    22878492.781
 108273973.420 8  84369428.94146  20603833.461                    20603838.563
 119177924.686 7  92865976.91945  22678798.516                    22678807.023
 111191988.682 8  86643214.71846  21159117.570                    21159125.203
 123901389.863 6  96546692.89143  23577680.086                    23577689.879
 11  7 27  1 43  0.0000000  0  8G12G10G09G17G02G05G04G27
 114227770.328 7  89008742.17546  21736828.938                    21736835.504
 110202351.500 8  85872073.49746  20970806.375                    20970813.984
 122377511.353 7  95359190.36644  23287679.172                    23287688.914
 120278568.135 7  93723667.56445  22888228.023                    22888235.406
 108262459.853 8  84360457.34746  20601642.609                    20601647.574
 119078213.456 7  92788279.92745  22659824.320                    22659832.344
 111261800.379 8  86697613.43446  21172402.055                    21172409.547
 123962963.851 6  96594672.58844  23589396.844                    23589406.512
 11  7 27  1 43 30.0000000  0  8G12G10G09G17G02G05G04G27
 114158368.552 8  88954662.88846  21723621.984                    21723629.254
 110177534.623 8  85852735.69946  20966084.227                    20966091.328
 122452016.521 7  95417246.28744  23301856.914                    23301866.445
 120329904.689 7  93763670.07045  22897996.602                    22898004.250
 108251277.113 8  84351743.53946  20599513.992                    20599519.688
 118978700.969 7  92710737.79645  22640887.195                    22640895.621
 111331836.330 8  86752186.90846  21185729.203                    21185736.980
 124024688.209 6  96642769.42144  23601142.500                    23601153.211
 11  7 27  1 44  0.0000000  0  9G12G25G10G09G17G02G05G04G27
 114089336.971 8  88900872.05546  21710485.914                    21710492.238
 129511987.31516 100918501.21754  24645318.539                    24645330.660
 110153321.011 8  85833867.97946  20961476.531                    20961483.414
 122526783.057 7  95475505.87444  23316084.969                    23316094.430
 120381382.977 7  93803783.00844  22907792.750                    22907800.195
 108240423.493 8  84343286.19146  20597448.695                    20597454.672
 118879389.665 7  92633352.44245  22621989.008                    22621997.441
 111402093.758 8  86806932.94946  21199099.055                    21199106.738
 124086559.538 6  96690980.76644  23612916.922                    23612927.930
 11  7 27  1 44 30.0000000  0  9G12G25G10G09G17G02G05G04G27
 114020678.886 8  88847372.25946  21697420.570                    21697427.531
 129408737.322 6 100838046.80143  24625671.281                    24625682.352
 110129712.762 8  85815471.96546  20956983.852                    20956991.254
 122601808.310 7  95533967.03644  23330361.703                    23330370.973
 120433003.821 7  93844007.03445  22917615.945                    22917623.023
 108229899.194 8  84335085.45246  20595446.234                    20595451.426
 118780283.211 7  92556126.70645  22603129.648                    22603138.035
 111472571.018 8  86861850.29946  21212509.930                    21212518.141
 124148575.680 6  96739304.97243  23624717.539                    23624729.121
 11  7 27  1 45  0.0000000  0  9G12G25G10G09G17G02G05G04G27
 113952396.195 8  88794164.99146  21684426.602                    21684433.934
 129305596.979 6 100757677.80544  24606043.992                    24606055.508
 110106710.809 8  85797548.40046  20952606.336                    20952614.035
 122677088.388 7  95592626.77244  23344687.477                    23344696.438
 120484767.253 7  93884342.15644  22927465.766                    22927473.449
 108219702.515 8  84327140.00946  20593505.688                    20593511.094
 118681384.195 7  92479062.60845  22584309.938                    22584317.785
 111543265.601 8  86916936.99146  21225963.203                    21225971.031
 124210733.647 6  96787739.70643  23636546.070                    23636557.426
 11  7 27  1 45 30.0000000  0  9G12G25G10G09G17G02G05G04G27
 113884491.772 8  88741252.46346  21671505.000                    21671512.500
 129202569.030 7 100677396.37344  24586438.898                    24586448.898
 110084316.405 8  85780098.24745  20948344.656                    20948352.676
 122752620.134 7  95651482.63344  23359060.180                    23359069.738
 120536674.069 7  93924789.02544  22937343.625                    22937351.133
 108209833.244 8  84319449.66846  20591627.992                    20591633.305
 118582695.819 7  92402162.65445  22565529.578                    22565538.563
 111614175.423 8  86972191.39946  21239456.609                    21239464.664
 124273030.878 6  96836282.94443  23648401.320                    23648411.453
 11  7 27  1 46  0.0000000  0  9G12G25G10G09G17G02G05G04G27
 113816968.259 8  88688636.78546  21658655.469                    21658662.648
 129099655.799 7 100597204.33244  24566854.938                    24566865.117
 110062531.097 8  85763122.70445  20944199.156                    20944207.000
 122828400.231 7  95710531.98044  23373481.383                    23373490.891
 120588724.754 7  93965348.01145  22947248.625                    22947256.859
 108200290.395 8  84312013.70546  20589811.625                    20589816.883
 118484220.784 7  92325428.93945  22546790.570                    22546799.125
 111685298.343 8  87027611.85846  21252991.008                    21252999.254
 124335464.724 6  96884932.67643  23660281.719                    23660292.324
 11  7 27  1 46 30.0000000  0  9G12G25G10G09G17G02G05G04G27
 113749827.630 8  88636319.43946  21645879.258                    21645885.844
 128996859.622 7 100517103.51944  24547293.188                    24547304.004
 110041355.502 7  85746622.26245  20940169.813                    20940177.531
 122904424.927 7  95769771.95943  23387947.883                    23387957.332
 120640919.702 7  94006019.38545  22957180.805                    22957189.359
 108191072.618 8  84304831.03246  20588057.586                    20588062.492
 118385961.987 7  92248863.71245  22528092.430                    22528100.766
 111756631.817 8  87083196.37746  21266565.711                    21266573.699
 124398032.108 6  96933686.41643  23672187.484                    23672198.324
 11  7 27  1 47  0.0000000  0  9G12G25G10G09G17G02G05G04G27
 113683072.221 8  88584302.27446  21633176.117                    21633182.949
 128894182.961 7 100437095.81743  24527754.906                    24527765.383
 110020791.137 8  85730598.10445  20936256.461                    20936263.672
 122980690.586 7  95829199.69544  23402460.492                    23402469.457
 120693259.445 7  94046803.60045  22967140.711                    22967148.961
 108182178.843 8  84297900.83646  20586364.953                    20586370.395
 118287922.488 7  92172469.38045  22509436.219                    22509444.398
 111828173.558 8  87138943.19446  21280179.289                    21280187.406
 124460730.249 6  96982542.09843  23684119.852                    23684129.176
 11  7 27  1 47 30.0000000  0  9G12G25G10G09G17G02G05G04G27
 113616704.817 7  88532587.44546  21620546.406                    21620553.137
 128791628.337 6 100357183.23843  24508238.531                    24508250.133
 110000838.931 8  85715050.95446  20932459.797                    20932466.484
 123057193.748 7  95888812.50344  23417018.625                    23417028.223
 120745744.643 7  94087701.13245  22977128.148                    22977136.531
 108173608.316 8  84291222.52846  20584734.383                    20584739.723
 118190105.178 7  92096248.18645  22490821.820                    22490830.480
 111899921.632 8  87194850.77646  21293832.125                    21293840.652
 124523556.247 6  97031497.38343  23696075.102                    23696084.781
 11  7 27  1 48  0.0000000  0  9G12G25G10G09G17G02G05G04G27
 113550727.625 7  88481176.68546  21607991.648                    21607998.906
 128689198.077 7 100277367.53144  24488746.531                    24488757.703
 109981500.320 8  85699981.93146  20928779.344                    20928786.852
 123133931.095 7  95948607.78443  23431620.844                    23431631.027
 120798375.924 7  94128712.49045  22987143.844                    22987152.180
 108165360.037 8  84284795.31346  20583164.742                    20583170.262
 118092513.117 7  92020202.51045  22472250.477                    22472258.691
 111971873.819 8  87250917.41546  21307524.695                    21307532.512
 124586507.369 6  97080550.20043  23708054.391                    23708063.758
 11  7 27  1 48 30.0000000  0  9G12G25G10G09G17G02G05G04G27
 113485143.374 8  88430072.11746  21595511.258                    21595517.992
 128586895.281 7 100197651.13944  24469279.836                    24469289.441
 109962776.783 8  85685392.17946  20925216.477                    20925224.074
 123210899.736 7  96008583.29544  23446268.305                    23446277.809
 120851153.432 7  94169837.76845  22997187.094                    22997195.691
 108157433.659 8  84278618.93446  20581656.281                    20581661.496
 117995149.398 7  91944334.74645  22453722.984                    22453731.387
 112044028.249 8  87307141.64746  21321254.586                    21321262.621
 124649581.238 6  97129698.60643  23720056.781                    23720066.602
 11  7 27  1 49  0.0000000  0  9G12G25G10G09G17G02G05G04G27
 113419954.486 7  88379275.62646  21583106.133                    21583113.574
 128484722.082 7 100118035.70544  24449835.703                    24449846.621
 109944669.116 8  85671282.31346  20921770.742                    20921778.082
 123288095.974 7  96068736.15144  23460958.297                    23460968.023
 120904077.897 7  94211077.56145  23007258.250                    23007267.266
 108149828.160 8  84272692.60846  20580209.125                    20580214.227
 117898017.193 7  91868647.38345  22435239.320                    22435247.492
 112116382.516 8  87363521.59846  21335023.516                    21335031.246
 124712775.063 6  97178940.56043  23732081.383                    23732092.277
 11  7 27  1 49 30.0000000  0  9G12G25G10G09G17G02G05G04G27
 113355163.174 7  88328788.93446  21570776.484                    21570783.504
 128382680.850 7 100038523.13143  24430418.117                    24430429.133
 109927177.996 8  85657652.89946  20918442.273                    20918449.281
 123365516.330 7  96129063.64244  23475690.555                    23475700.852
 120957149.760 7  94252432.22245  23017357.750                    23017365.734
 108142541.923 8  84267015.03446  20578822.281                    20578827.793
 117801118.916 7  91793142.31145  22416800.039                    22416808.090
 112188934.264 8  87420055.42646  21348829.477                    21348836.930
 124776085.732 6  97228273.51443  23744130.242                    23744139.871
 11  7 27  1 50  0.0000000  0  9G12G25G10G09G17G02G05G04G27
 113290771.595 7  88278613.70846  21558523.844                    21558530.738
 128280774.003 7  99959115.25044  24411026.609                    24411036.617
 109910304.494 8  85644504.73846  20915231.375                    20915239.156
 123443157.036 7  96189562.84643  23490464.945                    23490474.582
 121010369.632 7  94293902.21745  23027485.242                    23027493.449
 108135574.171 8  84261585.63546  20577496.492                    20577501.773
 117704457.700 7  91717821.94845  22398406.539                    22398413.859
 112261681.334 8  87476741.46746  21362673.406                    21362680.188
 124839510.342 6  97277695.27043  23756199.602                    23756209.398
 11  7 27  1 50 30.0000000  0  9G12G25G10G09G17G02G05G04G27
 113226782.400 7  88228752.03746  21546346.523                    21546353.684
 128179004.077 7  99879814.03343  24391660.352                    24391670.324
 109894049.732 8  85631838.71445  20912138.000                    20912145.797
 123521014.891 7  96250231.27344  23505280.875                    23505290.730
 121063737.734 7  94335487.70845  23037640.805                    23037648.398
 108128923.665 8  84256403.43046  20576230.898                    20576235.941
 117608036.386 7  91642688.52445  22380057.531                    22380065.723
 112334621.595 8  87533578.03745  21376553.109                    21376560.809
 124903046.129 6  97327203.68943  23768289.531                    23768299.500
 11  7 27  1 51  0.0000000  0  9G12G25G10G09G17G02G05G04G27
 113163198.297 7  88179206.01946  21534247.086                    21534253.727
 128077374.010 7  99800621.84444  24372320.289                    24372331.203
 109878414.780 8  85619655.65346  20909163.016                    20909170.660
 123599086.678 7  96311066.39644  23520137.727                    23520147.766
 121117254.869 7  94377189.31645  23047825.219                    23047832.805
 108122590.265 8  84251468.32446  20575025.961                    20575030.836
 117511858.314 7  91567744.63345  22361755.328                    22361763.641
 112407753.155 8  87590563.67846  21390469.797                    21390477.332
 124966690.640 6  97376796.74843  23780400.984                    23780410.340
 11  7 27  1 51 30.0000000  0  9G12G25G10G09G17G02G05G04G27
 113100021.936 7  88129977.72146  21522224.758                    21522232.063
 127975886.277 7  99721540.53144  24353008.305                    24353018.703
 109863400.643 8  85607956.35846  20906305.992                    20906313.500
 123677368.965 7  96372065.54544  23535035.078                    23535044.500
 121170921.552 7  94419007.46545  23058037.063                    23058045.648
 108116572.782 8  84246779.39246  20573880.797                    20573886.039
 117415926.154 7  91492992.36745  22343500.313                    22343508.266
 112481073.925 8  87647696.74445  21404421.648                    21404429.824
 125030441.114 6  97426472.41543  23792532.219                    23792541.090
 11  7 27  1 52  0.0000000  0  9G12G25G10G09G17G02G05G04G27
 113037255.316 7  88081068.68146  21510280.680                    21510288.066
 127874543.428 7  99642572.10344  24333723.008                    24333733.113
 109849008.303 8  85596741.56246  20903567.086                    20903574.754
 123755858.150 7  96433225.91144  23549970.734                    23549980.332
 121224738.294 7  94460942.54445  23068277.969                    23068286.129
 108110870.333 8  84242335.94646  20572795.438                    20572800.500
 117320243.060 7  91418434.17745  22325292.227                    22325300.227
 112554581.693 8  87704975.51845  21418410.094                    21418418.211
 125094294.771 6  97476228.46743  23804682.992                    23804693.082
 11  7 27  1 52 30.0000000  0  9G12G25G10G09G17G02G05G04G27
 112974900.559 7  88032480.59046  21498414.977                    21498422.371
 127773347.702 7  99563718.31744  24314466.938                    24314476.109
 109835238.395 8  85586011.78046  20900946.789                    20900954.258
 123834550.618 7  96494544.68744  23564945.734                    23564955.203
 121278705.643 7  94502994.98745  23078548.016                    23078555.926
 108105481.675 8  84238137.01646  20571769.914                    20571775.113
 117224811.838 7  91344072.25145  22307132.516                    22307139.945
 112628274.183 8  87762398.23245  21432433.203                    21432441.617
 125158248.604 6  97526062.58443  23816853.211                    23816863.449
 11  7 27  1 53  0.0000000  0  9G12G25G10G09G17G02G05G04G27
 112912960.056 8  87984215.27546  21486628.266                    21486635.184
 127672301.659 7  99484981.18244  24295237.641                    24295248.039
 109822091.588 8  85575767.53746  20898444.906                    20898452.352
 123913443.211 7  96556019.39544  23579957.945                    23579967.852
 121332823.711 7  94545164.89744  23088846.320                    23088854.270
 108100405.333 8  84234181.43646  20570804.109                    20570809.363
 117129635.353 7  91269908.82245  22289020.328                    22289028.195
 112702149.171 8  87819963.15545  21446491.016                    21446499.145
 125222299.829 6  97575972.54243  23829042.063                    23829051.848
 11  7 27  1 53 30.0000000  0  9G12G25G10G09G17G02G05G04G27
 112851436.523 8  87936274.87946  21474920.914                    21474927.680
 127571408.209 7  99406362.93644  24276038.234                    24276048.387
 109809569.046 8  85566009.72946  20896061.969                    20896069.645
 123992532.599 7  96617647.45244  23595008.320                    23595017.945
 121387093.427 7  94587452.95945  23099173.047                    23099181.621
 108095641.375 8  84230469.26946  20569897.484                    20569902.723
 117034716.907 7  91195946.44745  22270958.539                    22270966.344
 112776204.988 8  87877668.99445  21460583.906                    21460591.445
 125286445.787 6  97625956.35543  23841248.086                    23841258.535
 11  7 27  1 54  0.0000000  0  9G12G25G10G09G17G02G05G04G27
 112790332.490 8  87888661.35946  21463293.070                    21463299.555
 127470669.730 7  99327865.43044  24256868.258                    24256878.441
 109797671.455 8  85556738.90046  20893798.078                    20893805.832
 124071815.394 7  96679426.20744  23610095.125                    23610105.266
 121441514.979 7  94629859.33144  23109529.250                    23109537.930
 108091188.163 8  84226999.24746  20569050.031                    20569055.234
 116940059.115 7  91122187.19245  22252945.195                    22252953.355
 112850439.177 8  87935513.83945  21474709.859                    21474717.723
 125350683.760 6  97676011.84843  23853472.336                    23853482.758
 11  7 27  1 54 30.0000000  0  9G12G25G10G09G17G02G05G04G27
 112729649.738 7  87841376.11146  21451745.109                    21451752.453
 127370088.690 7  99249490.62744  24237728.477                    24237738.492
 109786399.396 8  85547955.49646  20891653.031                    20891660.207
 124151287.779 7  96741352.71944  23625218.711                    23625228.309
 121496088.991 6  94672384.50744  23119914.133                    23119922.555
 108087044.622 8  84223770.52246  20568261.336                    20568266.453
 116845664.977 7  91048633.38445  22234982.555                    22234991.230
 112924849.857 8  87993496.20045  21488869.867                    21488877.410
 125415010.980 6  97726136.84343  23865712.836                    23865723.914
 11  7 27  1 55  0.0000000  0  9G12G25G10G09G17G02G05G04G27
 112669390.795 8  87794421.09246  21440278.273                    21440285.273
 127269667.738 7  99171240.59144  24218618.414                    24218629.207
 109775753.731 8  85539660.18846  20889627.008                    20889634.582
 124230946.355 7  96803424.30844  23640376.664                    23640386.508
 121550815.961 6  94715028.89044  23130328.297                    23130336.941
 108083209.775 8  84220782.33846  20567531.672                    20567537.133
 116751537.482 7  90975287.34245  22217071.242                    22217078.824
 112999434.669 8  88051614.24545  21503062.289                    21503070.598
 125479424.549 6  97776329.16843  23877970.594                    23877981.109
 11  7 27  1 55 30.0000000  0  9G12G25G10G09G17G02G05G04G27
 112609558.268 8  87747798.34546  21428892.609                    21428899.504
 127169409.564 6  99093117.36744  24199540.391                    24199550.652
 109765735.179 8  85531853.54246  20887720.523                    20887727.973
 124310788.063 7  96865638.61244  23655570.625                    23655579.816
 121605696.379 7  94757792.83944  23140771.891                    23140779.449
 108079683.024 8  84218034.23646  20566860.758                    20566865.789
 116657679.647 7  90902151.42545  22199210.000                    22199218.125
 113074191.922 8  88109866.64945  21517288.359                    21517296.484
 125543921.946 6  97826586.81143  23890244.633                    23890254.910
 11  7 27  1 56  0.0000000  0  9G12G25G10G09G17G02G05G04G27
 112550154.208 8  87701509.46646  21417588.375                    21417594.930
 127069316.455 6  99015122.79243  24180492.938                    24180503.422
 109756344.121 8  85524535.86246  20885933.625                    20885940.723
 124390808.991 7  96927992.59544  23670798.086                    23670807.191
 121660730.723 6  94800676.72944  23151244.820                    23151252.316
 108076462.781 8  84215524.96946  20566247.992                    20566253.344
 116564093.960 7  90829227.57745  22181401.305                    22181409.281
 113149119.182 8  88168251.52245  21531546.250                    21531554.402
 125608500.184 6  97876907.44043  23902532.852                    23902544.152
 11  7 27  1 56 30.0000000  0  9G12G25G10G09G17G02G05G04G27
 112491181.052 8  87655556.35646  21406366.391                    21406372.949
 126969391.230 6  98937259.04143  24161477.766                    24161488.438
 109747581.460 8  85517707.83546  20884266.250                    20884273.730
 124471006.175 6  96990483.87344  23686058.344                    23686069.363
 121715919.512 6  94843680.99844  23161747.313                    23161754.746
 108073548.324 8  84213253.98146  20565693.305                    20565698.492
 116470783.677 7  90756518.31645  22163644.945                    22163652.688
 113224214.436 8  88226767.29545  21545836.906                    21545845.027
 125673156.498 6  97927288.92043  23914836.453                    23914848.035
 11  7 27  1 57  0.0000000  0  9G12G25G10G09G17G02G05G04G27
 112432641.257 8  87609940.92746  21395226.438                    21395233.387
 126869636.574 6  98859528.19143  24142494.625                    24142505.328
 109739448.154 8  85511370.21045  20882718.555                    20882725.789
 124551375.996 7  97053109.66844  23701352.875                    23701362.852
 121771263.075 7  94886805.86344  23172278.563                    23172286.207
 108070938.555 8  84211220.40246  20565196.648                    20565201.578
 116377751.792 7  90684025.99045  22145941.305                    22145949.613
 113299475.822 8  88285412.52345  21560158.719                    21560166.641
 125737888.305 6  97977729.19843  23927155.414                    23927165.891
 11  7 27  1 57 30.0000000  0  9G12G25G10G09G17G02G05G04G27
 112374536.730 8  87564664.67146  21384169.281                    21384176.316
 126770054.881 6  98781932.11743  24123544.969                    24123555.164
 109731944.448 8  85505523.19046  20881290.305                    20881297.738
 124631914.973 6  97115867.30144  23716679.180                    23716689.059
 121826761.966 6  94930051.74744  23182839.852                    23182847.770
 108068632.463 8  84209423.46146  20564757.914                    20564762.832
 116285001.116 7  90611752.78545  22128291.781                    22128299.574
 113374901.192 8  88344185.54845  21574511.711                    21574519.527
 125802692.772 6  98028226.11843  23939487.070                    23939497.879
 11  7 27  1 58  0.0000000  0  9G12G25G10G09G17G02G05G04G27
 112316869.936 8  87519729.51046  21373196.289                    21373202.867
 126670648.792 6  98704472.86543  24104628.445                    24104638.977
 109725070.835 8  85500167.14946  20879982.273                    20879989.668
 124712619.695 7  97178754.05644  23732036.477                    23732046.613
 121882416.636 7  94973419.04944  23193430.492                    23193438.043
 108066628.958 8  84207862.29647  20564376.695                    20564381.840
 116192534.613 7  90539701.01545  22110695.500                    22110703.586
 113450488.424 8  88403084.69945  21588895.484                    21588903.180
 125867566.951 6  98078777.36343  23951832.453                    23951843.215
 11  7 27  1 58 30.0000000  0  9G12G25G10G09G17G02G05G04G27
 112259643.123 8  87475137.18746  21362306.102                    21362313.246
 126571420.878 6  98627152.49543  24085746.094                    24085756.715
 109718827.764 8  85495302.43446  20878794.117                    20878801.855
 124793486.916 7  97241767.46743  23747425.414                    23747434.652
 121938227.762 7  95016908.25444  23204050.766                    23204058.254
 108064927.202 8  84206536.26747  20564052.938                    20564058.133
 116100355.072 7  90467872.84445  22093154.875                    22093162.480
 113526235.455 8  88462108.35945  21603309.344                    21603317.195
 125932508.220 6  98129380.89643  23964190.680                    23964200.203
 11  7 27  1 59  0.0000000  0  9G12G25G10G09G17G02G05G04G27
 112202858.462 8  87430889.39746  21351500.242                    21351507.137
 126472373.795 7  98549973.00343  24066898.898                    24066909.012
 109713215.911 8  85490929.57346  20877726.555                    20877734.219
 124874512.961 6  97304904.62843  23762844.094                    23762852.879
 121994195.459 7  95060519.48844  23214701.500                    23214708.543
 108063525.873 8  84205444.34847  20563786.000                    20563791.309
 116008465.426 7  90396270.58845  22075668.242                    22075676.324
 113602140.430 8  88521255.09445  21617753.594                    21617761.531
 125997513.696 6  98180034.48343  23976560.953                    23976570.730
 11  7 27  1 59 30.0000000  0  9G12G25G10G09G17G02G05G04G27
 112146518.468 8  87386988.09146  21340778.758                    21340786.410
 126373510.146 7  98472936.42344  24048084.938                    24048095.746
 109708235.772 8  85487048.96746  20876778.664                    20876785.902
 124955694.563 7  97368163.01443  23778292.219                    23778301.805
 122050320.454 7  95104253.27844  23225381.164                    23225388.672
 108062423.962 8  84204585.73246  20563576.219                    20563581.660
 115916868.612 7  90324896.48845  22058238.359                    22058246.391
 113678201.131 7  88580523.17245  21632227.008                    21632235.574
 126062580.801 6  98230736.07743  23988942.648                    23988952.832
 11  7 27  2  0  0.0000000  0  9G12G25G10G09G17G02G05G04G27
 112090625.037 8  87343434.77146  21330143.414                    21330149.969
 126274832.473 7  98396044.79244  24029307.586                    24029318.000
 109703887.634 7  85483660.82046  20875951.352                    20875958.730
 125037028.411 7  97431540.00444  23793769.961                    23793779.020
 122106603.031 6  95148109.83144  23236091.781                    23236099.246
 108061620.558 8  84203959.72746  20563423.523                    20563428.777
 115825567.356 7  90253752.72045  22040864.609                    22040872.371
 113754415.766 7  88639911.19545  21646730.539                    21646739.004
 126127706.622 6  98281483.42343  24001335.352                    24001346.277
 11  7 27  2  0 30.0000000  0  9G12G25G10G09G17G02G05G04G27
 112035180.713 8  87300231.41146  21319591.891                    21319599.176
 126176343.671 7  98319300.31844  24010565.664                    24010575.813
 109700172.072 8  85480765.58746  20875243.852                    20875251.965
 125118511.158 7  97495033.00743  23809276.055                    23809285.039
 122163043.683 7  95192089.58344  23246831.609                    23246839.621
 108061114.729 8  84203565.59346  20563327.055                    20563332.371
 115734564.769 7  90182841.66045  22023547.008                    22023554.719
 113830782.269 7  88699417.55645  21661262.813                    21661270.926
 126192888.668 6  98332274.59143  24013739.320                    24013749.285
 11  7 27  2  1  0.0000000  0  9G12G25G10G09G17G02G05G04G27
 111980187.867 8  87257379.83846  21309127.531                    21309134.457
 126078046.282 7  98242705.02344  23991860.094                    23991870.500
 109697089.423 7  85478363.53846  20874657.492                    20874664.977
 125200139.495 7  97558639.47244  23824808.875                    23824817.969
 122219642.988 6  95236192.95444  23257602.430                    23257610.094
 108060905.390 7  84203402.49247  20563287.266                    20563292.414
 115643863.851 7  90112165.67645  22006286.742                    22006295.164
 113907298.781 7  88759040.81445  21675823.141                    21675831.316
 126258124.098 6  98383107.35543  24026153.180                    24026162.809
 11  7 27  2  1 30.0000000  0  9G12G25G10G09G17G02G05G04G27
 111925648.549 8  87214881.67346  21298748.742                    21298755.824
 125979942.788 7  98166260.80944  23973192.094                    23973201.934
 109694640.187 8  85476455.07146  20874191.219                    20874199.016
 125281909.549 7  97622356.38044  23840370.172                    23840378.594
 122276401.570 6  95280420.41044  23268402.883                    23268411.148
 108060991.231 8  84203469.39746  20563303.484                    20563308.680
 115553467.190 7  90041726.77045  21989084.953                    21989092.898
 113983963.059 7  88818779.21345  21690411.750                    21690420.254
 126323410.144 6  98433979.58843  24038576.086                    24038587.008
 11  7 27  2  2  0.0000000  0  9G12G25G10G09G17G02G05G04G27
 111871564.616 8  87172738.35046  21288457.195                    21288464.336
 125882035.758 7  98089969.70444  23954560.984                    23954571.125
 109692824.280 8  85475040.09346  20873845.773                    20873853.250
 125363817.852 7  97686181.00444  23855955.578                    23855964.980
 122333319.633 6  95324772.15544  23279234.078                    23279242.457
 108061371.019 8  84203765.35347  20563375.852                    20563381.461
 115463377.773 7  89971527.30045  21971941.406                    21971949.625
 114060773.261 7  88878631.32145  21705028.203                    21705036.625
 126388743.912 6  98484888.95043  24051009.273                    24051019.797
 11  7 27  2  2 30.0000000  0  9G12G25G10G09G17G02G05G04G27
 111817938.758 8  87130951.98646  21278252.422                    21278259.652
 125784328.189 7  98013834.00444  23935967.813                    23935977.301
 109691642.601 8  85474119.30746  20873620.992                    20873628.578
 125445861.689 7  97750111.21444  23871568.680                    23871577.617
 122390397.486 6  95369248.40244  23290096.211                    23290104.262
 108062044.239 8  84204289.95746  20563503.961                    20563509.430
 115373598.626 7  89901569.56946  21954856.961                    21954864.832
 114137727.645 7  88938595.76645  21719672.430                    21719680.301
 126454122.904 6  98535833.55843  24063450.984                    24063461.191
 11  7 27  2  3  0.0000000  0  9G12G25G10G09G17G02G05G04G27
 111764773.181 8  87089524.26846  21268135.273                    21268142.766
 125686822.349 7  97937855.46244  23917412.828                    23917422.941
 109691094.950 8  85473692.58946  20873516.680                    20873524.543
 125528037.528 7  97814144.30144  23887205.773                    23887215.281
 122447635.687 6  95413849.59244  23300987.633                    23300996.539
 108063009.349 8  84205042.00746  20563687.578                    20563692.594
 115284132.112 7  89831855.46645  21937832.219                    21937839.980
 114214823.924 7  88998670.79545  21734343.633                    21734351.496
 126519544.006 6  98586810.97943  24075899.453                    24075910.785
 11  7 27  2  3 30.0000000  0  9G12G25G10G09G17G02G05G04G27
 111712069.249 8  87048456.29146  21258106.047                    21258113.348
 125589520.924 7  97862036.25544  23898896.914                    23898907.129
 109691181.648 8  85473760.16846  20873532.977                    20873540.746
 125610341.631 7  97878277.28643  23902867.773                    23902877.207
 122505034.758 6  95458576.12844  23311910.508                    23311919.086
 108064265.412 8  84206020.77746  20563926.438                    20563931.797
 115194981.555 7  89762387.54645  21920867.297                    21920874.988
 114292060.133 7  89058854.85545  21749040.906                    21749049.074
 126585004.726 6  98637819.23643  24088357.859                    24088367.973
 11  7 27  2  4  0.0000000  0  9G12G25G10G09G17G02G05G04G27
 111659829.500 8  87007750.00646  21248165.313                    21248172.496
 125492426.549 7  97786378.34644  23880420.156                    23880430.328
 109691902.691 8  85474322.03546  20873670.336                    20873677.805
 125692770.778 6  97942507.72044  23918553.547                    23918563.633
 122562595.017 7  95503428.27544  23322864.281                    23322872.117
 108065811.349 8  84207225.41246  20564220.734                    20564226.207
 115106149.538 7  89693167.85145  21903963.648                    21903970.797
 114369434.434 7  89119146.51745  21763764.695                    21763773.133
 126650502.336 6  98688856.23743  24100820.656                    24100831.719
 11  7 27  2  4 30.0000000  0  9G12G25G10G09G17G02G05G04G27
 111608056.198 8  86967407.19546  21238313.281                    21238320.121
 125395541.789 7  97710883.78144  23861984.336                    23861994.039
 109693258.184 8  85475378.28346  20873928.406                    20873936.070
 125775321.526 6  98006832.93144  23934262.656                    23934272.621
 122620316.767 7  95548406.26144  23333847.703                    23333856.305
 108067645.717 8  84208654.80847  20564569.625                    20564575.133
 115017638.687 7  89624198.43245  21887119.984                    21887128.000
 114446944.737 7  89179544.16445  21778514.750                    21778522.773
 126716034.042 5  98739919.81243  24113291.008                    24113302.020
 11  7 27  2  5  0.0000000  0  9G12G25G10G09G17G02G05G04G27
 111556751.355 8  86927429.41146  21228549.969                    21228557.195
 125298869.335 7  97635554.66544  23843586.938                    23843598.180
 109695248.501 8  85476929.19846  20874307.313                    20874314.805
 125857990.515 6  98071250.25443  23949993.516                    23950004.277
 122678200.577 7  95593510.53944  23344862.609                    23344870.898
 108069767.467 8  84210308.13846  20564973.688                    20564978.945
 114929451.801 7  89555481.42845  21870338.859                    21870346.379
 114524589.123 7  89240046.28245  21793290.188                    21793298.137
 126781596.984 6  98791007.70443  24125767.250                    24125778.125
 11  7 27  2  5 30.0000000  0  9G12G25G10G09G17G02G05G04G27
 111505917.301 8  86887818.48946  21218876.805                    21218883.359
 125202412.065 7  97560393.19044  23825232.289                    23825242.520
 109697873.800 8  85478974.90846  20874806.578                    20874814.371
 125940774.447 6  98135757.13244  23965747.539                    23965757.293
 122736247.027 7  95638741.51944  23355908.836                    23355916.598
 108072176.175 8  84212185.07946  20565431.984                    20565437.547
 114841592.310 7  89487019.54846  21853619.336                    21853627.527
 114602365.982 7  89300651.63345  21808090.242                    21808098.602
 126847188.781 6  98842118.13443  24138248.445                    24138259.270
 11  7 27  2  6  0.0000000  0  9G12G25G10G09G17G02G05G04G27
 111455555.883 8  86848575.84646  21209293.359                    21209300.152
 125106172.558 7  97485401.37744  23806918.555                    23806928.305
 109701134.210 8  85481515.51846  20875427.203                    20875434.398
 126023670.134 6  98200351.06744  23981521.758                    23981532.051
 122794456.291 7  95684099.36644  23366985.766                    23366993.055
 108074870.481 8  84214284.56547  20565944.648                    20565949.742
 114754062.909 7  89418814.88146  21836963.445                    21836971.000
 114680273.390 8  89361358.71545  21822915.641                    21822923.652
 126912806.700 6  98893248.87143  24150735.148                    24150746.664
 11  7 27  2  6 30.0000000  0  9G12G25G10G09G17G02G05G04G27
 111405669.329 8  86809703.23746  21199800.250                    21199806.922
 125010153.344 7  97410581.22044  23788646.461                    23788656.832
 109705029.477 8  85484550.79846  20876167.977                    20876175.387
 126106673.940 6  98265029.30443  23997316.797                    23997326.566
 122852828.862 7  95729584.47044  23378093.531                    23378101.887
 108077849.019 8  84216605.52046  20566511.297                    20566516.781
 114666866.133 7  89350869.40746  21820370.234                    21820377.742
 114758309.183 7  89422165.82745  21837765.273                    21837773.352
 126978447.840 6  98944397.71343  24163226.805                    24163237.887
 11  7 27  2  7  0.0000000  0  9G12G25G10G09G17G02G05G04G27
 111356259.551 8  86771202.15046  21190397.688                    21190404.906
 124914357.052 7  97335934.76844  23770417.352                    23770426.945
 109709559.673 8  85488080.84546  20877030.117                    20877037.711
 126189782.416 6  98329789.08843  24013131.117                    24013142.250
 122911365.007 7  95775197.05044  23389233.078                    23389240.559
 108081110.485 8  84219146.92247  20567132.164                    20567137.559
 114580004.594 7  89283185.16246  21803840.734                    21803848.676
 114836471.670 7  89483071.66345  21852639.031                    21852647.074
 127044109.408 6  98995562.46843  24175722.359                    24175733.305
 11  7 27  2  7 30.0000000  0  9G12G25G10G09G17G02G05G04G27
 111307328.755 8  86733074.29346  21181086.375                    21181093.457
 124818786.444 7  97261464.17344  23752230.500                    23752240.941
 109714724.947 8  85492105.75346  20878013.297                    20878020.828
 126272992.298 6  98394627.86943  24028966.484                    24028976.410
 122970065.547 7  95820937.74844  23400403.063                    23400410.250
 108084654.140 8  84221908.22046  20567806.273                    20567811.422
 114493481.372 7  89215764.52845  21787376.367                    21787384.039
 114914758.677 7  89544074.53345  21867536.664                    21867544.391
 127109788.521 6  99046740.89444  24188220.914                    24188231.285
 11  7 27  2  8  0.0000000  0  9G12G25G10G09G17G02G05G04G27
 111258878.698 8  86695321.03846  21171866.844                    21171873.715
 124723444.138 7  97187171.48544  23734087.516                    23734097.535
 109720525.038 8  85496625.32846  20879116.906                    20879124.828
 126356300.553 6  98459543.31443  24044818.789                    24044829.801
 123028930.698 7  95866806.69844  23411604.891                    23411612.406
 108088478.895 8  84224888.56746  20568534.609                    20568539.293
 114407299.525 7  89148609.90646  21770975.289                    21770983.719
 114993168.408 7  89605173.03545  21882457.539                    21882465.395
 127175482.655 6  99097931.04943  24200722.023                    24200732.246
 11  7 27  2  8 30.0000000  0  9G12G25G10G09G17G02G05G04G27
 111210911.718 8  86657944.20846  21162739.266                    21162745.914
 124628332.820 7  97113058.75444  23715988.273                    23715998.418
 109726960.190 8  85501639.74846  20880341.656                    20880348.965
 126439703.509 6  98524532.54743  24060690.203                    24060700.625
 123087960.711 7  95912804.13644  23422837.398                    23422844.832
 108092583.439 8  84228086.92646  20569315.055                    20569320.152
 114321461.198 7  89081722.96346  21754641.680                    21754649.180
 115071699.196 8  89666365.87145  21897401.758                    21897409.063
 127241189.244 6  99149130.91844  24213225.484                    24213235.977
 11  7 27  2  9  0.0000000  0  9G12G25G10G09G17G02G05G04G27
 111163430.302 8  86620945.72846  21153703.352                    21153710.363
 124533455.246 7  97039128.17444  23697933.875                    23697944.379
 109734030.266 7  85507148.91046  20881686.977                    20881694.492
 126523197.900 6  98589593.08443  24076578.875                    24076588.746
 123147156.134 7  95958930.42344  23434102.063                    23434110.324
 108096966.993 7  84231502.70946  20570149.109                    20570154.340
 114235969.490 7  89015106.10345  21738372.828                    21738380.605
 115150349.161 8  89727651.56345  21912367.969                    21912375.477
 127306905.684 6  99200338.47043  24225730.758                    24225742.016
 11  7 27  2  9 30.0000000  0  9G12G25G10G09G17G02G05G04G27
 111116435.252 8  86584326.24646  21144760.563                    21144767.336
 124438813.939 7  96965381.69844  23679924.016                    23679934.301
 109741735.139 8  85513152.71546  20883153.039                    20883160.270
 126606780.622 6  98654722.42643  24092484.234                    24092494.527
 123206517.227 7  96005185.80644  23445398.594                    23445406.012
 108101628.185 8  84235134.83446  20571036.578                    20571041.734
 114150827.096 7  88948761.44846  21722170.953                    21722178.641
 115229116.474 7  89789028.69145  21927356.945                    21927364.645
 127372628.984 6  99251551.30743  24238238.156                    24238248.773
 11  7 27  2 10  0.0000000  0  9G12G25G10G09G17G02G05G04G27
 111069929.084 8  86548087.70746  21135910.648                    21135917.129
 124344411.502 7  96891821.36344  23661959.727                    23661969.992
 109750074.313 7  85519650.79646  20884739.859                    20884747.484
 126690448.035 6  98719917.75843  24108405.492                    24108416.434
 123266044.359 7  96051570.59444  23456726.141                    23456733.742
 108106565.672 8  84238982.25646  20571976.055                    20571980.914
 114066036.564 7  88882690.95645  21706035.414                    21706043.711
 115307999.024 7  89850495.61145  21942367.852                    21942375.547
 127438356.502 6  99302767.53043  24250745.898                    24250756.234
 11  7 27  2 10 30.0000000  0  9G12G25G10G09G17G02G05G04G27
 111023913.683 8  86512231.59446  21127154.133                    21127161.035
 124250250.675 7  96818449.29544  23644042.289                    23644051.832
 109759047.655 8  85526643.02445  20886447.547                    20886455.102
 126774197.000 6  98785176.64743  24124342.672                    24124352.992
 123325737.777 7  96098084.93844  23468085.664                    23468092.965
 108111778.314 8  84243044.07946  20572967.977                    20572973.059
 113981600.950 8  88816897.02946  21689968.039                    21689976.000
 115386995.162 7  89912051.05045  21957400.406                    21957407.516
 127504085.484 6  99353984.83943  24263252.992                    24263263.992
 11  7 27  2 11  0.0000000  0  9G12G25G10G09G17G02G05G04G27
 110978391.459 8  86476759.76646  21118491.781                    21118498.648
 124156334.367 7  96745267.74944  23626170.164                    23626180.438
 109768655.420 8  85534129.60946  20888275.492                    20888283.297
 126858024.241 6  98850496.55343  24140295.023                    24140304.348
 123385598.144 7  96144729.41344  23479476.375                    23479483.664
 108117265.508 8  84247319.83346  20574011.844                    20574016.867
 113897523.176 8  88751381.94046  21673968.648                    21673975.949
 115466103.365 7  89973693.79545  21972454.164                    21972461.629
 127569813.331 6  99405201.30843  24275760.594                    24275771.262
 11  7 27  2 11 30.0000000  0  9G12G25G10G09G17G02G05G04G27
 110933364.239 8  86441673.65446  21109923.313                    21109930.504
 124062665.219 7  96672278.77744  23608345.117                    23608355.621
 109778897.084 8  85542110.14746  20890224.922                    20890232.234
 126941926.467 6  98915874.89943  24156261.078                    24156270.250
 123445625.853 7  96191504.26744  23490898.484                    23490906.695
 108123026.122 8  84251808.63946  20575108.266                    20575113.469
 113813805.978 8  88686147.81546  21658037.531                    21658045.336
 115545321.638 7  90035422.32145  21987529.039                    21987536.512
 127635537.458 6  99456414.84443  24288267.625                    24288278.188
 11  7 27  2 12  0.0000000  0  9G12G25G10G09G17G02G05G04G27
 110888833.389 8  86406974.33046  21101449.063                    21101456.582
 123969245.594 7  96599484.25244  23590567.867                    23590578.492
 109789772.094 8  85550584.20046  20892294.094                    20892301.988
 127025900.351 6  98981309.04943  24172239.883                    24172249.887
 123505820.970 7  96238409.55144  23502353.836                    23502361.270
 108129058.415 8  84256509.13546  20576256.117                    20576261.055
 113730451.500 8  88621196.31846  21642175.961                    21642183.379
 115624647.893 7  90097234.98945  22002624.070                    22002631.242
 127701254.998 6  99507623.24543  24300772.750                    24300784.484
 11  7 27  2 12 30.0000000  0  9G12G25G10G09G17G02G05G04G27
 110844801.435 8  86372663.75546  21093070.141                    21093077.195
 123876078.283 7  96526886.32744  23572839.664                    23572849.473
 109801280.515 8  85559551.81546  20894484.086                    20894491.871
 127109942.466 6  99046796.39643  24188233.000                    24188242.152
 123566184.140 7  96285445.77444  23513840.922                    23513848.641
 108135361.663 8  84261420.77246  20577455.609                    20577460.594
 113647462.652 8  88556529.73845  21626383.539                    21626390.707
 115704080.479 7  90159130.50745  22017739.836                    22017747.055
 127766963.374 6  99558824.51543  24313277.031                    24313288.234
 11  7 27  2 13  0.0000000  0  9G12G25G10G09G17G02G05G04G27
 110801269.931 8  86338743.15146  21084786.422                    21084793.301
 123783166.012 7  96454487.12844  23555158.758                    23555168.465
 109813421.788 8  85569012.56446  20896794.617                    20896802.711
 127194049.455 6  99112334.31943  24204237.594                    24204247.531
 123626715.537 7  96332613.09844  23525359.297                    23525367.137
 108141934.563 8  84266542.54046  20578706.398                    20578711.371
 113564842.275 8  88492150.26346  21610661.117                    21610668.703
 115783617.830 7  90221107.66745  22032874.977                    22032882.617
 127832659.929 6  99610016.59043  24325779.375                    24325789.699
 11  7 27  2 13 30.0000000  0  9G12G25G10G09G17G02G05G04G27
 110758241.138 8  86305214.26146  21076598.180                    21076605.008
 123690511.590 7  96382288.88944  23537526.586                    23537537.355
 109826195.568 8  85578966.17546  20899225.258                    20899232.766
 127278218.316 6  99177920.36443  24220254.898                    24220265.336
 123687415.604 7  96379911.85844  23536910.344                    23536918.273
 108148776.129 8  84271873.65446  20580008.297                    20580013.023
 113482592.932 8  88428059.92646  21595009.531                    21595017.070
 115863257.885 7  90283164.85145  22048029.820                    22048037.668
 127898342.030 6  99661197.38743  24338278.219                    24338288.117
 11  7 27  2 14  0.0000000  0  9G12G25G10G09G17G02G05G04G27
 110715715.845 8  86272077.72546  21068505.938                    21068513.012
 123598117.238 7  96310293.29144  23519945.086                    23519955.168
 109839601.131 8  85589412.08246  20901776.453                    20901783.723
 127362445.295 6  99243551.73543  24236283.109                    24236292.836
 123748284.508 7  96427342.16644  23548492.656                    23548501.332
 108155884.736 8  84277412.84646  20581360.953                    20581365.957
 113400716.945 8  88364260.51446  21579429.063                    21579436.617
 115942998.950 7  90345300.74845  22063204.242                    22063211.754
 127964006.711 6  99712364.61543  24350773.906                    24350784.418
 11  7 27  2 14 30.0000000  0  9G12G25G10G09G17G02G05G04G27
 110673696.758 8  86239335.61546  21060509.836                    21060516.836
 123505986.020 7  96238502.77044  23502413.352                    23502423.438
 109853638.770 8  85600350.51546  20904447.633                    20904454.887
 127446727.542 6  99309226.14943  24252321.234                    24252331.344
 123809322.790 7  96474904.45544  23560108.359                    23560117.070
 108163259.686 8  84283159.59546  20582764.445                    20582769.473
 113319217.596 8  88300754.57546  21563920.336                    21563928.113
 116022839.302 7  90407514.01145  22078397.234                    22078405.359
 128029651.629 6  99763516.38143  24363265.664                    24363276.500
 11  7 27  2 15  0.0000000  0  9G12G25G10G09G17G02G05G04G27
 110632185.714 8  86206989.38546  21052610.406                    21052617.293
 123414120.575 7  96166919.31744  23484931.539                    23484941.875
 109868307.533 8  85611780.74546  20907238.820                    20907246.676
 127531061.718 6  99374941.05543  24268369.563                    24268379.449
 123870530.650 7  96522598.87844  23571756.258                    23571764.543
 108170899.735 8  84289112.91346  20584218.023                    20584223.184
 113238097.316 8  88237544.02246  21548483.625                    21548491.160
 116102777.245 7  90469803.31245  22093608.930                    22093616.691
 128095274.098 6  99814650.71243  24375753.586                    24375764.359
 11  7 27  2 15 30.0000000  0  9G12G25G10G09G17G02G05G04G27
 110591184.222 8  86175040.21046  21044808.133                    21044814.844
 123322523.518 7  96095545.02644  23467501.578                    23467511.293
 109883607.079 8  85623702.49046  20910150.227                    20910157.797
 127615444.355 6  99440693.70943  24284426.648                    24284436.855
 123931908.655 7  96570425.91344  23583435.461                    23583443.945
 108178803.848 8  84295271.98546  20585722.172                    20585727.270
 113157358.489 8  88174630.69746  21533119.828                    21533126.984
 116182810.928 7  90532167.22745  22108839.156                    22108846.984
 128160871.388 6  99865765.42143  24388235.438                    24388246.504
 11  7 27  2 16  0.0000000  0  9G12G25G10G09G17G02G05G04G27
 110550694.240 8  86143489.62546  21037102.961                    21037109.559
 123231197.553 7  96024382.00244  23450122.563                    23450132.461
 109899536.999 8  85636115.43446  20913181.609                    20913189.336
 127699872.431 6  99506481.75043  24300493.367                    24300503.641
 123993456.970 6  96618385.64444  23595148.336                    23595156.559
 108186970.839 8  84301635.90146  20587276.180                    20587281.586
 113077004.149 8  88112016.97546  21517829.031                    21517836.211
 116262938.880 7  90594604.59545  22124086.852                    22124094.293
 128226440.813 6  99916858.44443  24400713.219                    24400724.004
 11  7 27  2 16 30.0000000  0  9G12G25G10G09G17G02G05G04G27
 110510717.502 8  86112338.96046  21029495.953                    21029502.617
 123140145.423 7  95953432.35544  23432796.227                    23432805.711
 109916096.697 8  85649019.11446  20916332.992                    20916340.613
 127784342.631 6  99572302.58743  24316567.180                    24316577.559
 124055175.900 7  96666478.30444  23606892.758                    23606900.465
 108195399.340 8  84308203.59446  20588880.344                    20588885.422
 112997036.838 7  88049704.84046  21502611.000                    21502618.609
 116343159.134 7  90657113.88145  22139352.500                    22139359.793
 128291979.888 6  99967927.76143  24413184.828                    24413196.180
 11  7 27  2 17  0.0000000  0  9G12G25G10G09G17G02G05G04G27
 110471255.774 8  86081589.60446  21021986.609                    21021993.250
 123049369.835 7  95882698.18144  23415521.695                    23415531.547
 109933285.627 8  85662413.10646  20919604.008                    20919611.539
 127868851.863 6  99638153.84543  24332648.695                    24332659.008
 124117065.688 7  96714704.13044  23618670.289                    23618678.039
 108204088.680 8  84314974.52946  20590533.906                    20590538.613
 112917459.189 8  87987696.32346  21487468.266                    21487475.695
 116423470.309 7  90719694.02045  22154635.047                    22154642.305
 128357485.841 6 100018971.30743  24425650.727                    24425661.629
 11  7 27  2 17 30.0000000  0  9G12G25G10G09G17G02G05G04G27
 110432310.899 8  86051242.99346  21014575.484                    21014582.754
 122958873.392 7  95812181.54744  23398300.438                    23398310.566
 109951103.201 8  85676296.94846  20922994.375                    20923001.496
 127953396.648 6  99704032.80243  24348737.547                    24348747.957
 124179127.027 6  96763063.59144  23630479.836                    23630488.074
 108213037.517 8  84321947.67846  20592236.430                    20592241.797
 112838273.903 8  87925993.55246  21472399.875                    21472407.406
 116503870.461 7  90782343.47745  22169934.125                    22169942.172
 128422956.097 6 100069986.98643  24438109.672                    24438120.488
 11  7 27  2 18  0.0000000  0  9G12G25G10G09G17G02G05G04G27
 110393884.534 7  86021300.40446  21007262.992                    21007269.875
 122868658.805 7  95741884.52544  23381133.367                    23381143.719
 109969548.755 8  85690670.12746  20926504.375                    20926511.398
 128037973.920 6  99769937.12643  24364831.742                    24364841.691
 124241359.978 7  96811556.82444  23642321.773                    23642330.383
 108222244.727 8  84329122.14646  20593988.625                    20593993.508
 112759483.491 8  87864598.47546  21457406.086                    21457413.805
 116584358.048 7  90845061.06345  22185250.742                    22185258.445
 128488387.988 6 100120972.79343  24450560.781                    24450571.492
 11  7 27  2 18 30.0000000  0  9G12G25G10G09G17G02G05G04G27
 110355978.173 8  85991763.01046  21000049.945                    21000056.125
 122778728.597 7  95671809.11844  23364019.844                    23364030.578
 109988621.540 8  85705532.06546  20930133.805                    20930140.895
 128122580.447 6  99835864.18843  24380931.867                    24380941.695
 124303764.703 6  96860183.86044  23654196.984                    23654206.160
 108231708.898 8  84336496.85146  20595789.602                    20595794.594
 112681090.342 7  87803512.95246  21442488.633                    21442496.254
 116664931.143 7  90907845.29245  22200583.781                    22200591.191
 128553779.027 6 100171926.77743  24463004.320                    24463015.574
 11  7 27  2 19  0.0000000  0  9G12G25G10G09G17G02G05G04G27
 110318593.571 8  85962632.18046  20992935.828                    20992942.445
 122689085.524 7  95601957.45844  23346961.258                    23346972.004
 110008320.764 8  85720882.13846  20933882.391                    20933890.129
 128207212.775 6  99901811.38743  24397037.320                    24397047.480
 124366341.591 6  96908945.07444  23666104.930                    23666114.355
 108241428.998 8  84344070.98146  20597639.117                    20597644.121
 112603096.928 8  87742738.90946  21427646.344                    21427654.293
 116745588.276 7  90970694.99445  22215932.031                    22215939.520
 128619126.489 6 100222846.81243  24475438.945                    24475450.734
 11  7 27  2 19 30.0000000  0  9G12G25G10G09G17G02G05G04G27
 110281732.587 7  85933909.35846  20985921.469                    20985928.121
 122599732.170 7  95532331.54244  23329957.945                    23329968.457
 110028645.770 7  85736719.81946  20937750.164                    20937757.320
 128291867.909 6  99967776.34243  24413146.578                    24413157.520
 124429090.973 7  96957840.69444  23678046.484                    23678054.648
 108251403.722 8  84351843.53346  20599537.016                    20599542.160
 112525505.934 8  87682278.43546  21412881.477                    21412889.008
 116826327.618 7  91033608.74045  22231296.242                    22231304.121
 128684427.900 6 100273730.94743  24487865.969                    24487876.746
 11  7 27  2 20  0.0000000  0  8G12G25G10G09G17G02G05G04
 110245397.142 8  85905596.04446  20979006.867                    20979013.512
 122510671.798 7  95462933.90245  23313010.445                    23313020.938
 110049596.164 7  85753044.82846  20941736.914                    20941744.660
 128376543.242 6 100033757.03943  24429259.844                    24429270.367
 124492013.654 6  97006871.36044  23690019.906                    23690028.543
 108261632.818 8  84359814.27946  20601483.711                    20601488.641
 112448320.375 8  87622133.89046  21398193.930                    21398200.742
 116907148.183 7  91096585.79745  22246676.141                    22246683.770
 11  7 27  2 20 30.0000000  0  8G12G25G10G09G17G02G05G04
 110209588.545 7  85877693.25146  20972192.516                    20972199.293
 122421906.626 7  95393766.31944  23296118.938                    23296129.566
 110071170.838 7  85769856.28246  20945842.539                    20945849.777
 128461235.109 6 100099750.62243  24445376.336                    24445385.969
 124555109.372 6  97056036.83044  23702027.000                    23702034.508
 108272114.383 8  84367981.76146  20603478.320                    20603483.430
 112371542.619 8  87562307.10046  21383583.563                    21383590.988
 116988047.891 7  91159624.49445  22262071.164                    22262078.637
 11  7 27  2 21  0.0000000  0  8G12G25G10G09G17G02G05G04
 110174308.395 8  85850202.24646  20965478.906                    20965485.395
 122333439.230 7  95324830.77144  23279284.500                    23279294.715
 110093369.280 8  85787153.79546  20950066.578                    20950073.711
 128545940.029 6 100165754.40843  24461495.359                    24461505.195
 124618378.313 7  97105337.30344  23714066.930                    23714074.395
 108282847.260 8  84376345.06646  20605520.805                    20605525.668
 112295174.844 8  87502799.79846  21369051.094                    21369058.875
 117069025.046 7  91222723.55445  22277480.320                    22277487.910
 11  7 27  2 21 30.0000000  0  8G12G25G10G09G17G02G05G04
 110139557.944 8  85823123.98646  20958866.289                    20958872.863
 122245272.125 7  95256129.21044  23262505.938                    23262516.801
 110116190.456 7  85804936.55546  20954409.047                    20954416.809
 128630654.907 6 100231765.94743  24477615.750                    24477626.355
 124681820.723 7  97154772.93244  23726139.547                    23726147.211
 108293830.001 8  84384903.06946  20607610.844                    20607616.008
 112219219.379 7  87443613.77246  21354596.773                    21354604.523
 117150077.748 7  91285881.48045  22292904.305                    22292911.645
 11  7 27  2 22  0.0000000  0  8G12G25G10G09G17G02G05G04
 110105338.833 8  85796459.75546  20952354.711                    20952361.770
 122157408.225 7  95187663.88944  23245786.078                    23245796.402
 110139633.860 7  85823204.16146  20958870.445                    20958878.000
 128715376.491 6 100297782.71043  24493737.563                    24493748.117
 124745437.057 7  97204344.10344  23738245.305                    23738253.195
 108305061.860 8  84393655.18846  20609748.203                    20609753.297
 112143679.063 8  87384751.22846  21340222.461                    21340229.801
 117231204.749 7  91349097.29445  22308342.078                    22308349.512
 11  7 27  2 22 30.0000000  0  8G12G25G10G09G17G02G05G04
 110071652.755 8  85770210.87246  20945944.477                    20945951.258
 122069850.016 7  95119436.77344  23229124.422                    23229135.199
 110163698.215 7  85841955.62446  20963449.844                    20963456.980
 128800101.741 6 100363802.33943  24509860.477                    24509870.527
 124809227.412 7  97254050.87944  23750383.336                    23750391.832
 108316541.524 8  84402600.39246  20611932.805                    20611937.738
 112068556.333 8  87326214.06946  21325927.242                    21325934.262
 117312404.363 7  91412369.69445  22323793.797                    22323801.613
 11  7 27  2 23  0.0000000  0  8G12G25G10G09G17G02G05G04
 110038500.994 8  85744378.34146  20939636.008                    20939642.250
 121982600.145 7  95051449.91745  23212521.250                    23212531.684
 110188382.456 7  85861190.12046  20968147.281                    20968154.258
 128884827.555 6 100429822.40542  24525983.711                    24525993.191
 124873191.999 7  97303893.42044  23762555.758                    23762563.535
 108328267.716 8  84411737.70646  20614164.148                    20614168.469
 111993853.494 8  87268004.10646  21311711.430                    21311718.945
 117393674.799 7  91475697.27445  22339258.891                    22339266.953
 11  7 27  2 23 30.0000000  0  8G12G25G10G09G17G02G05G04
 110005885.438 8  85718963.62946  20933429.633                    20933435.719
 121895661.281 7  94983705.42044  23195977.594                    23195988.098
 110213685.728 7  85880906.97046  20972962.164                    20972969.324
 128969550.885 5 100495840.55942  24542105.109                    24542115.898
 124937331.163 7  97353871.96644  23774761.039                    23774769.188
 108340239.393 8  84421066.31046  20616442.078                    20616446.750
 111919572.979 8  87210123.21846  21297575.938                    21297583.277
 117475014.533 7  91539078.86145  22354737.547                    22354745.344
 11  7 27  2 24  0.0000000  0  8G12G25G10G09G17G02G05G04
 109973808.115 8  85693968.33146  20927325.531                    20927332.023
 121809036.196 7  94916205.42444  23179493.039                    23179503.766
 110239606.984 7  85901105.37346  20977894.398                    20977901.738
 129054268.401 5 100561854.18442  24558226.844                    24558237.473
 125001645.034 7  97403986.66543  23786999.938                    23787007.816
 108352455.570 8  84430585.42646  20618766.461                    20618771.719
 111845717.074 8  87152573.20946  21283521.977                    21283529.539
 117556422.317 7  91602513.46745  22370228.922                    22370236.680
 11  7 27  2 24 30.0000000  0  8G12G25G10G09G17G02G05G04
 109942269.581 8  85669392.86646  20921323.531                    20921330.320
 121722727.729 7  94848952.10644  23163068.969                    23163078.969
 110266145.707 7  85921784.91946  20982944.844                    20982952.402
 129138976.964 5 100627860.76743  24574346.242                    24574356.953
 125066134.025 7  97454237.82844  23799271.734                    23799278.938
 108364915.063 8  84440294.14546  20621137.227                    20621142.746
 111772289.007 8  87095356.56546  21269549.195                    21269555.945
 117637896.501 7  91665999.81745  22385732.344                    22385740.762
 11  7 27  2 25  0.0000000  0  8G12G25G10G09G17G02G05G04
 109911271.285 8  85645238.35846  20915425.008                    20915431.457
 121636738.196 7  94781947.32844  23146705.719                    23146715.703
 110293300.723 7  85942944.69246  20988112.141                    20988119.480
 129223673.620 5 100693858.09442  24590463.250                    24590474.535
 125130798.208 7  97504625.49844  23811577.016                    23811584.973
 108377616.515 8  84450191.39946  20623554.609                    20623559.820
 111699290.707 8  87038474.81346  21255657.813                    21255665.305
 117719435.321 7  91729536.54445  22401249.078                    22401257.121
 11  7 27  2 25 30.0000000  0  8G12G25G10G09G17G02G05G04
 109880814.791 8  85621506.03646  20909628.898                    20909635.707
 121551070.250 7  94715193.14244  23130403.711                    23130414.023
 110321070.563 8  85964583.55546  20993396.523                    20993403.938
 129308354.960 5 100759843.48642  24606577.797                    24606588.383
 125195637.759 7  97555149.80944  23823915.289                    23823923.273
 108390558.618 8  84460276.17346  20626017.383                    20626022.309
 111626724.306 8  86981929.60346  21241848.906                    21241856.043
 117801037.358 7  91793122.51145  22416777.602                    22416785.750
 11  7 27  2 26  0.0000000  0  8G12G25G10G09G17G02G05G04
 109850901.677 7  85598197.14146  20903936.883                    20903943.664
 121465726.519 7  94648691.57344  23114163.688                    23114173.754
 110349454.069 7  85986700.60146  20998797.742                    20998805.195
 129393018.050 6 100825814.71343  24622688.953                    24622699.219
 125260652.961 7  97605811.02644  23836287.758                    23836295.250
 108403740.422 8  84470547.71146  20628525.930                    20628530.738
 111554592.141 8  86925722.75146  21228122.633                    21228130.254
 117882701.109 7  91856756.58145  22432317.930                    22432325.605
 11  7 27  2 26 30.0000000  0  8G12G25G10G09G17G02G05G04
 109821533.296 8  85575312.71146  20898348.203                    20898354.777
 121380709.733 7  94582444.76644  23097985.344                    23097995.250
 110378450.729 8  86009295.42046  21004315.430                    21004322.992
 129477659.624 6 100891769.16543  24638796.195                    24638805.879
 125325844.220 7  97656609.41743  23848693.266                    23848701.227
 108417160.763 8  84481005.12846  20631079.531                    20631084.375
 111482896.834 8  86869856.32246  21214479.453                    21214486.723
 117964425.037 7  91920437.55345  22447869.328                    22447877.105
 11  7 27  2 27  0.0000000  0  8G12G25G10G09G17G02G05G04
 109792710.839 7  85552853.67746  20892863.555                    20892870.063
 121296022.541 7  94516454.76445  23081869.492                    23081879.672
 110408059.255 8  86032367.01346  21009949.961                    21009956.793
 129562277.040 6 100957704.73143  24654898.766                    24654908.488
 125391211.661 7  97707545.09644  23861132.758                    23861140.121
 108430818.872 8  84491647.83346  20633678.672                    20633683.762
 111411641.027 8  86814332.34146  21200919.891                    21200927.555
 118046207.611 7  91984164.22145  22463431.945                    22463439.910
 11  7 27  2 27 30.0000000  0  8G12G25G10G09G17G02G05G04
 109764436.125 8  85530821.46146  20887482.813                    20887489.629
 121211667.725 7  94450723.78444  23065817.039                    23065827.625
 110438278.779 7  86055914.71046  21015700.563                    21015707.609
 129646867.227 6 101023619.09043  24670994.836                    24671005.965
 125456755.202 7  97758617.99544  23873604.063                    23873613.301
 108444713.393 8  84502474.73446  20636322.766                    20636327.250
 111340827.051 8  86759152.66446  21187443.930                    21187451.336
 118128047.514 7  92047935.56844  22479005.578                    22479013.195
 11  7 27  2 28  0.0000000  0  8G12G25G10G09G17G02G05G04
 109736710.034 8  85509216.73846  20882206.898                    20882213.703
 121127647.732 7  94385253.66444  23049828.602                    23049839.199
 110469107.680 7  86079937.25546  21021566.828                    21021574.254
 129731426.677 6 101089509.48443  24687086.961                    24687096.535
 125522475.308 6  97809828.42444  23886110.563                    23886118.707
 108458843.033 8  84513484.85546  20639011.680                    20639016.695
 111270456.797 8  86704318.73946  21174052.914                    21174060.617
 118209943.054 7  92111750.27344  22494589.594                    22494597.621
 11  7 27  2 28 30.0000000  0  8G12G25G10G09G17G02G05G04
 109709534.422 8  85488040.96846  20877035.344                    20877042.039
 121043965.277 7  94320046.56744  23033904.922                    23033915.191
 110500544.813 7  86104433.74746  21027549.148                    21027556.367
 129815952.402 6 101155373.63343  24703170.938                    24703181.707
 125588372.210 6  97861176.65944  23898650.094                    23898658.246
 108473206.634 8  84524677.26846  20641744.734                    20641750.043
 111200532.809 8  86649832.54846  21160747.336                    21160754.473
 118291892.980 7  92175607.36244  22510183.813                    22510192.375
 11  7 27  2 29  0.0000000  0  8G12G25G10G09G17G02G05G04
 109682909.798 8  85467294.54046  20871968.820                    20871975.320
 120960622.814 7  94255104.40045  23018045.289                    23018055.820
 110532588.917 8  86129403.18646  21033646.938                    21033654.766
 129900441.368 6 101221209.12243  24719249.672                    24719259.480
 125654445.903 6  97912662.66044  23911224.164                    23911231.164
 108487802.848 8  84536050.94946  20644522.531                    20644527.410
 111131057.261 8  86595695.79446  21147526.297                    21147533.727
 118373895.545 7  92239505.47244  22525788.953                    22525796.445
 11  7 27  2 29 30.0000000  0  8G12G25G10G09G17G02G05G04
 109656838.019 8  85446978.90446  20867007.297                    20867014.215
 120877623.196 7  94190429.37044  23002250.938                    23002261.539
 110565239.119 7  86154844.91246  21039860.273                    21039867.227
 129984890.786 6 101287013.77443  24735319.500                    24735330.074
 125720696.556 6  97964286.58143  23923830.688                    23923836.813
 108502630.815 8  84547605.22646  20647344.016                    20647348.914
 111062032.628 8  86541910.40846  21134391.531                    21134398.457
 118455949.401 7  92303443.55944  22541402.492                    22541410.895
 11  7 27  2 30  0.0000000  0  8G12G25G10G09G17G02G05G04
 109631319.786 8  85427094.59446  20862151.516                    20862157.898
 120794968.691 7  94126023.26545  22986521.906                    22986532.309
 110598493.631 7  86180757.53346  21046188.148                    21046195.457
 130069297.506 6 101352785.17044  24751381.297                    24751392.004
 125787124.362 6  98016048.50744  23936471.719                    23936479.469
 108517689.265 8  84559339.10246  20650209.711                    20650214.238
 110993460.712 8  86488477.78146  21121342.422                    21121349.797
 118538053.039 7  92367420.42944  22557027.023                    22557034.785
 11  7 27  2 30 30.0000000  0  8G12G25G10G09G17G02G05G04
 109606356.496 8  85407642.70046  20857401.117                    20857407.621
 120712662.150 7  94061888.27245  22970860.164                    22970869.645
 110632351.305 7  86207140.14846  21052631.219                    21052638.324
 130153658.517 6 101418520.95643  24767434.406                    24767445.129
 125853729.478 6  98067948.59344  23949146.320                    23949154.328
 108532977.184 8  84571251.77746  20653118.703                    20653124.047
 110925344.369 8  86435400.15246  21108380.695                    21108388.113
 118620205.104 7  92431435.03044  22572659.633                    22572667.738
 11  7 27  2 31  0.0000000  0  8G12G25G10G09G17G02G05G04
 109581949.637 8  85388624.39246  20852756.672                    20852762.875
 120630706.281 7  93998026.54445  22955265.063                    22955274.402
 110666810.828 7  86233991.74846  21059188.508                    21059195.238
 130237970.649 6 101484218.65143  24783478.992                    24783489.301
 125920512.227 6  98119987.05944  23961854.320                    23961862.582
 108548493.562 8  84583342.47646  20656071.398                    20656076.254
 110857685.674 8  86382679.12446  21095505.242                    21095512.438
 118702404.307 7  92495486.36144  22588302.039                    22588310.016
 11  7 27  2 31 30.0000000  0  8G12G25G10G09G17G02G05G04
 109558100.242 8  85370040.47746  20848218.141                    20848224.465
 120549103.484 7  93934439.93245  22939736.102                    22939746.527
 110701871.141 8  86261311.48446  21065860.477                    21065867.352
 130322230.747 6 101549875.82543  24799512.953                    24799523.121
 125987472.636 7  98172164.01844  23974596.820                    23974604.797
 108564236.732 8  84595609.89546  20659067.141                    20659072.293
 110790486.763 8  86330316.38046  21082717.969                    21082725.129
 118784649.049 7  92559573.16644  22603952.766                    22603960.570
 11  7 27  2 32  0.0000000  0  8G12G25G10G09G17G02G05G04
 109534809.755 8  85351892.06346  20843786.180                    20843792.832
 120467856.633 7  93871130.71245  22924274.633                    22924285.406
 110737530.757 7  86289098.22146  21072646.023                    21072653.383
 130406436.103 6 101615490.31843  24815536.500                    24815547.301
 126054611.022 6  98224479.60944  23987372.086                    23987381.355
 108580206.305 8  84608053.73946  20662106.148                    20662111.418
 110723749.993 8  86278313.73046  21070018.148                    21070025.277
 118866938.006 7  92623694.42644  22619611.547                    22619619.590
 11  7 27  2 32 30.0000000  0  8G12G25G10G09G17G02G05G04
 109512078.788 8  85334179.64046  20839460.508                    20839467.039
 120386967.844 7  93808100.51345  22908882.203                    22908892.680
 110773787.787 8  86317350.46746  21079545.711                    21079552.875
 130490583.643 6 101681059.76243  24831549.461                    24831560.695
 126121927.117 7  98276933.69844  24000183.563                    24000190.625
 108596400.338 8  84620672.49646  20665187.680                    20665193.012
 110657477.332 8  86226672.73646  21057406.688                    21057414.199
 118949269.817 7  92687849.10044  22635279.008                    22635286.984
 11  7 27  2 33  0.0000000  0  8G12G25G10G09G17G02G05G04
 109489908.533 8  85316904.13846  20835241.695                    20835248.676
 120306439.991 7  93745351.54945  22893558.688                    22893568.129
 110810641.046 8  86346067.30746  21086558.586                    21086565.590
 130574670.348 6 101746581.70843  24847549.383                    24847561.438
 126189421.205 6  98329526.52643  24013025.727                    24013034.309
 108612818.012 8  84633465.50446  20668312.172                    20668316.891
 110591670.925 8  86175395.05446  21044884.156                    21044890.840
 119031642.926 7  92752035.93744  22650954.172                    22650961.969
 11  7 27  2 33 30.0000000  0  7G12G25G10G17G02G05G04
 109468302.320 8  85300068.14546  20831130.133                    20831137.055
 120226277.721 7  93682887.46845  22878304.570                    22878313.824
 110848091.372 8  86375249.40346  21093685.250                    21093692.656
 126257095.575 6  98382259.79143  24025904.078                    24025911.555
 108629460.375 8  84646433.59346  20671478.648                    20671483.691
 110526334.965 8  86124483.96046  21032451.219                    21032458.547
 119114058.078 7  92816255.54344  22666637.086                    22666644.930
 11  7 27  2 34  0.0000000  0  7G12G25G10G17G02G05G04
 109447258.897 8  85283670.69646  20827125.883                    20827132.480
 120146481.317 7  93620708.47645  22863119.523                    22863129.129
 110886134.843 8  86404893.67746  21100924.422                    21100931.945
 126324947.919 6  98435131.77343  24038815.344                    24038823.051
 108646323.793 8  84659573.93646  20674687.602                    20674692.465
 110461469.491 8  86073939.47046  21020107.602                    21020115.152
 119196511.830 7  92880505.22644  22682327.875                    22682335.535
 11  7 27  2 34 30.0000000  0  7G12G25G10G17G02G05G04
 109426779.465 8  85267712.71946  20823228.555                    20823235.445
 120067053.242 7  93558816.49345  22848004.594                    22848014.156
 110924769.826 8  86434998.87846  21108276.750                    21108283.863
 126392978.441 6  98488142.53643  24051762.000                    24051768.863
 108663407.403 8  84672885.87246  20677938.563                    20677943.516
 110397076.612 8  86023763.23146  21007854.031                    21007861.230
 119279002.649 7  92944783.79144  22698024.781                    22698032.797
 11  7 27  2 35  0.0000000  0  7G12G25G10G17G02G05G04
 109406864.640 8  85252194.69446  20819438.969                    20819445.734
 119987996.120 7  93497213.58045  22832960.641                    22832970.957
 110963994.897 8  86465563.88846  21115740.766                    21115748.078
 126461187.212 6  98541292.24443  24064741.969                    24064749.176
 108680710.040 8  84686368.47346  20681231.250                    20681235.754
 110333158.346 8  85973956.83546  20995690.711                    20995698.242
 119361529.225 7  93009090.22944  22713729.156                    22713737.363
 11  7 27  2 35 30.0000000  0  7G12G25G10G17G02G05G04
 109387515.673 8  85237117.60146  20815757.164                    20815763.906
 119909312.626 7  93435901.81545  22817987.539                    22817997.547
 111003808.654 8  86496587.59946  21123316.945                    21123323.871
 126529574.347 6  98594580.94744  24077756.203                    24077762.977
 108698230.601 8  84700020.88846  20684565.000                    20684570.059
 110269717.045 8  85924522.10346  20983618.430                    20983625.656
 119444090.222 7  93073423.48844  22729440.328                    22729448.055
 11  7 27  2 36  0.0000000  0  7G12G25G10G17G02G05G04
 109368733.280 8  85222481.98946  20812182.961                    20812189.281
 119831004.979 7  93374882.89545  22803086.227                    22803096.160
 111044209.204 8  86528068.55646  21131005.172                    21131012.371
 126598139.906 6  98648008.67644  24090803.102                    24090810.449
 108715967.497 8  84713841.86946  20687940.438                    20687945.066
 110206754.318 8  85875460.27646  20971637.070                    20971644.043
 119526684.338 7  93137782.54944  22745157.195                    22745165.285
 11  7 27  2 36 30.0000000  0  7G12G25G10G17G02G05G04
 109350518.894 8  85208288.97746  20808716.852                    20808723.832
 119753075.968 7  93314159.02845  22788257.094                    22788266.871
 111085195.271 8  86560005.76946  21138804.055                    21138811.930
 126666884.079 6  98701575.55343  24103884.133                    24103892.223
 108733920.110 8  84727830.94146  20691356.711                    20691361.406
 110144272.318 8  85826773.04346  20959747.141                    20959754.129
 119609310.240 7  93202166.38744  22760880.063                    22760887.996
 11  7 27  2 37  0.0000000  0  7G12G25G10G17G02G05G04
 109332872.954 8  85194538.92446  20805358.703                    20805364.961
 119675528.067 7  93253732.12045  22773499.734                    22773509.574
 111126765.160 8  86592397.90646  21146714.844                    21146721.824
 126735807.023 6  98755281.74643  24116999.750                    24117007.238
 108752087.175 8  84741987.11346  20694813.820                    20694818.605
 110082273.311 8  85778462.16546  20947949.414                    20947955.879
 119691966.612 7  93266573.96244  22776609.820                    22776617.410
 11  7 27  2 37 30.0000000  0  7G12G25G10G17G02G05G04
 109315797.144 8  85181233.11746  20802109.273                    20802115.863
 119598364.148 7  93193604.42345  22758815.836                    22758825.563
 111168917.560 8  86625243.95346  21154736.328                    21154743.176
 126804908.743 6  98809127.19843  24130148.875                    24130157.852
 108770467.941 8  84756309.80646  20698311.625                    20698316.262
 110020759.633 8  85730529.47346  20936243.281                    20936250.320
 119774652.587 7  93331004.58144  22792343.734                    22792351.988
 11  7 27  2 38  0.0000000  0  7G12G25G10G17G02G05G04
 109299291.683 8  85168371.74546  20798968.391                    20798975.184
 119521586.490 7  93133777.70545  22744205.813                    22744215.516
 111211650.325 8  86658542.22646  21162868.398                    21162875.488
 126874189.122 6  98863111.90343  24143333.148                    24143341.547
 108789060.915 8  84770797.86346  20701849.469                    20701854.551
 109959733.201 8  85682976.44646  20924630.234                    20924637.273
 119857366.544 7  93395456.99144  22808084.117                    22808091.805
 11  7 27  2 38 30.0000000  0  7G12G25G10G17G02G05G04
 109283357.555 8  85155955.56146  20795936.477                    20795943.141
 119445197.602 8  93074253.95145  22729669.344                    22729679.301
 111254962.221 8  86692291.77546  21171109.977                    21171117.156
 126943648.522 6  98917236.13243  24156551.523                    24156559.188
 108807864.994 8  84785450.42246  20705427.805                    20705432.910
 109899195.572 8  85635804.30246  20913110.391                    20913117.738
 119940107.334 7  93459930.31844  22823828.672                    22823836.602
 11  7 27  2 39  0.0000000  0  7G12G25G10G17G02G05G04
 109267996.081 8  85143985.59446  20793012.969                    20793019.555
 119369200.254 8  93015035.29445  22715207.336                    22715217.582
 111298851.647 8  86726491.34146  21179461.719                    21179468.863
 127013287.033 6  98971499.92544  24169802.672                    24169810.391
 108826879.623 8  84800267.03846  20709045.820                    20709051.059
 109839149.327 8  85589015.06046  20901683.688                    20901690.906
 120022873.807 7  93524423.67244  22839578.727                    22839586.637
 11  7 27  2 39 30.0000000  0  7G12G25G10G17G02G05G04
 109253207.488 8  85132462.03346  20790199.156                    20790205.527
 119293596.497 7  92956123.34045  22700820.539                    22700830.543
 111343316.310 8  86761139.15046  21187923.289                    21187930.586
 127083104.427 6  99025903.07843  24183088.625                    24183097.602
 108846103.037 8  84815246.34346  20712704.078                    20712708.988
 109779595.571 8  85542609.56646  20890351.227                    20890358.137
 120105664.461 7  93588935.85744  22855332.938                    22855341.750
 11  7 27  2 40  0.0000000  0  7G12G25G10G17G02G05G04
 109238992.457 8  85121385.41246  20787493.758                    20787500.320
 119218388.827 7  92897520.04545  22686508.914                    22686518.844
 111388354.501 8  86796233.87245  21196493.570                    21196500.820
 127153100.732 6  99080445.65943  24196408.922                    24196416.563
 108865533.810 8  84830387.23046  20716401.648                    20716406.281
 109720536.455 8  85496589.51646  20879112.453                    20879119.352
 120188477.855 7  93653465.72644  22871092.727                    22871100.406
 11  7 27  2 40 30.0000000  0  7G12G25G10G17G02G05G04
 109225352.271 8  85110756.71146  20784898.164                    20784904.758
 119143580.170 7  92839227.65245  22672273.398                    22672282.867
 111433964.881 8  86831774.44045  21205173.297                    21205180.340
 127223276.167 6  99135127.81743  24209761.828                    24209770.199
 108885171.824 8  84845689.60046  20720138.508                    20720143.320
 109661974.712 8  85450957.02046  20867968.703                    20867975.430
 120271313.354 7  93718012.83544  22886855.414                    22886863.879
 11  7 27  2 41  0.0000000  0  7G12G25G10G17G02G05G04
 109212287.755 8  85100576.58346  20782412.000                    20782418.574
 119069173.038 7  92781248.15245  22658113.742                    22658123.375
 111480145.911 8  86867759.67845  21213961.266                    21213967.895
 127293630.805 6  99189949.63143  24223150.758                    24223158.234
 108905015.885 8  84861152.51846  20723914.773                    20723919.816
 109603911.981 8  85405713.36746  20856919.398                    20856926.547
 120354169.839 7  93782576.31644  22902622.563                    22902630.711
 11  7 27  2 41 30.0000000  0  7G12G25G10G17G02G05G04
 109199799.036 8  85090845.12146  20780035.594                    20780042.316
 118995169.307 7  92723582.98745  22644031.320                    22644041.426
 111526894.870 8  86904187.46446  21222856.953                    21222864.008
 127364164.344 7  99244910.84543  24236572.570                    24236580.266
 108925064.160 7  84876774.56546  20727729.781                    20727734.949
 109546349.559 8  85360859.55846  20845965.883                    20845972.867
 120437045.585 7  93847154.77944  22918392.836                    22918401.461
 11  7 27  2 42  0.0000000  0  7G12G25G10G17G02G05G04
 109187887.414 8  85081563.35546  20777768.891                    20777775.301
 118921572.020 7  92666234.54245  22630026.773                    22630036.188
 111574210.604 7  86941056.87845  21231860.930                    21231868.156
 127434877.114 6  99300011.72443  24250028.430                    24250036.336
 108945316.318 7  84892555.47746  20731583.898                    20731589.082
 109489289.660 7  85316397.33946  20835107.500                    20835114.367
 120519939.604 7  93911747.49844  22934167.180                    22934175.789
 11  7 27  2 42 30.0000000  0  8G12G25G10G29G17G02G05G04
 109176553.209 8  85072731.52646  20775612.039                    20775618.844
 118848383.356 7  92609204.50345  22616098.813                    22616108.777
 111622091.053 7  86978366.34045  21240972.188                    21240979.395
 129536980.82116 100937961.81752  24650073.805                    24650082.023
 127505768.856 6  99355252.06843  24263518.125                    24263526.781
 108965770.972 8  84908494.18646  20735476.563                    20735481.227
 109432734.127 8  85272328.12646  20824345.531                    20824352.246
 120602850.881 7  93976353.64544  22949945.359                    22949953.516
 11  7 27  2 43  0.0000000  0  8G12G25G10G29G17G02G05G04
 109165797.560 8  85064350.51246  20773565.305                    20773571.906
 118775605.914 7  92552494.88945  22602249.602                    22602259.453
 111670534.603 7  87016114.58445  21250190.500                    21250197.414
 129456844.263 6 100875517.79243  24634824.406                    24634833.035
 127576839.964 6  99410632.18143  24277043.305                    24277051.961
 108986427.094 8  84924589.87646  20739407.141                    20739412.098
 109376684.744 8  85228653.32846  20813679.258                    20813686.348
 120685778.181 7  94040972.30844  22965725.766                    22965734.008
 11  7 27  2 43 30.0000000  0  8G12G25G10G29G17G02G05G04
 109155620.395 8  85056420.26846  20771628.664                    20771635.004
 118703241.795 7  92496107.34845  22588479.016                    22588489.426
 111719538.542 7  87054299.49445  21259515.570                    21259522.434
 129376639.062 6 100813020.33643  24619562.219                    24619570.504
 127648090.097 6  99466151.79243  24290601.336                    24290609.879
 109007283.434 8  84940841.58246  20743375.930                    20743380.688
 109321143.053 8  85185374.12146  20803110.555                    20803117.246
 120768720.152 6  94105602.39944  22981509.102                    22981516.828
 11  7 27  2 44  0.0000000  0  8G12G25G10G29G17G02G05G04
 109146022.076 8  85048941.06546  20769802.242                    20769808.848
 118631293.428 7  92440043.77145  22574787.664                    22574797.406
 111769101.283 7  87092919.81345  21268947.313                    21268954.594
 129296365.796 6 100750469.78543  24604286.805                    24604295.074
 127719519.043 6  99521810.72643  24304193.023                    24304201.637
 109028338.745 8  84957248.33446  20747382.438                    20747386.965
 109266110.797 7  85142491.88046  20792637.883                    20792644.602
 120851675.438 7  94170242.87344  22997294.891                    22997302.914
 11  7 27  2 44 30.0000000  0  8G12G25G10G29G17G02G05G04
 109137003.524 8  85041913.63146  20768085.945                    20768092.480
 118559763.237 7  92384306.03945  22561175.578                    22561185.727
 111819220.857 7  87131974.04245  21278484.883                    21278491.879
 129216024.588 6 100687866.29744  24588998.328                    24589007.336
 127791127.016 6  99577609.13743  24317819.820                    24317828.777
 109049591.811 8  84973809.17546  20751426.875                    20751431.070
 109211590.077 8  85100008.24146  20782263.039                    20782270.281
 120934643.072 6  94234892.96244  23013083.109                    23013091.328
 11  7 27  2 45  0.0000000  0  8G12G25G10G29G17G02G05G04
 109128565.262 8  85035338.36346  20766480.141                    20766486.785
 118488653.695 7  92328896.08645  22547644.328                    22547654.473
 111869895.380 8  87171460.68345  21288127.414                    21288134.883
 129135616.297 6 100625210.54844  24573697.063                    24573706.703
 127862913.806 6  99633546.90643  24331481.148                    24331489.441
 109071041.922 8  84990523.56146  20755508.594                    20755513.508
 109157582.456 7  85057924.42046  20771985.688                    20771992.938
 121017622.140 7  94299551.94944  23028873.297                    23028881.887
 11  7 27  2 45 30.0000000  0  8G12G25G10G29G17G02G05G04
 109120707.930 8  85029215.78446  20764985.086                    20764991.664
 118417967.367 7  92273815.88645  22534192.938                    22534202.660
 111921123.282 7  87211378.53445  21297876.016                    21297883.238
 129055141.681 6 100562503.11544  24558383.695                    24558392.180
 127934879.604 6  99689624.20243  24345176.047                    24345183.344
 109092688.283 8  85007390.87146  20759627.727                    20759632.508
 109104089.868 8  85016241.91746  20761806.039                    20761813.441
 121100611.403 7  94364218.90344  23044666.070                    23044674.117
 11  7 27  2 46  0.0000000  0  8G12G25G10G29G17G02G05G04
 109113432.099 8  85023546.31046  20763600.023                    20763606.828
 118347706.326 7  92219067.08045  22520822.883                    22520832.434
 111972901.906 8  87251725.51445  21307729.250                    21307736.445
 128974600.942 6 100499744.16144  24543057.344                    24543066.199
 128007024.061 6  99745840.63543  24358905.047                    24358911.512
 109114529.290 8  85024409.85046  20763784.070                    20763788.445
 109051113.751 8  84974961.85646  20751725.281                    20751732.250
 121183609.582 7  94428892.78344  23060459.719                    23060467.801
 11  7 27  2 46 30.0000000  0  8G12G25G10G29G17G02G05G04
 109106737.931 8  85018330.07846  20762326.727                    20762333.441
 118277873.123 7  92164651.67145  22507533.891                    22507544.234
 112025229.417 8  87292500.19545  21317686.672                    21317693.672
 128893994.643 7 100436934.13844  24527718.844                    24527727.348
 128079347.342 6  99802196.46643  24372666.703                    24372673.996
 109136564.165 8  85041579.89246  20767977.188                    20767981.824
 108998655.604 8  84934085.41046  20741743.164                    20741750.059
 121266615.684 7  94493572.85344  23076255.273                    23076263.578
 11  7 27  2 47  0.0000000  0  8G12G25G10G29G17G02G05G04
 109100626.465 8  85013567.90846  20761163.680                    20761170.152
 118208470.275 7  92110571.58245  22494326.633                    22494336.836
 112078103.986 7  87333701.15445  21327748.414                    21327755.367
 128813323.214 6 100374073.32644  24512366.430                    24512375.844
 128151849.527 5  99858691.69943  24386462.305                    24386470.883
 109158792.158 8  85058900.41446  20772206.898                    20772211.637
 108946717.596 8  84893614.27546  20731859.477                    20731866.684
 121349628.939 7  94558258.50444  23092052.117                    23092060.004
 11  7 27  2 47 30.0000000  0  8G12G25G10G29G17G02G05G04
 109095097.603 8  85009259.71846  20760111.555                    20760117.613
 118139499.675 7  92056828.30845  22481201.703                    22481212.289
 112131523.229 7  87375326.55145  21337913.719                    21337920.477
 128732587.537 6 100311162.48743  24497002.328                    24497012.250
 128224530.148 6  99915325.93243  24400294.695                    24400301.137
 109181211.660 7  85076370.17246  20776473.063                    20776477.969
 108895300.905 8  84853549.36246  20722074.844                    20722081.953
 121432647.803 6  94622948.54344  23107850.094                    23107858.063
 11  7 27  2 48  0.0000000  0  8G12G25G10G29G17G02G05G04
 109090151.580 8  85005405.68246  20759170.313                    20759176.914
 118070963.821 7  92003423.79845  22468160.047                    22468170.395
 112185485.315 7  87417374.93845  21348182.531                    21348189.516
 128651788.237 6 100248202.05443  24481627.438                    24481635.949
 128297389.175 5  99972099.17943  24414159.023                    24414166.348
 109203821.653 8  85093988.36546  20780775.844                    20780780.250
 108844407.231 8  84813891.97946  20712390.469                    20712397.254
 121515671.134 6  94687642.06244  23123648.898                    23123656.609
 11  7 27  2 48 30.0000000  0  8G12G25G10G29G17G02G05G04
 109085788.971 8  85002006.25046  20758340.266                    20758346.766
 118002865.273 7  91950360.03245  22455201.359                    22455211.297
 112239988.552 7  87459844.99545  21358554.031                    21358561.109
 128570925.985 6 100185192.57843  24466239.063                    24466247.824
 128370426.700 6 100029011.49043  24428057.055                    24428065.094
 109226621.393 8  85111754.41546  20785114.359                    20785118.902
 108794038.545 8  84774643.68646  20702805.672                    20702812.395
 121598698.248 6  94752338.49944  23139448.891                    23139456.469
 11  7 27  2 49  0.0000000  0  8G12G25G10G29G17G02G05G04
 109082010.108 7  84999061.69446  20757620.719                    20757627.359
 117935206.202 7  91897638.69345  22442326.398                    22442336.074
 112295030.388 7  87502734.73845  21369028.078                    21369035.203
 128490001.118 6 100122134.30543  24450840.234                    24450848.043
 128443642.559 6 100086062.85943  24441990.133                    24441997.617
 109249609.763 8  85129667.45246  20789488.750                    20789493.617
 108744196.022 8  84735805.38546  20693320.906                    20693327.605
 121681728.117 7  94817037.11444  23155249.023                    23155256.125
 11  7 27  2 49 30.0000000  0  8G12G25G10G29G17G02G05G04
 109078815.428 8  84996572.34146  20757012.977                    20757019.430
 117867988.887 7  91845261.60745  22429535.273                    22429545.133
 112350608.365 7  87546042.25445  21379604.781                    21379611.461
 128409014.185 6 100059027.71843  24435428.828                    24435436.859
 128517036.741 5 100143253.09043  24455955.867                    24455964.133
 109272785.729 8  85147726.65946  20793899.000                    20793903.891
 108694881.176 8  84697378.25746  20683936.234                    20683943.289
 121764759.461 7  94881736.89244  23171048.516                    23171056.645
 11  7 27  2 50  0.0000000  0  8G12G25G10G29G17G02G05G04
 109076204.874 8  84994538.14646  20756516.500                    20756522.902
 117801215.457 7  91793230.38245  22416828.570                    22416838.234
 112406720.405 7  87589765.93045  21390282.336                    21390288.914
 128327966.003 5  99995873.35643  24420004.406                    24420013.680
 128590608.759 6 100200581.90743  24469957.016                    24469964.742
 109296147.989 8  85165931.03646  20798344.578                    20798349.352
 108646095.590 8  84659363.54246  20674652.711                    20674659.641
 121847791.208 7  94946436.95944  23186849.547                    23186857.684
 11  7 27  2 50 30.0000000  0  8G12G25G10G29G17G02G05G04
 109074178.963 8  84992959.52446  20756130.719                    20756136.914
 117734888.411 7  91741546.99945  22404207.297                    22404216.840
 112463364.732 7  87633904.37945  21401060.953                    21401068.402
 128246857.228 5  99932671.82742  24404570.328                    24404579.164
 128664358.706 6 100258049.37743  24483991.633                    24483999.059
 109319695.742 8  85184279.94546  20802825.625                    20802830.453
 108597840.840 8  84621762.47646  20665470.086                    20665477.172
 121930822.430 7  95011136.63444  23202649.820                    23202658.266
 11  7 27  2 51  0.0000000  0  8G12G25G10G29G17G02G05G04
 109072738.440 8  84991837.04446  20755856.766                    20755863.023
 117669010.034 7  91690213.22445  22391670.609                    22391680.594
 112520539.298 7  87678455.99645  21411941.172                    21411948.043
 128165688.441 6  99869423.51643  24389125.164                    24389133.387
 128738286.469 6 100315655.45943  24498059.313                    24498066.391
 109343427.991 8  85202772.62546  20807341.883                    20807346.598
 108550118.772 8  84584576.47046  20656389.078                    20656395.699
 122013852.275 7  95075835.21944  23218449.648                    23218457.672
 11  7 27  2 51 30.0000000  0  8G12G25G10G29G17G02G05G04
 109071882.611 8  84991170.17846  20755693.883                    20755700.348
 117603582.509 7  91639230.76145  22379220.172                    22379230.129
 112578241.734 7  87723418.93945  21422921.617                    21422927.930
 128084460.394 6  99806128.94243  24373667.359                    24373676.352
 128812391.996 6 100373400.01143  24512161.422                    24512168.434
 109367343.742 8  85221408.29146  20811892.844                    20811897.484
 108502930.378 8  84547806.32246  20647409.234                    20647416.219
 122096879.586 7  95140531.82844  23234248.914                    23234257.270
 11  7 27  2 52  0.0000000  0  7G12G25G10G29G02G05G04
 109071612.334 8  84990959.57146  20755642.078                    20755648.941
 117538608.521 7  91588601.69645  22366855.938                    22366865.570
 112636470.018 7  87768791.64245  21434001.805                    21434008.852
 128003173.843 6  99742788.89743  24358198.859                    24358207.398
 109391442.185 8  85240186.31646  20816478.609                    20816483.605
 108456277.633 8  84511453.56446  20638531.258                    20638538.492
 122179903.733 7  95205225.98644  23250048.539                    23250056.918
 11  7 27  2 52 30.0000000  0  7G12G25G10G29G02G05G04
 109071927.615 8  84991205.25246  20755702.375                    20755708.742
 117474089.927 7  91538327.49245  22354578.539                    22354588.262
 112695221.478 7  87814572.01145  21445181.875                    21445188.766
 127921829.336 6  99679403.68043  24342720.688                    24342728.266
 109415722.306 8  85259105.90246  20821098.883                    20821103.633
 108410161.600 8  84475519.01546  20629755.867                    20629762.824
 122262923.452 7  95269916.68544  23265846.016                    23265854.520
 11  7 27  2 53  0.0000000  0  7G12G25G10G29G02G05G04
 109072828.156 8  84991906.97446  20755873.656                    20755880.055
 117410028.435 7  91488409.45845  22342388.328                    22342397.941
 112754493.448 7  87860757.96645  21456461.125                    21456468.121
 127840426.983 7  99615973.37843  24327229.945                    24327237.988
 109440182.234 8  85278165.59746  20825753.578                    20825758.070
 108364583.263 8  84440003.45546  20621082.250                    20621089.297
 122345937.430 7  95334602.90644  23281643.430                    23281651.070
 11  7 27  2 53 30.0000000  0  7G12G25G10G29G02G05G04
 109074314.065 7  84993064.81346  20756156.617                    20756163.211
 117346426.336 7  91438849.40345  22330285.328                    22330295.156
 112814283.844 7  87907347.89545  21467838.672                    21467845.801
 127758967.644 6  99552498.65644  24311728.547                    24311736.695
 109464820.960 8  85297364.61546  20830441.984                    20830446.781
 108319543.848 8  84404907.84046  20612511.961                    20612518.586
 122428944.528 6  95399283.79044  23297439.359                    23297446.656
 11  7 27  2 54  0.0000000  0  7G12G25G10G29G02G05G04
 109076385.823 8  84994679.18046  20756550.898                    20756557.461
 117283286.240 7  91389649.36645  22318270.055                    22318280.180
 112874590.756 7  87954340.30945  21479315.242                    21479321.949
 127677452.438 6  99488980.39844  24296216.836                    24296225.074
 109489638.317 8  85316702.82846  20835164.211                    20835169.270
 108275045.266 8  84370233.64646  20604044.156                    20604051.168
 122511944.322 7  95463958.97744  23313233.766                    23313240.738
 11  7 27  2 54 30.0000000  0  7G12G25G10G29G02G05G04
 109079043.150 8  84996749.82446  20757056.313                    20757063.238
 117220610.068 7  91340810.82245  22306342.727                    22306352.703
 112935411.731 7  88001733.29745  21490888.711                    21490895.320
 127595881.652 6  99425418.83944  24280694.031                    24280702.566
 109514632.890 8  85336179.13446  20839920.828                    20839925.645
 108231088.653 8  84335981.76346  20595679.281                    20595685.922
 122594935.676 7  95528627.59444  23329025.781                    23329033.824
 11  7 27  2 55  0.0000000  0  7G12G25G10G29G02G05G04
 109082286.708 8  84999277.26546  20757673.844                    20757680.262
 117158400.632 7  91292335.97745  22294504.906                    22294514.563
 112996744.983 7  88049525.46045  21502559.977                    21502566.832
 127514256.349 6  99361814.77144  24265160.680                    24265170.535
 109539804.422 8  85355793.32246  20844710.664                    20844715.918
 108187675.856 8  84302153.63446  20587418.086                    20587425.301
 122677918.196 7  95593289.29543  23344817.086                    23344824.637
 11  7 27  2 55 30.0000000  0  7G12G25G10G29G02G05G04
 109086115.458 8  85002260.69646  20758402.195                    20758408.629
 117096659.058 7  91244225.70645  22282755.422                    22282765.535
 113058587.141 7  88097714.15845  21514328.172                    21514334.727
 127432576.997 6  99298168.58544  24249617.984                    24249627.082
 109565150.774 8  85375543.73746  20849534.008                    20849538.859
 108144807.325 8  84268749.61546  20579260.617                    20579267.422
 122760890.090 7  95657942.75944  23360606.406                    23360613.090
 11  7 27  2 56  0.0000000  0  7G12G25G10G29G02G05G04
 109090529.886 8  85005700.50746  20759242.125                    20759248.574
 117035387.864 7  91196481.96745  22271096.266                    22271105.938
 113120936.303 7  88146297.94445  21526192.695                    21526199.488
 127350844.223 6  99234480.75344  24234064.859                    24234074.090
 109590671.287 8  85395429.86546  20854390.250                    20854395.133
 108102484.619 8  84235770.90546  20571206.719                    20571213.465
 122843850.731 6  95722587.41444  23376392.836                    23376400.238
 11  7 27  2 56 30.0000000  0  7G12G25G10G29G02G05G04
 109095529.679 8  85009596.43946  20760193.359                    20760200.055
 116974589.155 7  91149106.39145  22259526.477                    22259536.383
 113183790.107 7  88195274.95645  21538153.352                    21538160.254
 127269058.944 6  99170752.02443  24218501.203                    24218509.777
 109616365.075 8  85415451.01246  20859279.852                    20859284.641
 108060708.931 8  84203218.45046  20563256.891                    20563264.016
 122926799.283 7  95787222.65244  23392176.711                    23392185.586
 11  7 27  2 57  0.0000000  0  7G12G25G10G29G02G05G04
 109101115.702 8  85013949.17846  20761256.664                    20761263.016
 116914265.427 8  91102100.94545  22248047.141                    22248057.340
 113247146.648 7  88244643.70145  21550209.633                    21550216.629
 127187222.326 6  99106983.28143  24202928.547                    24202937.305
 109642231.756 8  85435606.88446  20864202.258                    20864207.098
 108019481.842 8  84171093.46846  20555411.969                    20555418.563
 123009735.197 6  95851848.04644  23407959.773                    23407967.809
 11  7 27  2 57 30.0000000  0  7G12G25G10G29G02G05G04
 109107287.019 8  85018757.99346  20762430.984                    20762437.598
 116854418.406 8  91055466.93645  22236658.531                    22236668.543
 113311002.987 7  88294401.90845  21562361.031                    21562368.012
 127105334.697 6  99043174.79243  24187345.555                    24187354.508
 109668269.732 8  85455896.23046  20869156.945                    20869161.723
 107978804.125 8  84139396.57146  20547671.117                    20547678.039
 123092657.108 6  95916462.53544  23423739.125                    23423747.410
 11  7 27  2 58  0.0000000  0  7G12G25G10G29G02G05G04
 109114043.598 8  85024022.85546  20763716.516                    20763723.188
 116795050.182 8  91009206.04345  22225360.742                    22225370.887
 113375356.663 7  88344547.64345  21574607.375                    21574613.992
 127023396.733 6  98979327.08343  24171753.406                    24171762.324
 109694478.124 8  85476318.37146  20874144.359                    20874148.566
 107938677.221 8  84108128.87746  20540035.375                    20540041.773
 123175564.255 6  95981065.49444  23439516.156                    23439523.895
 11  7 27  2 58 30.0000000  0  7G12G25G10G29G02G05G04
 109121384.889 8  85029743.33446  20765113.492                    20765120.078
 116736162.396 8  90963319.49945  22214155.648                    22214165.383
 113440204.789 7  88395078.67045  21586947.078                    21586954.531
 126941408.882 6  98915440.47544  24156151.641                    24156160.715
 109720855.359 8  85496872.07546  20879163.984                    20879168.516
 107899101.741 8  84077290.86546  20532504.094                    20532510.965
 123258455.455 6  96045656.07444  23455289.570                    23455297.832
 11  7 27  2 59  0.0000000  0  7G12G25G10G29G02G05G04
 109129311.655 8  85035920.02346  20766621.953                    20766628.828
 116677757.833 8  90917809.49145  22203041.438                    22203051.191
 113505545.904 7  88445993.82445  21599381.313                    21599388.398
 126859372.774 6  98851516.25843  24140540.750                    24140549.719
 109747401.679 8  85517557.53346  20884215.109                    20884219.902
 107860079.356 8  84046883.83746  20525078.422                    20525085.262
 123341330.579 6  96110234.09744  23471060.070                    23471068.844
 11  7 27  2 59 30.0000000  0  7G12G25G10G29G02G05G04
 109137823.288 8  85042552.46646  20768241.719                    20768248.195
 116619838.474 8  90872677.56045  22192019.750                    22192029.324
 113571377.688 7  88497291.33445  21611908.586                    21611916.055
 126777289.061 6  98787554.92043  24124920.938                    24124929.730
 109774116.006 8  85538373.89846  20889299.008                    20889303.230
 107821611.298 8  84016908.75046  20517758.055                    20517764.824
 123424188.624 7  96174798.82744  23486828.180                    23486836.234
 11  7 27  3  0  0.0000000  0  7G12G25G10G29G02G05G04
 109146919.535 8  85049640.44846  20769972.727                    20769979.188
 116562405.856 7  90827924.90145  22181090.688                    22181100.258
 113637696.841 7  88548968.60345  21624528.422                    21624535.996
 126695157.989 7  98723556.67744  24109292.063                    24109300.586
 109800996.516 8  85559319.76446  20894414.172                    20894418.703
 107783698.030 8  83987365.96346  20510543.727                    20510550.285
 123507028.342 7  96239349.26644  23502592.180                    23502600.227
 11  7 27  3  0 30.0000000  0  7G12G25G10G29G02G05G04
 109156599.738 8  85057183.46146  20771814.672                    20771821.324
 116505462.087 8  90783553.17745  22170254.203                    22170264.023
 113704501.028 7  88601023.81945  21637241.008                    21637248.586
 126612980.700 6  98659522.42643  24093653.594                    24093662.563
 109828042.736 8  85580394.75346  20899560.977                    20899565.719
 107746340.839 8  83958256.47746  20503434.656                    20503441.168
 123589849.066 7  96303884.91144  23518351.977                    23518359.793
 11  7 27  3  1  0.0000000  0  7G12G25G10G29G02G05G04
 109166864.027 8  85065181.59946  20773767.820                    20773774.465
 116449009.421 8  90739564.11945  22159511.656                    22159521.340
 113771788.279 7  88653455.43245  21650045.664                    21650052.809
 126530758.186 6  98595452.91343  24078006.617                    24078015.148
 109855253.851 8  85601598.22646  20904739.055                    20904743.773
 107709540.935 8  83929581.25346  20496431.617                    20496438.453
 123672649.998 7  96368405.12943  23534108.047                    23534115.996
 11  7 27  3  1 30.0000000  0  7G12G25G10G29G02G05G04
 109177711.950 8  85073634.52946  20775832.586                    20775839.297
 116393049.322 8  90695958.88345  22148863.000                    22148872.824
 113839555.303 7  88706260.91545  21662941.484                    21662948.402
 126448490.684 6  98531348.39643  24062352.469                    24062360.367
 109882628.372 8  85622929.03246  20909947.961                    20909952.793
 107673298.870 8  83901340.71346  20489535.250                    20489542.406
 123755430.134 7  96432909.14443  23549860.453                    23549868.441
 11  7 27  3  2  0.0000000  0  7G12G25G10G29G02G05G04
 109189143.007 8  85082541.83446  20778007.406                    20778014.328
 116337583.835 8  90652739.05545  22138308.313                    22138317.617
 113907799.877 7  88759438.50045  21675927.492                    21675935.039
 126366179.331 6  98467209.74044  24046689.320                    24046696.211
 109910165.534 8  85644386.57946  20915188.195                    20915192.996
 107637615.788 8  83873535.73546  20482744.992                    20482751.262
 123838188.811 7  96497396.41943  23565609.172                    23565616.836
 11  7 27  3  2 30.0000000  0  7G12G25G10G29G02G05G04
 109201156.807 8  85091903.23546  20780293.852                    20780300.926
 116282615.039 8  90609906.26545  22127848.172                    22127857.344
 113976519.663 7  88812986.39045  21689004.953                    21689012.020
 126283824.991 7  98403037.55543  24031017.656                    24031025.121
 109937864.756 8  85665970.39846  20920459.422                    20920464.117
 107602492.769 8  83846167.17546  20476061.438                    20476068.242
 123920925.398 7  96561866.50943  23581353.375                    23581360.770
 11  7 27  3  3  0.0000000  0  7G12G25G10G29G02G05G04
 109213753.644 7  85101718.95346  20782690.781                    20782697.496
 116228145.038 8  90567462.12945  22117482.844                    22117492.082
 114045712.066 7  88866902.56045  21702171.641                    21702178.938
 126201429.141 6  98338833.04243  24015338.141                    24015345.895
 109965725.282 8  85687679.91846  20925760.734                    20925765.230
 107567930.710 8  83819235.71846  20469484.398                    20469490.984
 124003639.010 7  96626318.69743  23597092.508                    23597100.578
 11  7 27  3  3 30.0000000  0  7G12G25G10G29G02G05G04
 109226932.385 8  85111988.09646  20785198.789                    20785205.219
 116174175.616 7  90525408.07645  22107212.859                    22107222.445
 114115374.419 7  88921184.92045  21715428.039                    21715434.844
 126118992.350 6  98274596.62944  23999650.961                    23999659.512
 109993745.944 8  85709514.20046  20931092.914                    20931097.656
 107533930.357 8  83792741.94746  20463014.070                    20463020.914
 124086328.802 7  96690752.28543  23612828.695                    23612835.656
 11  7 27  3  4  0.0000000  0  7G12G25G10G29G02G05G04
 109240692.707 8  85122710.42346  20787817.250                    20787823.863
 116120708.471 8  90483745.39845  22097038.031                    22097047.387
 114185504.123 7  88975831.45645  21728773.063                    21728780.004
 126036515.059 6  98210328.71844  23983956.453                    23983964.535
 110021925.657 8  85731472.43646  20936455.539                    20936460.402
 107500492.751 8  83766686.69546  20456651.102                    20456657.813
 124168994.019 7  96755166.74943  23628559.766                    23628567.777
 11  7 27  3  4 30.0000000  0  7G12G25G10G29G02G05G04
 109255033.959 8  85133885.43346  20790546.555                    20790553.219
 116067745.472 8  90442475.55145  22086959.445                    22086969.129
 114256098.633 7  89030840.16245  21742206.969                    21742213.789
 125953998.028 6  98146029.79544  23968253.555                    23968261.738
 110050263.502 8  85753553.88546  20941847.617                    20941852.648
 107467618.807 8  83741070.65846  20450395.617                    20450401.914
 124251633.958 7  96819561.50043  23644285.477                    23644293.418
 11  7 27  3  5  0.0000000  0  7G12G25G10G29G02G05G04
 109269955.818 8  85145512.84946  20793386.125                    20793392.570
 116015288.450 8  90401599.98945  22076977.039                    22076986.578
 114327155.456 7  89086209.12245  21755728.922                    21755735.762
 125871442.525 6  98081700.92644  23952543.453                    23952552.625
 110078758.651 8  85775757.91146  20947270.164                    20947275.234
 107435309.338 8  83715894.48046  20444246.961                    20444253.656
 124334247.697 7  96883935.85344  23660006.367                    23660014.430
 11  7 27  3  5 30.0000000  0  7G12G25G10G29G02G05G04
 109285458.794 8  85157593.09746  20796335.797                    20796342.777
 115963339.809 8  90361120.54845  22067091.555                    22067100.762
 114398672.376 7  89141936.59945  21769337.758                    21769344.883
 125788849.827 6  98017343.11843  23936825.836                    23936835.211
 110107410.994 8  85798084.41846  20952722.398                    20952727.457
 107403565.251 8  83691158.84946  20438206.672                    20438213.219
 124416835.100 7  96948289.69543  23675721.477                    23675730.375
 11  7 27  3  6  0.0000000  0  7G12G25G10G29G02G05G04
 109301541.019 8  85170124.70146  20799396.422                    20799403.383
 115911900.949 8  90321038.36246  22057303.391                    22057312.793
 114470646.517 7  89198020.35245  21783033.875                    21783041.094
 125706220.737 6  97952956.92444  23921102.266                    23921110.844
 110136219.006 8  85820532.22846  20958204.359                    20958209.152
 107372387.264 8  83666864.33746  20432273.695                    20432280.191
 124499395.115 6  97012622.17344  23691432.344                    23691440.309
 11  7 27  3  6 30.0000000  0  7G12G25G10G29G02G05G04
 109318202.467 8  85183107.65246  20802566.813                    20802573.828
 115860973.748 8  90281354.85645  22047612.203                    22047621.523
 114543075.229 7  89254458.31345  21796816.555                    21796823.734
 125623555.875 6  97888542.84244  23905371.781                    23905380.598
 110165181.985 8  85843100.79046  20963715.766                    20963720.281
 107341776.148 8  83643011.53947  20426448.727                    20426455.223
 124581927.058 7  97076932.76043  23707137.938                    23707145.758
 11  7 27  3  7  0.0000000  0  7G12G25G10G29G02G05G04
 109335442.167 8  85196541.17646  20805847.602                    20805854.223
 115810559.743 8  90242071.26445  22038018.633                    22038028.277
 114615955.636 7  89311248.24945  21810685.422                    21810692.070
 125540856.053 6  97824101.49544  23889634.125                    23889642.680
 110194298.769 8  85865789.20746  20969256.945                    20969261.375
 107311732.652 8  83619601.04547  20420731.172                    20420737.926
 124664430.180 7  97141220.91743  23722837.758                    23722845.898
 11  7 27  3  7 30.0000000  0  7G12G25G10G29G02G05G04
 109353259.510 8  85210424.81346  20809238.125                    20809244.402
 115760660.667 8  90203188.89546  22028522.977                    22028532.582
 114689284.971 7  89368388.00245  21824639.398                    21824646.703
 125458122.435 7  97759633.81944  23873890.969                    23873899.074
 110223568.389 8  85888596.71646  20974826.672                    20974831.188
 107282257.174 8  83596633.16146  20415122.289                    20415128.613
 124746903.467 7  97205485.82643  23738531.016                    23738540.188
 11  7 27  3  8  0.0000000  0  7G12G25G10G29G02G05G04
 109371654.194 8  85224758.34246  20812738.383                    20812745.105
 115711278.340 8  90164709.19646  22019126.047                    22019135.277
 114763060.500 7  89425875.44745  21838678.000                    21838685.164
 125375355.942 7  97695140.51644  23858140.922                    23858148.902
 110252990.272 8  85911522.87946  20980425.383                    20980429.672
 107253350.536 8  83574108.52947  20409621.578                    20409628.156
 124829346.616 6  97269727.23643  23754220.125                    23754227.922
 11  7 27  3  8 30.0000000  0  7G12G25G10G29G02G05G04
 109390625.293 7  85239541.00946  20816348.328                    20816355.180
 115662414.520 8  90126633.50346  22009827.391                    22009836.961
 114837279.870 7  89483708.73945  21852801.844                    21852808.633
 125292557.509 7  97630622.35444  23842384.461                    23842392.836
 110282563.485 8  85934566.95046  20986053.125                    20986057.684
 107225013.348 8  83552027.62147  20404228.992                    20404235.375
 124911758.788 7  97333944.51044  23769902.945                    23769910.648
 11  7 27  3  9  0.0000000  0  7G12G25G10G29G02G05G04
 109410172.433 8  85254772.53746  20820068.086                    20820074.809
 115614070.961 8  90088963.23845  22000627.906                    22000637.406
 114911940.415 7  89541885.80545  21867009.219                    21867016.063
 125209728.339 7  97566080.23344  23826623.102                    23826631.395
 110312287.326 8  85957728.40846  20991709.117                    20991713.531
 107197246.523 8  83530391.15547  20398945.000                    20398952.262
 124994139.352 6  97398137.15843  23785579.695                    23785587.012
 11  7 27  3  9 30.0000000  0  7G12G25G10G29G02G05G04
 109430294.756 8  85270452.26346  20823897.164                    20823903.922
 115566249.424 8  90051699.73646  21991527.992                    21991537.117
 114987039.487 7  89600404.56345  21881300.445                    21881307.219
 125126869.606 7  97501515.06844  23810855.141                    23810863.750
 110342161.051 8  85981006.64646  20997394.250                    20997398.797
 107170050.628 8  83509199.58147  20393769.664                    20393776.566
 125076487.634 6  97462304.64343  23801250.367                    23801257.961
 11  7 27  3 10  0.0000000  0  7G12G25G10G29G02G05G04
 109450991.397 8  85286579.52246  20827835.563                    20827842.504
 115518950.773 8  90014843.68146  21982526.898                    21982536.375
 115062573.440 7  89659262.20045  21895673.438                    21895680.941
 125043981.350 7  97436926.89344  23795082.016                    23795089.809
 110372182.831 8  86004400.25646  21003107.094                    21003111.750
 107143425.170 8  83488452.48546  20388703.539                    20388710.094
 125158802.515 6  97526446.14043  23816913.516                    23816921.148
 11  7 27  3 10 30.0000000  0  7G12G25G10G29G02G05G04
 109472261.110 8  85303153.33146  20831883.359                    20831889.984
 115472177.435 8  89978396.95346  21973626.492                    21973635.535
 115138540.825 7  89718457.57145  21910129.789                    21910137.215
 124961065.305 7  97372317.04644  23779303.930                    23779312.059
 110402352.696 8  86027909.25446  21008848.258                    21008852.770
 107117371.928 8  83468151.29047  20383745.398                    20383752.160
 125241084.028 6  97590561.63843  23832570.578                    23832579.164
 11  7 27  3 11  0.0000000  0  7G12G25G10G29G02G05G04
 109494103.613 8  85320173.46746  20836039.547                    20836046.281
 115425931.176 8  89942360.93746  21964825.852                    21964835.230
 115214939.015 7  89777988.64145  21924667.891                    21924674.348
 124878122.796 7  97307686.61944  23763520.148                    23763528.324
 110432670.122 8  86051533.23146  21014617.227                    21014622.070
 107091891.132 8  83448296.14946  20378896.289                    20378903.375
 125323331.638 6  97654650.65143  23848222.297                    23848230.148
 11  7 27  3 11 30.0000000  0  7G12G25G10G29G02G05G04
 109516518.107 8  85337639.30746  20840305.102                    20840312.152
 115380213.184 8  89906736.56446  21956126.320                    21956135.512
 115291764.662 7  89837852.80145  21939287.078                    21939293.762
 124795154.243 6  97243035.85544  23747732.203                    23747739.621
 110463133.779 8  86075271.16046  21020414.938                    21020418.977
 107066983.507 8  83428887.62947  20374156.828                    20374163.430
 125405544.238 6  97718712.43643  23863866.977                    23863874.621
 11  7 27  3 12  0.0000000  0  7G12G25G10G29G02G05G04
 109539503.406 8  85355549.93246  20844678.914                    20844685.652
 115335025.169 8  89871525.14746  21947527.195                    21947536.598
 115369014.890 7  89898047.80045  21953987.680                    21953994.465
 124712160.790 6  97178365.71944  23731938.320                    23731946.793
 110493742.901 8  86099122.43946  21026239.008                    21026243.473
 107042649.212 8  83409925.85947  20369525.906                    20369533.121
 125487721.455 6  97782746.67443  23879504.211                    23879511.930
 11  7 27  3 12 30.0000000  0  7G12G25G10G29G02G05G04
 109563059.146 8  85373905.05746  20849161.805                    20849168.203
 115290368.843 8  89836728.02646  21939029.258                    21939038.938
 115446687.438 7  89958571.86845  21968768.023                    21968774.879
 124629143.463 6  97113676.97744  23716140.969                    23716149.531
 110524496.853 8  86123086.56746  21032091.273                    21032095.895
 107018888.735 8  83391411.22147  20365004.656                    20365011.145
 125569862.829 6  97846752.94943  23895135.703                    23895144.211
 11  7 27  3 13  0.0000000  0  7G12G25G10G29G02G05G04
 109587184.289 8  85392703.86346  20853752.414                    20853758.992
 115246245.639 8  89802346.34146  21930632.852                    21930642.414
 115524779.568 7  90019422.87545  21983628.656                    21983635.535
 124546103.756 7  97048970.78744  23700338.500                    23700347.188
 110555395.083 8  86147163.11646  21037971.180                    21037975.727
 106995702.964 8  83373344.40747  20360592.508                    20360599.156
 125651967.611 6  97910730.69843  23910759.148                    23910767.664
 11  7 27  3 13 30.0000000  0  7G12G25G10G29G02G05G04
 109611877.420 8  85411945.27046  20858451.406                    20858457.984
 115202656.976 8  89768381.18846  21922338.422                    21922347.648
 115603288.388 7  90080598.59145  21998568.258                    21998575.316
 124463042.533 6  96984247.83744  23684532.164                    23684541.703
 110586436.366 8  86171351.14046  21043877.992                    21043882.375
 106973091.866 8  83355725.38747  20356289.914                    20356296.293
 125734035.194 6  97974679.45643  23926377.102                    23926384.477
 11  7 27  3 14  0.0000000  0  7G12G25G10G29G02G05G04
 109637137.935 8  85431628.79346  20863258.398                    20863264.848
 115159604.593 7  89734833.90146  21914145.227                    21914155.340
 115682210.964 7  90142096.70445  22013587.016                    22013593.504
 124379960.886 6  96919508.99544  23668722.688                    23668731.805
 110617620.144 8  86195650.19146  21049812.039                    21049816.625
 106951055.873 8  83338554.50247  20352096.484                    20352103.090
 125816065.033 6  98038598.76943  23941986.445                    23941993.652
 11  7 27  3 14 30.0000000  0  7G12G25G10G29G02G05G04
 109662965.085 8  85451753.84846  20868172.813                    20868179.402
 115117089.683 8  89701705.43646  21906055.125                    21906064.793
 115761544.534 7  90203915.07145  22028683.875                    22028691.043
 124296859.305 7  96854754.59044  23652909.086                    23652917.508
 110648945.381 8  86220059.47946  21055773.094                    21055777.676
 106929595.320 8  83321832.00747  20348012.742                    20348019.324
 125898056.462 6  98102488.18543  23957589.125                    23957596.316
 11  7 27  3 15  0.0000000  0  7G12G25G10G29G02G05G04
 109689357.624 8  85472319.47646  20873195.391                    20873201.941
 115075114.011 8  89668997.15346  21898067.602                    21898077.035
 115841286.996 7  90266052.07045  22043858.336                    22043865.441
 124213739.952 7  96789986.35044  23637091.820                    23637100.578
 110680411.779 8  86244578.75646  21061760.727                    21061765.625
 106908710.805 8  83305558.37747  20344038.648                    20344045.082
 125980009.045 6  98166347.31543  23973183.773                    23973191.602
 11  7 27  3 15 30.0000000  0  7G12G25G10G29G02G05G04
 109716314.296 8  85493324.67146  20878324.766                    20878331.332
 115033678.503 8  89636709.77946  21890182.484                    21890191.875
 115921434.806 7  90328504.92745  22059109.852                    22059116.824
 124130603.052 7  96725204.44244  23621271.492                    23621279.188
 110712017.875 8  86269206.89446  21067775.023                    21067780.059
 106888402.119 8  83289733.44946  20340173.461                    20340180.277
 126061921.964 6  98230175.55943  23988771.648                    23988779.348
 11  7 27  3 16  0.0000000  0  7G12G25G10G29G02G05G04
 109743834.317 8  85514768.85246  20883561.703                    20883568.223
 114992785.000 8  89604844.74246  21882401.102                    21882409.730
 116001985.540 7  90391271.74245  22074438.305                    22074445.426
 124047450.018 7  96660409.96044  23605447.805                    23605456.016
 110743763.478 8  86293943.73346  21073815.852                    21073820.516
 106868669.673 8  83274357.54247  20336418.953                    20336425.574
 126143795.064 6  98293972.75643  24004351.805                    24004359.609
 11  7 27  3 16 30.0000000  0  7G12G25G10G29G02G05G04
 109771916.717 8  85536651.24646  20888905.430                    20888912.254
 114952435.152 8  89573403.32846  21874722.859                    21874731.699
 116082936.630 7  90454350.52145  22089842.352                    22089849.910
 123964282.530 7  96595604.21544  23589621.031                    23589629.590
 110775648.037 8  86318788.85246  21079883.680                    21079888.410
 106849514.397 8  83259431.36847  20332773.922                    20332780.102
 126225627.703 6  98357738.42543  24019923.914                    24019931.852
 11  7 27  3 17  0.0000000  0  7G12G25G10G29G02G05G04
 109800559.743 8  85558970.48146  20894356.234                    20894362.789
 114912629.421 8  89542385.91146  21867147.523                    21867156.961
 116164284.039 7  90517738.13045  22105321.766                    22105329.129
 123881101.060 7  96530787.59944  23573792.734                    23573800.473
 110807669.882 8  86343740.94346  21085976.953                    21085981.996
 106830935.407 8  83244954.25447  20329238.195                    20329244.715
 126307419.058 6  98421471.91943  24035488.391                    24035496.535
 11  7 27  3 17 30.0000000  0  7G12G25G10G29G02G05G04
 109829762.714 8  85581726.03746  20899913.828                    20899919.977
 114873369.577 8  89511793.85046  21859676.719                    21859686.730
 116246025.645 7  90581432.88845  22120877.047                    22120884.262
 123797906.557 7  96465960.79544  23557961.320                    23557968.508
 110839828.568 8  86368799.67846  21092096.883                    21092101.688
 106812933.291 8  83230926.65647  20325812.484                    20325819.184
 126389168.714 6  98485172.90943  24051044.609                    24051052.320
 11  7 27  3 18  0.0000000  0  7G12G25G10G29G02G05G04
 109859524.530 7  85604917.06546  20905576.961                    20905583.395
 114834657.237 8  89481628.42446  21852309.992                    21852319.508
 116328159.060 7  90645432.95545  22136506.656                    22136513.660
 123714700.317 7  96401124.87444  23542127.344                    23542134.844
 110872123.631 7  86393964.67446  21098242.500                    21098246.875
 106795508.692 8  83217349.06147  20322496.438                    20322503.410
 126470876.365 6  98548841.19443  24066592.695                    24066600.465
 11  7 27  3 18 30.0000000  0  7G12G25G10G29G02G05G04
 109889844.031 8  85628542.64346  20911346.766                    20911352.934
 114796493.718 8  89451890.64046  21845047.648                    21845057.203
 116410681.589 7  90709736.22945  22152210.336                    22152216.961
 123631484.021 7  96336281.07244  23526291.664                    23526299.527
 110904554.623 8  86419235.58846  21104413.844                    21104418.746
 106778661.620 8  83204221.48947  20319291.055                    20319297.641
 126552541.525 7  98612476.40643  24082133.414                    24082140.703
 11  7 27  3 19  0.0000000  0  7G12G25G10G29G02G05G04
 109920719.911 7  85652601.76946  20917222.164                    20917228.422
 114758880.082 8  89422581.32646  21837890.281                    21837899.660
 116493589.975 7  90774340.16745  22167987.352                    22167994.254
 123548258.875 7  96271430.42244  23510454.148                    23510462.602
 110937120.446 7  86444611.56446  21110610.391                    21110615.871
 106762392.002 8  83191543.88747  20316194.688                    20316201.313
 126634163.565 6  98676077.96143  24097665.086                    24097673.527
 11  7 27  3 19 30.0000000  0  7G12G25G10G29G02G05G04
 109952150.891 8  85677093.43746  20923203.500                    20923209.863
 114721817.270 8  89393701.22246  21830837.219                    21830846.785
 116576880.876 7  90839242.16345  22183836.586                    22183844.086
 123465025.373 7  96206573.24544  23494615.781                    23494623.230
 110969819.963 8  86470091.71946  21116833.258                    21116837.777
 106746699.632 8  83179316.09147  20313208.406                    20313215.746
 126715741.718 6  98739645.36543  24113188.938                    24113197.219
 11  7 27  3 20  0.0000000  0  7G12G25G10G29G02G05G04
 109984135.731 8  85702016.68346  20929289.703                    20929296.313
 114685306.967 8  89365251.66046  21823889.305                    21823898.297
 116660551.926 7  90904440.39645  22199758.602                    22199765.938
 123381785.111 7  96141710.79444  23478775.289                    23478782.777
 111002652.977 8  86495675.89046  21123081.125                    21123086.195
 106731584.850 8  83167538.36547  20310332.133                    20310339.258
 126797275.764 6  98803178.37043  24128705.242                    24128712.098
 11  7 27  3 20 30.0000000  0  7G12G25G10G29G02G05G04
 110016673.531 8  85727370.81146  20935481.336                    20935488.129
 114649350.933 7  89337233.97646  21817047.172                    21817056.547
 116744601.277 7  90969933.38545  22215752.891                    22215760.066
 123298539.694 7  96076844.31644  23462934.219                    23462941.660
 111035619.489 8  86521364.09346  21129354.273                    21129359.680
 106717048.383 8  83156211.27347  20307566.281                    20307572.551
 126878765.920 6  98866677.17943  24144212.000                    24144219.848
 11  7 27  3 21  0.0000000  0  7G12G25G10G29G02G05G04
 110049762.530 8  85753154.43746  20941778.273                    20941784.723
 114613949.172 8  89309648.19646  21810310.289                    21810319.699
 116829024.625 7  91035717.81445  22231817.938                    22231825.051
 123215289.488 6  96011974.10544  23447092.469                    23447099.875
 111068717.541 8  86547154.78146  21135652.875                    21135657.273
 106703089.080 8  83145333.91647  20304909.711                    20304916.402
 126960210.590 6  98930140.56643  24159710.570                    24159718.031
 11  7 27  3 21 30.0000000  0  7G12G25G10G29G02G05G04
 110083401.536 8  85779366.65146  20948179.289                    20948185.863
 114579103.569 8  89282495.77846  21803679.594                    21803688.566
 116913819.687 7  91101791.88544  22247954.008                    22247961.234
 123132036.291 6  95947101.56344  23431249.469                    23431257.043
 111101947.044 8  86573047.90946  21141976.164                    21141981.035
 106689707.896 8  83134907.04447  20302363.492                    20302370.195
 127041610.068 6  98993568.75443  24175200.789                    24175207.801
 11  7 27  3 22  0.0000000  0  7G12G25G10G29G02G05G04
 110117589.174 8  85806006.37946  20954685.211                    20954691.691
 114544815.463 8  89255777.78346  21797154.969                    21797164.219
 116998983.907 7  91168153.61044  22264160.141                    22264167.402
 123048781.450 6  95882227.71344  23415406.875                    23415413.891
 111135307.476 8  86599043.05846  21148324.617                    21148329.344
 106676904.590 8  83124930.47047  20299927.234                    20299934.027
 127122963.791 6  99056961.25643  24190680.945                    24190689.016
 11  7 27  3 22 30.0000000  0  7G12G25G10G29G02G05G04
 110152324.291 7  85833072.70146  20961294.914                    20961301.570
 114511085.594 8  89229494.76946  21790736.156                    21790745.426
 117084513.999 7  91234800.43144  22280436.180                    22280442.996
 122965525.877 7  95817353.28744  23399564.156                    23399572.000
 111168797.962 7  86625139.54646  21154697.805                    21154701.891
 106664679.063 8  83115404.11747  20297600.398                    20297607.344
 127204271.378 6  99120317.77143  24206153.430                    24206161.105
 11  7 27  3 23  0.0000000  0  7G12G25G10G29G02G05G04
 110187605.359 8  85860564.44246  20968008.695                    20968015.141
 114477915.387 8  89203647.86846  21784424.094                    21784433.395
 117170407.581 7  91301730.50144  22296781.180                    22296788.082
 122882271.251 6  95752479.60644  23383720.375                    23383729.188
 111202418.107 8  86651337.06446  21161095.430                    21161100.059
 106653031.258 8  83106327.92647  20295383.938                    20295390.605
 127285532.355 6  99183638.02443  24221616.719                    24221624.156
 11  7 27  3 23 30.0000000  0  7G12G25G10G29G02G05G04
 110223430.769 8  85888480.33346  20974826.336                    20974832.801
 114445305.192 8  89178237.33746  21778218.688                    21778226.988
 117256661.058 7  91368941.00645  22313194.203                    22313201.461
 122799018.118 7  95687607.09344  23367878.141                    23367886.313
 111236166.275 8  86677634.34046  21167517.227                    21167521.660
 106641960.271 8  83097701.21047  20293277.305                    20293283.680
 127366745.630 6  99246921.06243  24237071.641                    24237079.449
 11  7 27  3 24  0.0000000  0  7G12G25G10G29G02G05G04
 110259799.470 8  85916819.58946  20981746.859                    20981753.879
 114413257.048 8  89153264.75246  21772120.328                    21772129.234
 117343272.276 7  91436430.26744  22329675.953                    22329683.273
 122715768.632 7  95622737.40044  23352036.203                    23352044.125
 111270043.114 8  86704031.88846  21173963.609                    21173968.492
 106631467.430 8  83089524.99447  20291280.570                    20291287.309
 127447911.864 5  99310167.46142  24252516.461                    24252525.285
 11  7 27  3 24 30.0000000  0  7G12G25G10G29G02G05G04
 110296709.787 8  85945580.87446  20988770.797                    20988777.371
 114381771.481 8  89128730.57046  21766128.742                    21766138.273
 117430237.840 7  91504195.65745  22346225.539                    22346232.680
 122632523.465 7  95557871.03944  23336195.570                    23336203.375
 111304047.234 8  86730528.60946  21180434.531                    21180439.180
 106621551.894 8  83081798.62847  20289393.711                    20289400.266
 127529030.270 6  99373376.63242  24267952.914                    24267961.016
 11  7 27  3 25  0.0000000  0  7G12G25G10G29G02G05G04
 110334160.191 8  85974762.99646  20995897.102                    20995904.129
 114350849.542 8  89104635.57146  21760244.469                    21760254.262
 117517555.366 7  91572235.28544  22362840.961                    22362847.910
 122549284.267 7  95493009.35244  23320355.047                    23320363.367
 111338178.121 8  86757124.10946  21186929.461                    21186933.977
 106612213.348 8  83074521.85947  20287616.594                    20287623.234
 127610100.143 6  99436547.92742  24283379.500                    24283387.785
 11  7 27  3 25 30.0000000  0  7G12G25G10G29G02G05G04
 110372149.112 8  86004364.76246  21003126.414                    21003132.832
 114320492.311 8  89080980.59446  21754467.570                    21754476.938
 117605221.846 7  91640546.84445  22379523.445                    22379530.426
 122466052.362 7  95428153.34244  23304516.898                    23304524.891
 111372435.077 8  86783817.84546  21193448.461                    21193453.285
 106603451.555 8  83067694.50847  20285949.094                    20285955.906
 127691121.329 6  99499681.26843  24298797.813                    24298805.766
 11  7 27  3 26  0.0000000  0  7G12G25G10G29G02G05G04
 110410675.489 8  86034385.30846  21010457.797                    21010464.180
 114290701.036 8  89057766.64546  21748798.414                    21748807.801
 117693234.592 7  91709128.20545  22396271.742                    22396278.645
 122382829.051 7  95363304.03644  23288680.180                    23288687.637
 111406818.269 8  86810609.94746  21199991.156                    21199995.801
 106595267.005 7  83061316.95747  20284391.500                    20284398.367
 127772093.891 6  99562776.76343  24314205.953                    24314214.156
 11  7 27  3 26 30.0000000  0  7G12G25G10G29G02G05G04
 110449737.069 8  86064822.89846  21017890.773                    21017897.219
 114261475.630 8  89034993.62146  21743237.078                    21743245.699
 117781589.859 7  91777976.46544  22413085.000                    22413092.523
 122299614.823 7  95298461.79344  23272845.094                    23272853.051
 111441325.491 8  86837498.69946  21206557.836                    21206562.484
 106587657.974 8  83055387.86047  20282943.852                    20282950.582
 127853016.437 6  99625833.29943  24329606.227                    24329614.367
 11  7 27  3 27  0.0000000  0  7G12G25G10G29G02G05G04
 110489332.326 8  86095676.34446  21025425.328                    21025432.461
 114232817.646 8  89012662.73546  21737783.680                    21737793.102
 117870285.210 7  91847089.72545  22429963.734                    22429970.730
 122216411.838 7  95233628.35244  23257011.313                    23257020.164
 111475956.920 8  86864484.24146  21213148.055                    21213152.516
 106580625.104 8  83049907.72047  20281605.492                    20281612.160
 127933889.202 6  99688851.05343  24344995.070                    24345003.941
 11  7 27  3 27 30.0000000  0  7G12G25G10G29G02G05G04
 110529460.104 8  86126944.73546  21033061.633                    21033068.543
 114204728.268 8  88990774.92546  21732438.180                    21732447.469
 117959318.090 7  91916466.00344  22446905.578                    22446912.715
 122133221.618 7  95168804.84944  23241181.156                    23241189.484
 111510712.387 8  86891566.43546  21219761.297                    21219766.262
 106574168.436 8  83044876.56647  20280376.469                    20280383.348
 128014711.908 6  99751829.77943  24360376.328                    24360383.445
 11  7 27  3 28  0.0000000  0  8G12G25G10G29G26G02G05G04
 110570118.860 8  86158626.88546  21040798.969                    21040805.219
 114177208.042 8  88969330.60846  21727201.703                    21727210.484
 118048685.448 7  91986102.92244  22463912.445                    22463918.973
 122050045.322 7  95103992.19544  23225352.875                    23225360.742
 130133965.23915 101403162.74152  24763678.695                    24763688.371
 111545590.727 8  86918744.37246  21226398.844                    21226403.094
 106568287.235 8  83040293.82447  20279257.523                    20279264.766
 128095484.005 6  99814769.09043  24375746.398                    24375754.129
 11  7 27  3 28 30.0000000  0  8G12G25G10G29G26G02G05G04
 110611307.318 8  86190721.78746  21048636.461                    21048643.367
 114150258.745 8  88948331.17746  21722073.375                    21722082.559
 118138385.270 7  92055998.89044  22480980.820                    22480988.137
 121966885.035 7  95039192.00244  23209528.008                    23209536.156
 130038721.62116 101328946.98852  24745555.781                    24745563.789
 111580592.361 8  86946018.38446  21233059.617                    21233063.996
 106562981.981 8  83036159.87347  20278248.258                    20278254.813
 128176206.242 6  99877669.52143  24391107.078                    24391115.152
 11  7 27  3 29  0.0000000  0  8G12G25G10G29G26G02G05G04
 110653023.282 8  86223227.72946  21056574.672                    21056581.707
 114123880.191 8  88927776.48646  21717053.695                    21717062.910
 118228413.602 7  92126150.83644  22498112.383                    22498120.191
 121883741.123 7  94974404.58344  23193706.617                    23193714.512
 129943365.241 6 101254643.28942  24727409.070                    24727418.238
 111615715.798 8  86973387.30246  21239742.930                    21239748.133
 106558251.464 8  83032473.76847  20277347.813                    20277354.355
 128256877.114 6  99940530.02143  24406458.422                    24406465.316
 11  7 27  3 29 30.0000000  0  8G12G25G10G29G26G02G05G04
 110695264.296 8  86256142.80546  21064613.250                    21064619.863
 114098072.963 8  88907666.96946  21712142.688                    21712151.645
 118318767.322 7  92196556.34044  22515306.578                    22515313.820
 121800615.240 7  94909631.22144  23177888.031                    23177896.098
 129847898.900 6 101180253.92542  24709243.234                    24709251.496
 111650960.262 8  87000850.53046  21246450.078                    21246454.152
 106554094.904 8  83029234.90947  20276557.047                    20276563.449
 128337496.149 6 100003350.08043  24421798.758                    24421807.113
 11  7 27  3 30  0.0000000  0  8G12G25G10G29G26G02G05G04
 110738029.555 8  86289466.38246  21072751.055                    21072757.469
 114072838.161 8  88888003.51046  21707340.602                    21707350.027
 118409443.885 7  92267213.40244  22532561.992                    22532568.895
 121717508.842 7  94844873.04044  23162073.047                    23162081.480
 129752325.632 6 101105781.35143  24691055.891                    24691064.684
 111686325.492 8  87028407.86046  21253179.734                    21253183.938
 106550512.469 8  83026443.42047  20275875.406                    20275881.855
 128418063.340 6 100066129.68443  24437131.141                    24437138.309
 11  7 27  3 30 30.0000000  0  8G12G25G10G29G26G02G05G04
 110781317.047 8  86323196.88946  21080988.352                    21080994.895
 114048176.618 8  88868786.74746  21702647.461                    21702656.520
 118500440.388 7  92338119.78044  22549878.008                    22549884.488
 121634422.990 7  94780130.88645  23146262.984                    23146270.766
 129656648.590 6 101031227.89242  24672847.797                    24672857.441
 111721810.925 8  87056058.85346  21259932.367                    21259936.648
 106547503.588 8  83024098.85547  20275302.617                    20275309.066
 128498578.437 6 100128868.75343  24452452.297                    24452459.844
 11  7 27  3 31  0.0000000  0  8G12G25G10G29G26G02G05G04
 110825124.713 8  86357332.72646  21089325.031                    21089331.602
 114024088.891 8  88850017.11346  21698063.852                    21698072.902
 118591753.753 7  92409273.06244  22567254.727                    22567261.348
 121551359.161 7  94715405.87344  23130456.188                    23130464.398
 129560870.577 6 100956595.74043  24654623.406                    24654631.984
 111757415.823 8  87083802.94646  21266707.930                    21266712.277
 106545067.392 8  83022200.53947  20274838.914                    20274845.445
 128579041.066 6 100191566.92043  24467763.516                    24467772.031
 11  7 27  3 31 30.0000000  0  8G12G25G10G29G26G02G05G04
 110869451.315 8  86391872.94046  21097759.617                    21097766.164
 114000575.772 8  88831695.23146  21693589.281                    21693598.641
 118683381.439 7  92480671.26844  22584690.453                    22584697.664
 121468319.067 7  94650699.37044  23114653.688                    23114661.836
 129464994.482 6 100881887.17843  24636378.586                    24636387.074
 111793139.674 8  87111639.71246  21273506.180                    21273510.133
 106543203.971 8  83020748.54147  20274484.320                    20274491.121
 128659451.003 6 100254224.02243  24483065.563                    24483072.609
 11  7 27  3 32  0.0000000  0  8G12G25G10G29G26G02G05G04
 110914294.885 8  86426815.97746  21106293.242                    21106299.793
 113977637.914 8  88813821.59846  21689224.219                    21689233.793
 118775320.403 7  92552312.02344  22602185.594                    22602192.828
 121385304.196 7  94586012.47444  23098856.883                    23098864.059
 129369023.465 6 100807104.61943  24618115.211                    24618123.922
 111828982.061 8  87139568.86146  21280326.445                    21280330.309
 106541912.728 8  83019742.39247  20274238.492                    20274244.961
 128739807.932 6 100316839.77943  24498356.781                    24498363.941
